Wetterdaten: Montag, 08.05.2017
Datum Zeit Temp. A. Pool Temp. Feuchte A. Luftdruck Regen Wind Richtung Richtung Sonnenschein ET UV Solar Taupunkt Windchill Windben Empfang
08.05.2017 00:00 10,6 C 15,6 C 95 % 1011,6 hPa 0,0 l/m 11,1 km/h (2 Bft) W-SW 238 0 min 0,000 mm 0,0 UV-I 0 W/m 9,8 C 7,7 C 17,7 km/h (3 Bft) 93,62 %
08.05.2017 00:02 10,6 C 15,6 C 95 % 1011,6 hPa 0,0 l/m 14,4 km/h (3 Bft) W-SW 256 0 min 0,000 mm 0,0 UV-I 0 W/m 9,8 C 6,1 C 20,9 km/h (4 Bft) 5,88 %
08.05.2017 00:04 10,7 C 15,6 C 95 % 1011,6 hPa 0,0 l/m 14,1 km/h (3 Bft) W-SW 252 0 min 0,000 mm 0,0 UV-I 0 W/m 9,9 C 6,4 C 22,5 km/h (4 Bft) 78,79 %
08.05.2017 00:06 10,8 C 15,6 C 95 % 1011,6 hPa 0,0 l/m 13,0 km/h (3 Bft) W-SW 238 0 min 0,000 mm 0,0 UV-I 0 W/m 10,0 C 7,0 C 20,9 km/h (4 Bft) 91,49 %
08.05.2017 00:08 10,8 C 15,6 C 95 % 1011,6 hPa 0,0 l/m 14,9 km/h (3 Bft) SW 221 0 min 0,000 mm 0,0 UV-I 0 W/m 10,0 C 6,1 C 22,5 km/h (4 Bft) 96,00 %
08.05.2017 00:10 10,8 C 15,6 C 95 % 1011,6 hPa 0,0 l/m 11,7 km/h (2 Bft) SW 234 0 min 0,000 mm 0,0 UV-I 0 W/m 10,0 C 7,6 C 20,9 km/h (4 Bft) 97,62 %
08.05.2017 00:12 10,9 C 15,6 C 95 % 1011,6 hPa 0,0 l/m 15,5 km/h (3 Bft) SW 219 0 min 0,000 mm 0,0 UV-I 0 W/m 10,1 C 6,0 C 27,4 km/h (4 Bft) 95,74 %
08.05.2017 00:14 10,9 C 15,6 C 95 % 1011,6 hPa 0,0 l/m 15,8 km/h (3 Bft) W-SW 253 0 min 0,000 mm 0,0 UV-I 0 W/m 10,1 C 5,9 C 24,1 km/h (4 Bft) 93,62 %
08.05.2017 00:16 10,9 C 15,6 C 95 % 1011,6 hPa 0,0 l/m 16,3 km/h (3 Bft) SW 232 0 min 0,000 mm 0,0 UV-I 0 W/m 10,1 C 5,7 C 24,1 km/h (4 Bft) 93,62 %
08.05.2017 00:18 10,9 C 15,6 C 95 % 1011,6 hPa 0,0 l/m 13,1 km/h (3 Bft) SW 225 0 min 0,000 mm 0,0 UV-I 0 W/m 10,1 C 7,0 C 19,3 km/h (3 Bft) 91,49 %
08.05.2017 00:20 10,9 C 15,6 C 95 % 1011,7 hPa 0,0 l/m 15,2 km/h (3 Bft) SW 220 0 min 0,000 mm 0,0 UV-I 0 W/m 10,1 C 6,1 C 22,5 km/h (4 Bft) 89,36 %
08.05.2017 00:22 10,9 C 15,6 C 95 % 1011,6 hPa 0,0 l/m 14,5 km/h (3 Bft) W-SW 249 0 min 0,000 mm 0,0 UV-I 0 W/m 10,1 C 6,4 C 20,9 km/h (4 Bft) 91,49 %
08.05.2017 00:24 10,9 C 15,6 C 95 % 1011,6 hPa 0,0 l/m 13,2 km/h (3 Bft) SW 229 0 min 0,000 mm 0,0 UV-I 0 W/m 10,1 C 7,0 C 22,5 km/h (4 Bft) 93,62 %
08.05.2017 00:26 10,9 C 15,6 C 95 % 1011,6 hPa 0,2 l/m 13,6 km/h (3 Bft) SW 227 0 min 0,000 mm 0,0 UV-I 0 W/m 10,1 C 6,8 C 24,1 km/h (4 Bft) 89,36 %
08.05.2017 00:28 10,9 C 15,6 C 95 % 1011,6 hPa 0,0 l/m 14,8 km/h (3 Bft) S-SW 211 0 min 0,000 mm 0,0 UV-I 0 W/m 10,1 C 6,3 C 22,5 km/h (4 Bft) 98,00 %
08.05.2017 00:30 10,9 C 15,6 C 95 % 1011,6 hPa 0,0 l/m 13,4 km/h (3 Bft) S-SW 213 0 min 0,000 mm 0,0 UV-I 0 W/m 10,1 C 6,9 C 20,9 km/h (4 Bft) 95,74 %
08.05.2017 00:32 10,9 C 15,6 C 95 % 1011,7 hPa 0,0 l/m 14,9 km/h (3 Bft) SW 226 0 min 0,000 mm 0,0 UV-I 0 W/m 10,1 C 6,3 C 22,5 km/h (4 Bft) 97,87 %
08.05.2017 00:34 10,9 C 15,6 C 95 % 1011,7 hPa 0,0 l/m 10,8 km/h (2 Bft) SW 225 0 min 0,000 mm 0,0 UV-I 0 W/m 10,1 C 8,2 C 20,9 km/h (4 Bft) 93,62 %
08.05.2017 00:36 10,9 C 15,6 C 94 % 1011,7 hPa 0,0 l/m 15,9 km/h (3 Bft) SW 232 0 min 0,000 mm 0,0 UV-I 0 W/m 10,0 C 5,9 C 22,5 km/h (4 Bft) 97,87 %
08.05.2017 00:38 10,9 C 15,6 C 94 % 1011,7 hPa 0,0 l/m 16,0 km/h (3 Bft) S-SW 208 0 min 0,000 mm 0,0 UV-I 0 W/m 10,0 C 5,8 C 24,1 km/h (4 Bft) 97,56 %
08.05.2017 00:40 10,8 C 15,6 C 94 % 1011,6 hPa 0,0 l/m 12,8 km/h (3 Bft) W-SW 237 0 min 0,000 mm 0,0 UV-I 0 W/m 9,9 C 7,1 C 20,9 km/h (4 Bft) 98,00 %
08.05.2017 00:42 10,8 C 15,6 C 94 % 1011,7 hPa 0,0 l/m 10,5 km/h (2 Bft) SW 224 0 min 0,000 mm 0,0 UV-I 0 W/m 9,9 C 8,2 C 16,1 km/h (3 Bft) 94,00 %
08.05.2017 00:44 10,9 C 15,6 C 94 % 1011,8 hPa 0,0 l/m 8,9 km/h (2 Bft) SW 221 0 min 0,000 mm 0,0 UV-I 0 W/m 10,0 C 9,2 C 12,9 km/h (3 Bft) 97,87 %
08.05.2017 00:46 10,9 C 15,6 C 94 % 1011,7 hPa 0,0 l/m 15,0 km/h (3 Bft) W-SW 254 0 min 0,000 mm 0,0 UV-I 0 W/m 10,0 C 6,2 C 22,5 km/h (4 Bft) 87,23 %
08.05.2017 00:48 10,8 C 15,6 C 94 % 1011,7 hPa 0,0 l/m 10,2 km/h (2 Bft) SW 236 0 min 0,000 mm 0,0 UV-I 0 W/m 9,9 C 8,4 C 16,1 km/h (3 Bft) 97,87 %
08.05.2017 00:50 10,8 C 15,6 C 94 % 1011,6 hPa 0,0 l/m 11,3 km/h (2 Bft) SW 229 0 min 0,000 mm 0,0 UV-I 0 W/m 9,9 C 7,8 C 19,3 km/h (3 Bft) 97,92 %
08.05.2017 00:52 10,8 C 15,6 C 94 % 1011,7 hPa 0,0 l/m 10,6 km/h (2 Bft) W-SW 247 0 min 0,000 mm 0,0 UV-I 0 W/m 9,9 C 8,2 C 16,1 km/h (3 Bft) 95,74 %
08.05.2017 00:54 10,8 C 15,6 C 94 % 1011,7 hPa 0,0 l/m 13,5 km/h (3 Bft) SW 224 0 min 0,000 mm 0,0 UV-I 0 W/m 9,9 C 6,7 C 19,3 km/h (3 Bft) 97,37 %
08.05.2017 00:56 10,8 C 15,6 C 94 % 1011,7 hPa 0,0 l/m 14,0 km/h (3 Bft) SW 233 0 min 0,000 mm 0,0 UV-I 0 W/m 9,9 C 6,5 C 20,9 km/h (4 Bft) 95,74 %
08.05.2017 00:58 10,8 C 15,6 C 95 % 1011,6 hPa 0,0 l/m 14,2 km/h (3 Bft) SW 225 0 min 0,000 mm 0,0 UV-I 0 W/m 10,0 C 6,4 C 20,9 km/h (4 Bft) 94,34 %
08.05.2017 01:00 10,8 C 15,6 C 94 % 1011,6 hPa 0,0 l/m 13,3 km/h (3 Bft) SW 236 0 min 0,000 mm 0,0 UV-I 0 W/m 9,9 C 6,8 C 20,9 km/h (4 Bft) 93,62 %
08.05.2017 01:01 10,8 C 15,6 C 94 % 1011,6 hPa 0,0 l/m 15,5 km/h (3 Bft) W-SW 248 0 min 0,000 mm 0,0 UV-I 0 W/m 9,9 C 5,9 C 22,5 km/h (4 Bft) 100,00 %
08.05.2017 01:04 10,8 C 15,6 C 94 % 1011,6 hPa 0,0 l/m 10,8 km/h (2 Bft) W-SW 242 0 min 0,000 mm 0,0 UV-I 0 W/m 9,9 C 8,0 C 16,1 km/h (3 Bft) 98,31 %
08.05.2017 01:06 10,8 C 15,6 C 95 % 1011,6 hPa 0,0 l/m 10,9 km/h (2 Bft) W-SW 254 0 min 0,000 mm 0,0 UV-I 0 W/m 10,0 C 8,0 C 19,3 km/h (3 Bft) 97,87 %
08.05.2017 01:08 10,8 C 15,6 C 95 % 1011,6 hPa 0,0 l/m 13,8 km/h (3 Bft) SW 229 0 min 0,000 mm 0,0 UV-I 0 W/m 10,0 C 6,6 C 20,9 km/h (4 Bft) 93,62 %
08.05.2017 01:10 10,8 C 15,6 C 95 % 1011,6 hPa 0,0 l/m 13,1 km/h (3 Bft) W-SW 246 0 min 0,000 mm 0,0 UV-I 0 W/m 10,0 C 6,9 C 19,3 km/h (3 Bft) 97,87 %
08.05.2017 01:12 10,8 C 15,6 C 95 % 1011,6 hPa 0,0 l/m 14,9 km/h (3 Bft) W-SW 245 0 min 0,000 mm 0,0 UV-I 0 W/m 10,0 C 6,1 C 22,5 km/h (4 Bft) 94,29 %
08.05.2017 01:14 10,8 C 15,6 C 95 % 1011,6 hPa 0,0 l/m 10,5 km/h (2 Bft) W-SW 256 0 min 0,000 mm 0,0 UV-I 0 W/m 10,0 C 8,2 C 14,5 km/h (3 Bft) 100,00 %
08.05.2017 01:16 10,8 C 15,6 C 95 % 1011,6 hPa 0,0 l/m 13,9 km/h (3 Bft) SW 229 0 min 0,000 mm 0,0 UV-I 0 W/m 10,0 C 6,6 C 22,5 km/h (4 Bft) 97,87 %
08.05.2017 01:18 10,8 C 15,6 C 95 % 1011,5 hPa 0,0 l/m 10,4 km/h (2 Bft) SW 222 0 min 0,000 mm 0,0 UV-I 0 W/m 10,0 C 8,3 C 17,7 km/h (3 Bft) 97,87 %
08.05.2017 01:20 10,8 C 15,6 C 95 % 1011,5 hPa 0,0 l/m 11,3 km/h (2 Bft) S-SW 196 0 min 0,000 mm 0,0 UV-I 0 W/m 10,0 C 7,8 C 19,3 km/h (3 Bft) 95,74 %
08.05.2017 01:22 10,7 C 15,6 C 95 % 1011,5 hPa 0,0 l/m 13,4 km/h (3 Bft) SW 226 0 min 0,000 mm 0,0 UV-I 0 W/m 9,9 C 6,7 C 17,7 km/h (3 Bft) 93,62 %
08.05.2017 01:24 10,7 C 15,6 C 95 % 1011,4 hPa 0,0 l/m 13,3 km/h (3 Bft) SW 223 0 min 0,000 mm 0,0 UV-I 0 W/m 9,9 C 6,7 C 22,5 km/h (4 Bft) 100,00 %
08.05.2017 01:26 10,7 C 15,6 C 95 % 1011,4 hPa 0,0 l/m 11,6 km/h (2 Bft) SW 232 0 min 0,000 mm 0,0 UV-I 0 W/m 9,9 C 7,5 C 17,7 km/h (3 Bft) 97,87 %
08.05.2017 01:28 10,7 C 15,6 C 95 % 1011,4 hPa 0,0 l/m 10,8 km/h (2 Bft) SW 234 0 min 0,000 mm 0,0 UV-I 0 W/m 9,9 C 7,9 C 17,7 km/h (3 Bft) 97,92 %
08.05.2017 01:30 10,7 C 15,6 C 95 % 1011,4 hPa 0,0 l/m 11,2 km/h (2 Bft) S-SW 194 0 min 0,000 mm 0,0 UV-I 0 W/m 9,9 C 7,7 C 17,7 km/h (3 Bft) 98,00 %
08.05.2017 01:32 10,7 C 15,6 C 95 % 1011,4 hPa 0,0 l/m 14,8 km/h (3 Bft) W-SW 246 0 min 0,000 mm 0,0 UV-I 0 W/m 9,9 C 6,1 C 22,5 km/h (4 Bft) 97,92 %
08.05.2017 01:34 10,7 C 15,6 C 95 % 1011,4 hPa 0,0 l/m 10,9 km/h (2 Bft) SW 217 0 min 0,000 mm 0,0 UV-I 0 W/m 9,9 C 7,9 C 19,3 km/h (3 Bft) 97,87 %
08.05.2017 01:36 10,7 C 15,6 C 95 % 1011,3 hPa 0,0 l/m 13,9 km/h (3 Bft) SW 215 0 min 0,000 mm 0,0 UV-I 0 W/m 9,9 C 6,4 C 22,5 km/h (4 Bft) 97,14 %
08.05.2017 01:38 10,7 C 15,6 C 95 % 1011,4 hPa 0,0 l/m 13,9 km/h (3 Bft) S-SW 205 0 min 0,000 mm 0,0 UV-I 0 W/m 9,9 C 6,4 C 24,1 km/h (4 Bft) 98,00 %
08.05.2017 01:40 10,7 C 15,6 C 95 % 1011,4 hPa 0,0 l/m 15,7 km/h (3 Bft) W-SW 253 0 min 0,000 mm 0,0 UV-I 0 W/m 9,9 C 5,7 C 24,1 km/h (4 Bft) 100,00 %
08.05.2017 01:42 10,7 C 15,6 C 95 % 1011,3 hPa 0,0 l/m 12,9 km/h (3 Bft) SW 232 0 min 0,000 mm 0,0 UV-I 0 W/m 9,9 C 6,9 C 20,9 km/h (4 Bft) 93,75 %
08.05.2017 01:44 10,7 C 15,6 C 95 % 1011,3 hPa 0,0 l/m 15,2 km/h (3 Bft) S-SW 194 0 min 0,000 mm 0,0 UV-I 0 W/m 9,9 C 5,9 C 29,0 km/h (5 Bft) 95,74 %
08.05.2017 01:46 10,7 C 15,6 C 95 % 1011,3 hPa 0,0 l/m 14,2 km/h (3 Bft) SW 222 0 min 0,000 mm 0,0 UV-I 0 W/m 9,9 C 6,3 C 22,5 km/h (4 Bft) 92,00 %
08.05.2017 01:48 10,7 C 15,6 C 95 % 1011,3 hPa 0,0 l/m 12,8 km/h (3 Bft) W-SW 246 0 min 0,000 mm 0,0 UV-I 0 W/m 9,9 C 6,9 C 19,3 km/h (3 Bft) 97,87 %
08.05.2017 01:50 10,7 C 15,6 C 95 % 1011,3 hPa 0,0 l/m 13,9 km/h (3 Bft) W-SW 246 0 min 0,000 mm 0,0 UV-I 0 W/m 9,9 C 6,4 C 20,9 km/h (4 Bft) 97,22 %
08.05.2017 01:52 10,7 C 15,6 C 95 % 1011,3 hPa 0,0 l/m 13,4 km/h (3 Bft) W-SW 248 0 min 0,000 mm 0,0 UV-I 0 W/m 9,9 C 6,7 C 22,5 km/h (4 Bft) 100,00 %
08.05.2017 01:54 10,7 C 15,6 C 95 % 1011,3 hPa 0,0 l/m 12,7 km/h (3 Bft) S-SW 198 0 min 0,000 mm 0,0 UV-I 0 W/m 9,9 C 7,0 C 20,9 km/h (4 Bft) 96,00 %
08.05.2017 01:56 10,7 C 15,6 C 95 % 1011,2 hPa 0,2 l/m 13,3 km/h (3 Bft) S-SW 206 0 min 0,000 mm 0,0 UV-I 0 W/m 9,9 C 6,7 C 17,7 km/h (3 Bft) 93,62 %
08.05.2017 01:58 10,7 C 15,6 C 95 % 1011,2 hPa 0,0 l/m 16,0 km/h (3 Bft) SW 218 0 min 0,000 mm 0,0 UV-I 0 W/m 9,9 C 5,6 C 24,1 km/h (4 Bft) 95,74 %
08.05.2017 02:00 10,7 C 15,6 C 95 % 1011,3 hPa 0,0 l/m 12,4 km/h (3 Bft) W-SW 243 0 min 0,000 mm 0,0 UV-I 0 W/m 9,9 C 7,1 C 20,9 km/h (4 Bft) 95,74 %
08.05.2017 02:02 10,7 C 15,6 C 95 % 1011,2 hPa 0,0 l/m 15,1 km/h (3 Bft) W-SW 247 0 min 0,000 mm 0,0 UV-I 0 W/m 9,9 C 5,9 C 24,1 km/h (4 Bft) 97,87 %
08.05.2017 02:04 10,7 C 15,6 C 95 % 1011,2 hPa 0,0 l/m 16,7 km/h (3 Bft) W-SW 240 0 min 0,000 mm 0,0 UV-I 0 W/m 9,9 C 5,3 C 27,4 km/h (4 Bft) 97,87 %
08.05.2017 02:06 10,7 C 15,6 C 95 % 1011,2 hPa 0,0 l/m 15,2 km/h (3 Bft) S-SW 211 0 min 0,000 mm 0,0 UV-I 0 W/m 9,9 C 5,9 C 22,5 km/h (4 Bft) 97,92 %
08.05.2017 02:08 10,7 C 15,6 C 95 % 1011,2 hPa 0,0 l/m 15,0 km/h (3 Bft) W-SW 249 0 min 0,000 mm 0,0 UV-I 0 W/m 9,9 C 6,0 C 24,1 km/h (4 Bft) 97,87 %
08.05.2017 02:10 10,6 C 15,6 C 95 % 1011,2 hPa 0,0 l/m 16,9 km/h (3 Bft) S 185 0 min 0,000 mm 0,0 UV-I 0 W/m 9,8 C 5,1 C 25,7 km/h (4 Bft) 100,00 %
08.05.2017 02:12 10,6 C 15,6 C 95 % 1011,1 hPa 0,0 l/m 13,3 km/h (3 Bft) W-SW 242 0 min 0,000 mm 0,0 UV-I 0 W/m 9,8 C 6,6 C 17,7 km/h (3 Bft) 100,00 %
08.05.2017 02:14 10,7 C 15,6 C 95 % 1011,1 hPa 0,0 l/m 14,5 km/h (3 Bft) SW 229 0 min 0,000 mm 0,0 UV-I 0 W/m 9,9 C 6,2 C 24,1 km/h (4 Bft) 97,87 %
08.05.2017 02:16 10,6 C 15,6 C 95 % 1011,1 hPa 0,0 l/m 12,7 km/h (3 Bft) W-SW 238 0 min 0,000 mm 0,0 UV-I 0 W/m 9,8 C 6,9 C 20,9 km/h (4 Bft) 97,14 %
08.05.2017 02:18 10,7 C 15,6 C 95 % 1011,1 hPa 0,0 l/m 15,2 km/h (3 Bft) W-SW 237 0 min 0,000 mm 0,0 UV-I 0 W/m 9,9 C 5,9 C 25,7 km/h (4 Bft) 94,00 %
08.05.2017 02:20 10,6 C 15,6 C 95 % 1011,1 hPa 0,0 l/m 14,3 km/h (3 Bft) SW 235 0 min 0,000 mm 0,0 UV-I 0 W/m 9,8 C 6,2 C 19,3 km/h (3 Bft) 96,00 %
08.05.2017 02:22 10,6 C 15,6 C 95 % 1011,0 hPa 0,0 l/m 15,3 km/h (3 Bft) SW 227 0 min 0,000 mm 0,0 UV-I 0 W/m 9,8 C 5,7 C 22,5 km/h (4 Bft) 90,57 %
08.05.2017 02:24 10,6 C 15,6 C 95 % 1011,0 hPa 0,0 l/m 14,7 km/h (3 Bft) SW 236 0 min 0,000 mm 0,0 UV-I 0 W/m 9,8 C 6,0 C 22,5 km/h (4 Bft) 95,74 %
08.05.2017 02:26 10,6 C 15,6 C 95 % 1011,0 hPa 0,0 l/m 15,3 km/h (3 Bft) SW 232 0 min 0,000 mm 0,0 UV-I 0 W/m 9,8 C 5,7 C 22,5 km/h (4 Bft) 95,83 %
08.05.2017 02:28 10,6 C 15,6 C 95 % 1011,0 hPa 0,0 l/m 12,7 km/h (3 Bft) S-SW 212 0 min 0,000 mm 0,0 UV-I 0 W/m 9,8 C 6,9 C 19,3 km/h (3 Bft) 91,67 %
08.05.2017 02:30 10,6 C 15,6 C 95 % 1011,0 hPa 0,2 l/m 13,8 km/h (3 Bft) SW 226 0 min 0,000 mm 0,0 UV-I 0 W/m 9,8 C 6,4 C 20,9 km/h (4 Bft) 97,87 %
08.05.2017 02:32 10,6 C 15,6 C 95 % 1011,0 hPa 0,0 l/m 14,6 km/h (3 Bft) SW 235 0 min 0,000 mm 0,0 UV-I 0 W/m 9,8 C 6,0 C 22,5 km/h (4 Bft) 93,62 %
08.05.2017 02:34 10,6 C 15,6 C 95 % 1011,0 hPa 0,2 l/m 12,8 km/h (3 Bft) SW 230 0 min 0,000 mm 0,0 UV-I 0 W/m 9,8 C 6,8 C 22,5 km/h (4 Bft) 92,00 %
08.05.2017 02:36 10,6 C 15,6 C 95 % 1011,0 hPa 0,2 l/m 10,9 km/h (2 Bft) W-SW 242 0 min 0,000 mm 0,0 UV-I 0 W/m 9,8 C 7,8 C 17,7 km/h (3 Bft) 96,00 %
08.05.2017 02:38 10,5 C 15,6 C 95 % 1011,0 hPa 0,2 l/m 12,0 km/h (2 Bft) SW 231 0 min 0,000 mm 0,0 UV-I 0 W/m 9,7 C 7,1 C 19,3 km/h (3 Bft) 95,74 %
08.05.2017 02:40 10,5 C 15,6 C 95 % 1011,0 hPa 0,0 l/m 16,2 km/h (3 Bft) SW 225 0 min 0,000 mm 0,0 UV-I 0 W/m 9,7 C 5,3 C 24,1 km/h (4 Bft) 98,00 %
08.05.2017 02:42 10,5 C 15,6 C 95 % 1011,0 hPa 0,2 l/m 14,3 km/h (3 Bft) SW 221 0 min 0,000 mm 0,0 UV-I 0 W/m 9,7 C 6,0 C 20,9 km/h (4 Bft) 91,49 %
08.05.2017 02:44 10,5 C 15,6 C 95 % 1011,0 hPa 0,2 l/m 14,8 km/h (3 Bft) SW 218 0 min 0,000 mm 0,0 UV-I 0 W/m 9,7 C 5,8 C 20,9 km/h (4 Bft) 93,62 %
08.05.2017 02:46 10,5 C 15,6 C 95 % 1011,0 hPa 0,2 l/m 12,9 km/h (3 Bft) SW 216 0 min 0,000 mm 0,0 UV-I 0 W/m 9,7 C 6,7 C 19,3 km/h (3 Bft) 97,22 %
08.05.2017 02:48 10,4 C 15,6 C 95 % 1011,0 hPa 0,2 l/m 15,1 km/h (3 Bft) S-SW 213 0 min 0,000 mm 0,0 UV-I 0 W/m 9,6 C 5,6 C 22,5 km/h (4 Bft) 96,00 %
08.05.2017 02:50 10,4 C 15,6 C 95 % 1011,0 hPa 0,0 l/m 15,5 km/h (3 Bft) W-SW 243 0 min 0,000 mm 0,0 UV-I 0 W/m 9,6 C 5,4 C 24,1 km/h (4 Bft) 93,62 %
08.05.2017 02:52 10,4 C 15,6 C 95 % 1011,0 hPa 0,2 l/m 15,4 km/h (3 Bft) W-SW 250 0 min 0,000 mm 0,0 UV-I 0 W/m 9,6 C 5,5 C 20,9 km/h (4 Bft) 96,00 %
08.05.2017 02:54 10,4 C 15,6 C 95 % 1011,0 hPa 0,2 l/m 14,4 km/h (3 Bft) S 180 0 min 0,000 mm 0,0 UV-I 0 W/m 9,6 C 5,9 C 22,5 km/h (4 Bft) 100,00 %
08.05.2017 02:56 10,4 C 15,6 C 95 % 1011,0 hPa 0,0 l/m 11,9 km/h (2 Bft) SW 227 0 min 0,000 mm 0,0 UV-I 0 W/m 9,6 C 7,0 C 16,1 km/h (3 Bft) 93,62 %
08.05.2017 02:58 10,4 C 15,6 C 95 % 1011,0 hPa 0,0 l/m 12,1 km/h (2 Bft) W-SW 246 0 min 0,000 mm 0,0 UV-I 0 W/m 9,6 C 6,9 C 19,3 km/h (3 Bft) 94,00 %
08.05.2017 03:00 10,4 C 15,6 C 95 % 1011,0 hPa 0,2 l/m 12,6 km/h (3 Bft) S-SW 196 0 min 0,000 mm 0,0 UV-I 0 W/m 9,6 C 6,7 C 19,3 km/h (3 Bft) 100,00 %
08.05.2017 03:02 10,4 C 15,6 C 95 % 1011,1 hPa 0,0 l/m 12,0 km/h (2 Bft) SW 219 0 min 0,000 mm 0,0 UV-I 0 W/m 9,6 C 7,0 C 17,7 km/h (3 Bft) 97,87 %
08.05.2017 03:04 10,4 C 15,6 C 95 % 1011,1 hPa 0,2 l/m 11,5 km/h (2 Bft) SW 236 0 min 0,000 mm 0,0 UV-I 0 W/m 9,6 C 7,2 C 16,1 km/h (3 Bft) 97,37 %
08.05.2017 03:06 10,4 C 15,6 C 95 % 1011,1 hPa 0,2 l/m 12,1 km/h (2 Bft) W-SW 253 0 min 0,000 mm 0,0 UV-I 0 W/m 9,6 C 6,9 C 16,1 km/h (3 Bft) 98,00 %
08.05.2017 03:08 10,4 C 15,6 C 95 % 1011,1 hPa 0,0 l/m 13,2 km/h (3 Bft) W-SW 237 0 min 0,000 mm 0,0 UV-I 0 W/m 9,6 C 6,4 C 20,9 km/h (4 Bft) 100,00 %
08.05.2017 03:10 10,4 C 15,6 C 95 % 1011,1 hPa 0,2 l/m 11,3 km/h (2 Bft) W-NW 283 0 min 0,000 mm 0,0 UV-I 0 W/m 9,6 C 7,3 C 16,1 km/h (3 Bft) 100,00 %
08.05.2017 03:12 10,4 C 15,6 C 95 % 1011,1 hPa 0,0 l/m 9,9 km/h (2 Bft) W-SW 244 0 min 0,000 mm 0,0 UV-I 0 W/m 9,6 C 8,1 C 17,7 km/h (3 Bft) 100,00 %
08.05.2017 03:14 10,4 C 15,6 C 95 % 1011,1 hPa 0,0 l/m 11,8 km/h (2 Bft) W-SW 242 0 min 0,000 mm 0,0 UV-I 0 W/m 9,6 C 7,1 C 19,3 km/h (3 Bft) 95,74 %
08.05.2017 03:16 10,4 C 15,6 C 95 % 1011,1 hPa 0,2 l/m 9,2 km/h (2 Bft) W-SW 248 0 min 0,000 mm 0,0 UV-I 0 W/m 9,6 C 8,5 C 14,5 km/h (3 Bft) 97,37 %
08.05.2017 03:18 10,4 C 15,6 C 95 % 1011,1 hPa 0,0 l/m 8,7 km/h (2 Bft) W-SW 247 0 min 0,000 mm 0,0 UV-I 0 W/m 9,6 C 8,8 C 12,9 km/h (3 Bft) 95,74 %
08.05.2017 03:20 10,4 C 15,6 C 95 % 1011,1 hPa 0,0 l/m 5,2 km/h (1 Bft) W-SW 246 0 min 0,000 mm 0,0 UV-I 0 W/m 9,6 C 10,4 C 9,7 km/h (2 Bft) 95,74 %
08.05.2017 03:22 10,4 C 15,6 C 95 % 1011,0 hPa 0,0 l/m 7,4 km/h (2 Bft) SW 226 0 min 0,000 mm 0,0 UV-I 0 W/m 9,6 C 9,7 C 12,9 km/h (3 Bft) 98,00 %
08.05.2017 03:24 10,4 C 15,6 C 95 % 1010,9 hPa 0,0 l/m 8,4 km/h (2 Bft) SW 215 0 min 0,000 mm 0,0 UV-I 0 W/m 9,6 C 9,0 C 14,5 km/h (3 Bft) 94,23 %
08.05.2017 03:26 10,4 C 15,6 C 95 % 1011,0 hPa 0,0 l/m 9,8 km/h (2 Bft) W-SW 252 0 min 0,000 mm 0,0 UV-I 0 W/m 9,6 C 8,2 C 16,1 km/h (3 Bft) 95,74 %
08.05.2017 03:28 10,4 C 15,6 C 95 % 1011,0 hPa 0,0 l/m 9,4 km/h (2 Bft) SW 234 0 min 0,000 mm 0,0 UV-I 0 W/m 9,6 C 8,4 C 14,5 km/h (3 Bft) 97,92 %
08.05.2017 03:30 10,3 C 15,6 C 96 % 1011,0 hPa 0,0 l/m 9,2 km/h (2 Bft) W-SW 246 0 min 0,000 mm 0,0 UV-I 0 W/m 9,7 C 8,4 C 16,1 km/h (3 Bft) 97,87 %
08.05.2017 03:32 10,3 C 15,6 C 96 % 1011,0 hPa 0,0 l/m 8,9 km/h (2 Bft) W-SW 246 0 min 0,000 mm 0,0 UV-I 0 W/m 9,7 C 8,6 C 14,5 km/h (3 Bft) 95,74 %
08.05.2017 03:34 10,3 C 15,6 C 96 % 1011,0 hPa 0,0 l/m 9,7 km/h (2 Bft) SW 220 0 min 0,000 mm 0,0 UV-I 0 W/m 9,7 C 8,1 C 16,1 km/h (3 Bft) 95,74 %
08.05.2017 03:36 10,3 C 15,6 C 96 % 1011,0 hPa 0,0 l/m 10,3 km/h (2 Bft) S-SW 212 0 min 0,000 mm 0,0 UV-I 0 W/m 9,7 C 7,8 C 14,5 km/h (3 Bft) 97,37 %
08.05.2017 03:38 10,3 C 15,6 C 96 % 1011,0 hPa 0,0 l/m 11,7 km/h (2 Bft) SW 231 0 min 0,000 mm 0,0 UV-I 0 W/m 9,7 C 7,0 C 19,3 km/h (3 Bft) 95,74 %
08.05.2017 03:40 10,4 C 15,6 C 96 % 1011,0 hPa 0,0 l/m 11,1 km/h (2 Bft) SW 221 0 min 0,000 mm 0,0 UV-I 0 W/m 9,8 C 7,4 C 17,7 km/h (3 Bft) 93,62 %
08.05.2017 03:42 10,4 C 15,6 C 96 % 1011,0 hPa 0,0 l/m 9,3 km/h (2 Bft) W-SW 241 0 min 0,000 mm 0,0 UV-I 0 W/m 9,8 C 8,4 C 17,7 km/h (3 Bft) 98,00 %
08.05.2017 03:44 10,4 C 15,6 C 96 % 1011,0 hPa 0,0 l/m 12,7 km/h (3 Bft) W-SW 255 0 min 0,000 mm 0,0 UV-I 0 W/m 9,8 C 6,6 C 17,7 km/h (3 Bft) 97,87 %
08.05.2017 03:46 10,4 C 15,6 C 96 % 1011,0 hPa 0,0 l/m 7,2 km/h (2 Bft) SW 215 0 min 0,000 mm 0,0 UV-I 0 W/m 9,8 C 9,8 C 14,5 km/h (3 Bft) 91,49 %
08.05.2017 03:48 10,4 C 15,6 C 96 % 1011,0 hPa 0,0 l/m 10,2 km/h (2 Bft) SW 217 0 min 0,000 mm 0,0 UV-I 0 W/m 9,8 C 7,9 C 14,5 km/h (3 Bft) 95,74 %
08.05.2017 03:50 10,4 C 15,6 C 96 % 1011,0 hPa 0,0 l/m 8,2 km/h (2 Bft) SW 219 0 min 0,000 mm 0,0 UV-I 0 W/m 9,8 C 9,1 C 12,9 km/h (3 Bft) 95,12 %
08.05.2017 03:52 10,4 C 15,6 C 96 % 1011,0 hPa 0,0 l/m 9,3 km/h (2 Bft) SW 223 0 min 0,000 mm 0,0 UV-I 0 W/m 9,8 C 8,4 C 16,1 km/h (3 Bft) 97,87 %
08.05.2017 03:54 10,4 C 15,6 C 96 % 1011,0 hPa 0,0 l/m 8,4 km/h (2 Bft) W-SW 252 0 min 0,000 mm 0,0 UV-I 0 W/m 9,8 C 9,0 C 14,5 km/h (3 Bft) 95,74 %
08.05.2017 03:56 10,4 C 15,6 C 95 % 1011,0 hPa 0,0 l/m 9,3 km/h (2 Bft) SW 225 0 min 0,000 mm 0,0 UV-I 0 W/m 9,6 C 8,4 C 16,1 km/h (3 Bft) 93,62 %
08.05.2017 03:58 10,4 C 15,6 C 95 % 1010,9 hPa 0,0 l/m 9,1 km/h (2 Bft) SW 219 0 min 0,000 mm 0,0 UV-I 0 W/m 9,6 C 8,6 C 12,9 km/h (3 Bft) 97,87 %
08.05.2017 04:00 10,4 C 15,6 C 95 % 1010,9 hPa 0,0 l/m 11,5 km/h (2 Bft) SW 227 0 min 0,000 mm 0,0 UV-I 0 W/m 9,6 C 7,2 C 19,3 km/h (3 Bft) 95,83 %
08.05.2017 04:02 10,4 C 15,6 C 95 % 1010,9 hPa 0,0 l/m 10,1 km/h (2 Bft) W-SW 238 0 min 0,000 mm 0,0 UV-I 0 W/m 9,6 C 8,0 C 16,1 km/h (3 Bft) 96,88 %
08.05.2017 04:04 10,4 C 15,6 C 95 % 1010,9 hPa 0,0 l/m 10,7 km/h (2 Bft) SW 223 0 min 0,000 mm 0,0 UV-I 0 W/m 9,6 C 7,6 C 16,1 km/h (3 Bft) 95,74 %
08.05.2017 04:06 10,4 C 15,6 C 95 % 1010,9 hPa 0,0 l/m 10,7 km/h (2 Bft) W-SW 250 0 min 0,000 mm 0,0 UV-I 0 W/m 9,6 C 7,6 C 16,1 km/h (3 Bft) 95,74 %
08.05.2017 04:08 10,4 C 15,6 C 95 % 1010,9 hPa 0,0 l/m 6,9 km/h (2 Bft) W 264 0 min 0,000 mm 0,0 UV-I 0 W/m 9,6 C 10,0 C 11,3 km/h (2 Bft) 95,74 %
08.05.2017 04:10 10,4 C 15,6 C 95 % 1010,8 hPa 0,0 l/m 9,1 km/h (2 Bft) W-SW 254 0 min 0,000 mm 0,0 UV-I 0 W/m 9,6 C 8,6 C 14,5 km/h (3 Bft) 93,62 %
08.05.2017 04:12 10,4 C 15,6 C 95 % 1010,8 hPa 0,0 l/m 12,8 km/h (3 Bft) SW 227 0 min 0,000 mm 0,0 UV-I 0 W/m 9,6 C 6,6 C 17,7 km/h (3 Bft) 97,87 %
08.05.2017 04:14 10,4 C 15,6 C 95 % 1010,9 hPa 0,0 l/m 12,3 km/h (3 Bft) SW 227 0 min 0,000 mm 0,0 UV-I 0 W/m 9,6 C 6,8 C 20,9 km/h (4 Bft) 98,00 %
08.05.2017 04:16 10,4 C 15,6 C 95 % 1010,8 hPa 0,0 l/m 13,3 km/h (3 Bft) S-SW 205 0 min 0,000 mm 0,0 UV-I 0 W/m 9,6 C 6,4 C 22,5 km/h (4 Bft) 95,74 %
08.05.2017 04:18 10,4 C 15,6 C 95 % 1010,8 hPa 0,0 l/m 9,5 km/h (2 Bft) W 267 0 min 0,000 mm 0,0 UV-I 0 W/m 9,6 C 8,3 C 17,7 km/h (3 Bft) 97,87 %
08.05.2017 04:20 10,4 C 15,6 C 95 % 1010,9 hPa 0,0 l/m 12,4 km/h (3 Bft) W-SW 238 0 min 0,000 mm 0,0 UV-I 0 W/m 9,6 C 6,8 C 20,9 km/h (4 Bft) 97,37 %
08.05.2017 04:22 10,4 C 15,6 C 95 % 1010,9 hPa 0,0 l/m 11,3 km/h (2 Bft) SW 226 0 min 0,000 mm 0,0 UV-I 0 W/m 9,6 C 7,3 C 16,1 km/h (3 Bft) 93,62 %
08.05.2017 04:24 10,4 C 15,6 C 95 % 1010,9 hPa 0,0 l/m 13,7 km/h (3 Bft) W-SW 246 0 min 0,000 mm 0,0 UV-I 0 W/m 9,6 C 6,2 C 22,5 km/h (4 Bft) 94,00 %
08.05.2017 04:26 10,4 C 15,6 C 95 % 1010,8 hPa 0,0 l/m 14,0 km/h (3 Bft) SW 216 0 min 0,000 mm 0,0 UV-I 0 W/m 9,6 C 6,0 C 20,9 km/h (4 Bft) 97,87 %
08.05.2017 04:28 10,4 C 15,6 C 95 % 1010,7 hPa 0,2 l/m 12,8 km/h (3 Bft) W-SW 255 0 min 0,000 mm 0,0 UV-I 0 W/m 9,6 C 6,6 C 20,9 km/h (4 Bft) 96,00 %
08.05.2017 04:30 10,4 C 15,6 C 95 % 1010,8 hPa 0,0 l/m 11,2 km/h (2 Bft) SW 218 0 min 0,000 mm 0,0 UV-I 0 W/m 9,6 C 7,4 C 16,1 km/h (3 Bft) 93,62 %
08.05.2017 04:32 10,4 C 15,6 C 95 % 1010,7 hPa 0,0 l/m 10,6 km/h (2 Bft) SW 234 0 min 0,000 mm 0,0 UV-I 0 W/m 9,6 C 7,7 C 17,7 km/h (3 Bft) 93,62 %
08.05.2017 04:34 10,4 C 15,6 C 95 % 1010,7 hPa 0,0 l/m 13,2 km/h (3 Bft) W-SW 245 0 min 0,000 mm 0,0 UV-I 0 W/m 9,6 C 6,4 C 17,7 km/h (3 Bft) 92,68 %
08.05.2017 04:36 10,4 C 15,0 C 95 % 1010,8 hPa 0,0 l/m 16,2 km/h (3 Bft) SW 229 0 min 0,000 mm 0,0 UV-I 0 W/m 9,6 C 5,1 C 22,5 km/h (4 Bft) 95,74 %
08.05.2017 04:38 10,4 C 15,0 C 95 % 1010,7 hPa 0,0 l/m 10,7 km/h (2 Bft) W-SW 252 0 min 0,000 mm 0,0 UV-I 0 W/m 9,6 C 7,6 C 17,7 km/h (3 Bft) 93,62 %
08.05.2017 04:40 10,3 C 15,6 C 95 % 1010,7 hPa 0,0 l/m 14,5 km/h (3 Bft) SW 234 0 min 0,000 mm 0,0 UV-I 0 W/m 9,5 C 5,7 C 22,5 km/h (4 Bft) 97,87 %
08.05.2017 04:42 10,3 C 15,0 C 95 % 1010,7 hPa 0,0 l/m 15,3 km/h (3 Bft) SW 214 0 min 0,000 mm 0,0 UV-I 0 W/m 9,5 C 5,4 C 24,1 km/h (4 Bft) 97,96 %
08.05.2017 04:44 10,4 C 15,6 C 95 % 1010,6 hPa 0,0 l/m 13,9 km/h (3 Bft) SW 228 0 min 0,000 mm 0,0 UV-I 0 W/m 9,6 C 6,1 C 20,9 km/h (4 Bft) 95,74 %
08.05.2017 04:46 10,3 C 15,6 C 95 % 1010,6 hPa 0,0 l/m 15,9 km/h (3 Bft) W-SW 237 0 min 0,000 mm 0,0 UV-I 0 W/m 9,5 C 5,1 C 20,9 km/h (4 Bft) 95,74 %
08.05.2017 04:48 10,3 C 15,0 C 95 % 1010,6 hPa 0,0 l/m 11,8 km/h (2 Bft) SW 223 0 min 0,000 mm 0,0 UV-I 0 W/m 9,5 C 7,0 C 16,1 km/h (3 Bft) 95,74 %
08.05.2017 04:50 10,3 C 15,0 C 95 % 1010,6 hPa 0,0 l/m 9,3 km/h (2 Bft) SW 231 0 min 0,000 mm 0,0 UV-I 0 W/m 9,5 C 8,3 C 17,7 km/h (3 Bft) 93,62 %
08.05.2017 04:52 10,3 C 15,0 C 95 % 1010,5 hPa 0,0 l/m 11,9 km/h (2 Bft) W-SW 239 0 min 0,000 mm 0,0 UV-I 0 W/m 9,5 C 6,9 C 19,3 km/h (3 Bft) 91,49 %
08.05.2017 04:54 10,3 C 15,0 C 95 % 1010,5 hPa 0,0 l/m 14,2 km/h (3 Bft) W-SW 249 0 min 0,000 mm 0,0 UV-I 0 W/m 9,5 C 5,8 C 22,5 km/h (4 Bft) 100,00 %
08.05.2017 04:56 10,3 C 15,0 C 95 % 1010,6 hPa 0,0 l/m 12,9 km/h (3 Bft) W-SW 244 0 min 0,000 mm 0,0 UV-I 0 W/m 9,5 C 6,4 C 17,7 km/h (3 Bft) 97,87 %
08.05.2017 04:58 10,3 C 15,0 C 95 % 1010,6 hPa 0,0 l/m 10,9 km/h (2 Bft) W-SW 242 0 min 0,000 mm 0,0 UV-I 0 W/m 9,5 C 7,4 C 17,7 km/h (3 Bft) 97,87 %
08.05.2017 05:00 10,3 C 15,0 C 95 % 1010,6 hPa 0,0 l/m 11,2 km/h (2 Bft) W 263 0 min 0,000 mm 0,0 UV-I 0 W/m 9,5 C 7,3 C 16,1 km/h (3 Bft) 100,00 %
08.05.2017 05:02 10,3 C 15,0 C 95 % 1010,6 hPa 0,0 l/m 12,6 km/h (3 Bft) W-SW 238 0 min 0,000 mm 0,0 UV-I 0 W/m 9,5 C 6,6 C 22,5 km/h (4 Bft) 96,00 %
08.05.2017 05:04 10,3 C 15,0 C 95 % 1010,5 hPa 0,0 l/m 11,4 km/h (2 Bft) SW 232 0 min 0,000 mm 0,0 UV-I 0 W/m 9,5 C 7,2 C 16,1 km/h (3 Bft) 94,29 %
08.05.2017 05:06 10,3 C 15,0 C 95 % 1010,6 hPa 0,0 l/m 12,7 km/h (3 Bft) W-SW 247 0 min 0,000 mm 0,0 UV-I 0 W/m 9,5 C 6,5 C 19,3 km/h (3 Bft) 96,00 %
08.05.2017 05:08 10,3 C 15,0 C 95 % 1010,6 hPa 0,0 l/m 11,0 km/h (2 Bft) SW 236 0 min 0,000 mm 0,0 UV-I 0 W/m 9,5 C 7,4 C 16,1 km/h (3 Bft) 97,87 %
08.05.2017 05:10 10,3 C 15,0 C 95 % 1010,6 hPa 0,0 l/m 10,8 km/h (2 Bft) SW 231 0 min 0,000 mm 0,0 UV-I 0 W/m 9,5 C 7,5 C 19,3 km/h (3 Bft) 97,87 %
08.05.2017 05:12 10,3 C 15,0 C 95 % 1010,6 hPa 0,0 l/m 8,7 km/h (2 Bft) W-SW 254 0 min 0,000 mm 0,0 UV-I 0 W/m 9,5 C 8,7 C 12,9 km/h (3 Bft) 100,00 %
08.05.2017 05:14 10,3 C 15,0 C 95 % 1010,6 hPa 0,0 l/m 10,2 km/h (2 Bft) W-SW 242 0 min 0,000 mm 0,0 UV-I 0 W/m 9,5 C 7,8 C 14,5 km/h (3 Bft) 100,00 %
08.05.2017 05:16 10,3 C 15,0 C 95 % 1010,6 hPa 0,0 l/m 13,3 km/h (3 Bft) W-SW 251 0 min 0,000 mm 0,0 UV-I 0 W/m 9,5 C 6,2 C 19,3 km/h (3 Bft) 98,00 %
08.05.2017 05:18 10,3 C 15,0 C 95 % 1010,6 hPa 0,0 l/m 10,9 km/h (2 Bft) SW 232 0 min 0,000 mm 0,0 UV-I 0 W/m 9,5 C 7,4 C 19,3 km/h (3 Bft) 100,00 %
08.05.2017 05:20 10,3 C 15,0 C 95 % 1010,6 hPa 0,0 l/m 11,3 km/h (2 Bft) W-SW 238 0 min 0,000 mm 0,0 UV-I 0 W/m 9,5 C 7,2 C 19,3 km/h (3 Bft) 100,00 %
08.05.2017 05:22 10,3 C 15,0 C 95 % 1010,6 hPa 0,0 l/m 10,6 km/h (2 Bft) W-SW 250 0 min 0,000 mm 0,0 UV-I 0 W/m 9,5 C 7,6 C 17,7 km/h (3 Bft) 97,92 %
08.05.2017 05:24 10,3 C 15,0 C 95 % 1010,6 hPa 0,0 l/m 12,4 km/h (3 Bft) SW 226 0 min 0,000 mm 0,0 UV-I 4 W/m 9,5 C 6,7 C 17,7 km/h (3 Bft) 95,92 %
08.05.2017 05:26 10,3 C 15,0 C 95 % 1010,6 hPa 0,0 l/m 10,9 km/h (2 Bft) S-SW 205 0 min 0,000 mm 0,0 UV-I 5 W/m 9,5 C 7,4 C 14,5 km/h (3 Bft) 95,74 %
08.05.2017 05:28 10,2 C 15,0 C 95 % 1010,6 hPa 0,0 l/m 13,1 km/h (3 Bft) W-SW 240 0 min 0,000 mm 0,0 UV-I 7 W/m 9,4 C 6,2 C 20,9 km/h (4 Bft) 100,00 %
08.05.2017 05:30 10,2 C 15,0 C 95 % 1010,6 hPa 0,0 l/m 11,1 km/h (2 Bft) W-SW 255 0 min 0,000 mm 0,0 UV-I 7 W/m 9,4 C 7,2 C 17,7 km/h (3 Bft) 96,00 %
08.05.2017 05:32 10,2 C 15,0 C 95 % 1010,6 hPa 0,0 l/m 11,3 km/h (2 Bft) SW 218 0 min 0,000 mm 0,0 UV-I 7 W/m 9,4 C 7,1 C 16,1 km/h (3 Bft) 100,00 %
08.05.2017 05:34 10,2 C 15,0 C 95 % 1010,6 hPa 0,0 l/m 12,7 km/h (3 Bft) SW 231 0 min 0,000 mm 0,0 UV-I 7 W/m 9,4 C 6,4 C 17,7 km/h (3 Bft) 95,74 %
08.05.2017 05:36 10,2 C 15,0 C 95 % 1010,6 hPa 0,0 l/m 10,3 km/h (2 Bft) W-SW 251 0 min 0,000 mm 0,0 UV-I 7 W/m 9,4 C 7,6 C 14,5 km/h (3 Bft) 100,00 %
08.05.2017 05:38 10,2 C 15,0 C 95 % 1010,6 hPa 0,0 l/m 12,3 km/h (3 Bft) W-SW 243 0 min 0,000 mm 0,0 UV-I 7 W/m 9,4 C 6,6 C 16,1 km/h (3 Bft) 98,00 %
08.05.2017 05:40 10,2 C 15,0 C 95 % 1010,6 hPa 0,0 l/m 13,5 km/h (3 Bft) W-SW 253 0 min 0,000 mm 0,0 UV-I 7 W/m 9,4 C 6,0 C 19,3 km/h (3 Bft) 95,74 %
08.05.2017 05:42 10,2 C 15,0 C 95 % 1010,6 hPa 0,0 l/m 15,4 km/h (3 Bft) W-SW 246 0 min 0,000 mm 0,0 UV-I 7 W/m 9,4 C 5,2 C 22,5 km/h (4 Bft) 95,74 %
08.05.2017 05:44 10,2 C 15,0 C 95 % 1010,6 hPa 0,0 l/m 14,2 km/h (3 Bft) SW 235 0 min 0,000 mm 0,0 UV-I 7 W/m 9,4 C 5,7 C 22,5 km/h (4 Bft) 97,87 %
08.05.2017 05:46 10,2 C 15,0 C 95 % 1010,6 hPa 0,0 l/m 12,6 km/h (3 Bft) S-SW 192 0 min 0,000 mm 0,0 UV-I 7 W/m 9,4 C 6,5 C 22,5 km/h (4 Bft) 100,00 %
08.05.2017 05:48 10,2 C 15,0 C 95 % 1010,6 hPa 0,0 l/m 12,8 km/h (3 Bft) SW 216 0 min 0,000 mm 0,0 UV-I 7 W/m 9,4 C 6,4 C 19,3 km/h (3 Bft) 97,87 %
08.05.2017 05:50 10,2 C 15,0 C 95 % 1010,6 hPa 0,0 l/m 13,0 km/h (3 Bft) SW 224 0 min 0,000 mm 0,0 UV-I 7 W/m 9,4 C 6,3 C 17,7 km/h (3 Bft) 100,00 %
08.05.2017 05:52 10,2 C 15,0 C 95 % 1010,6 hPa 0,0 l/m 13,1 km/h (3 Bft) SW 225 0 min 0,000 mm 0,0 UV-I 7 W/m 9,4 C 6,2 C 22,5 km/h (4 Bft) 95,74 %
08.05.2017 05:54 10,2 C 15,0 C 95 % 1010,6 hPa 0,0 l/m 10,8 km/h (2 Bft) SW 229 0 min 0,000 mm 0,0 UV-I 7 W/m 9,4 C 7,4 C 17,7 km/h (3 Bft) 94,00 %
08.05.2017 05:56 10,2 C 15,0 C 95 % 1010,7 hPa 0,0 l/m 9,8 km/h (2 Bft) W-SW 255 0 min 0,000 mm 0,0 UV-I 7 W/m 9,4 C 7,9 C 16,1 km/h (3 Bft) 97,87 %
08.05.2017 05:58 10,2 C 15,0 C 95 % 1010,6 hPa 0,0 l/m 9,5 km/h (2 Bft) SW 231 0 min 0,000 mm 0,0 UV-I 9 W/m 9,4 C 8,1 C 17,7 km/h (3 Bft) 95,74 %
08.05.2017 06:00 10,2 C 15,0 C 95 % 1010,7 hPa 0,0 l/m 13,2 km/h (3 Bft) W 260 0 min 0,000 mm 0,0 UV-I 9 W/m 9,4 C 6,2 C 17,7 km/h (3 Bft) 97,87 %
08.05.2017 06:02 10,2 C 15,0 C 95 % 1010,7 hPa 0,0 l/m 10,9 km/h (2 Bft) SW 235 0 min 0,000 mm 0,0 UV-I 9 W/m 9,4 C 7,3 C 16,1 km/h (3 Bft) 97,87 %
08.05.2017 06:04 10,2 C 15,0 C 95 % 1010,7 hPa 0,0 l/m 12,7 km/h (3 Bft) SW 225 0 min 0,000 mm 0,0 UV-I 10 W/m 9,4 C 6,4 C 19,3 km/h (3 Bft) 95,83 %
08.05.2017 06:06 10,2 C 15,0 C 96 % 1010,7 hPa 0,0 l/m 10,8 km/h (2 Bft) SW 229 0 min 0,000 mm 0,0 UV-I 11 W/m 9,6 C 7,4 C 17,7 km/h (3 Bft) 100,00 %
08.05.2017 06:08 10,2 C 15,0 C 96 % 1010,7 hPa 0,0 l/m 9,6 km/h (2 Bft) W-SW 251 0 min 0,000 mm 0,0 UV-I 11 W/m 9,6 C 8,0 C 14,5 km/h (3 Bft) 97,87 %
08.05.2017 06:10 10,2 C 15,0 C 96 % 1010,7 hPa 0,0 l/m 9,7 km/h (2 Bft) W-SW 253 0 min 0,000 mm 0,0 UV-I 11 W/m 9,6 C 8,0 C 16,1 km/h (3 Bft) 98,00 %
08.05.2017 06:12 10,2 C 15,0 C 96 % 1010,7 hPa 0,0 l/m 13,1 km/h (3 Bft) SW 233 0 min 0,000 mm 0,0 UV-I 11 W/m 9,6 C 6,2 C 20,9 km/h (4 Bft) 97,87 %
08.05.2017 06:14 10,2 C 15,0 C 96 % 1010,7 hPa 0,0 l/m 9,8 km/h (2 Bft) W-SW 249 0 min 0,000 mm 0,0 UV-I 11 W/m 9,6 C 7,9 C 14,5 km/h (3 Bft) 97,37 %
08.05.2017 06:16 10,2 C 15,0 C 96 % 1010,7 hPa 0,0 l/m 7,1 km/h (2 Bft) W-SW 241 0 min 0,000 mm 0,0 UV-I 12 W/m 9,6 C 9,7 C 9,7 km/h (2 Bft) 97,87 %
08.05.2017 06:18 10,2 C 15,0 C 96 % 1010,8 hPa 0,0 l/m 10,0 km/h (2 Bft) SW 228 0 min 0,000 mm 0,0 UV-I 12 W/m 9,6 C 7,8 C 16,1 km/h (3 Bft) 100,00 %
08.05.2017 06:20 10,2 C 15,0 C 96 % 1010,8 hPa 0,0 l/m 10,0 km/h (2 Bft) W-SW 237 0 min 0,000 mm 0,0 UV-I 11 W/m 9,6 C 7,8 C 16,1 km/h (3 Bft) 95,74 %
08.05.2017 06:22 10,2 C 15,0 C 96 % 1010,8 hPa 0,0 l/m 8,4 km/h (2 Bft) W-SW 250 0 min 0,000 mm 0,0 UV-I 12 W/m 9,6 C 8,8 C 12,9 km/h (3 Bft) 97,87 %
08.05.2017 06:24 10,2 C 15,0 C 96 % 1010,8 hPa 0,0 l/m 8,0 km/h (2 Bft) W-SW 240 0 min 0,000 mm 0,0 UV-I 14 W/m 9,6 C 9,1 C 14,5 km/h (3 Bft) 95,74 %
08.05.2017 06:26 10,2 C 15,0 C 96 % 1010,9 hPa 0,0 l/m 9,8 km/h (2 Bft) W-SW 252 0 min 0,000 mm 0,0 UV-I 15 W/m 9,6 C 7,9 C 17,7 km/h (3 Bft) 93,62 %
08.05.2017 06:28 10,2 C 15,0 C 96 % 1010,9 hPa 0,0 l/m 9,5 km/h (2 Bft) W-SW 255 0 min 0,000 mm 0,0 UV-I 16 W/m 9,6 C 8,1 C 14,5 km/h (3 Bft) 95,74 %
08.05.2017 06:30 10,2 C 15,0 C 96 % 1010,9 hPa 0,0 l/m 11,8 km/h (2 Bft) SW 228 0 min 0,000 mm 0,0 UV-I 14 W/m 9,6 C 6,8 C 22,5 km/h (4 Bft) 93,62 %
08.05.2017 06:32 10,2 C 15,0 C 96 % 1010,9 hPa 0,0 l/m 11,8 km/h (2 Bft) SW 228 0 min 0,000 mm 0,0 UV-I 12 W/m 9,6 C 6,8 C 19,3 km/h (3 Bft) 93,62 %
08.05.2017 06:34 10,2 C 15,0 C 96 % 1011,0 hPa 0,0 l/m 11,0 km/h (2 Bft) SW 230 0 min 0,000 mm 0,0 UV-I 13 W/m 9,6 C 7,3 C 14,5 km/h (3 Bft) 95,74 %
08.05.2017 06:36 10,2 C 15,0 C 96 % 1011,0 hPa 0,0 l/m 10,1 km/h (2 Bft) W-SW 250 0 min 0,000 mm 0,0 UV-I 16 W/m 9,6 C 7,8 C 17,7 km/h (3 Bft) 91,49 %
08.05.2017 06:38 10,2 C 15,0 C 96 % 1011,0 hPa 0,0 l/m 10,6 km/h (2 Bft) SW 220 0 min 0,000 mm 0,0 UV-I 19 W/m 9,6 C 7,5 C 17,7 km/h (3 Bft) 97,87 %
08.05.2017 06:40 10,3 C 15,0 C 96 % 1011,0 hPa 0,0 l/m 8,3 km/h (2 Bft) SW 234 0 min 0,000 mm 0,0 UV-I 21 W/m 9,7 C 9,0 C 14,5 km/h (3 Bft) 97,50 %
08.05.2017 06:42 10,3 C 15,0 C 96 % 1011,0 hPa 0,0 l/m 8,9 km/h (2 Bft) S-SW 210 0 min 0,000 mm 0,0 UV-I 21 W/m 9,7 C 8,6 C 14,5 km/h (3 Bft) 97,87 %
08.05.2017 06:44 10,3 C 15,0 C 96 % 1011,1 hPa 0,0 l/m 8,5 km/h (2 Bft) SW 222 0 min 0,000 mm 0,0 UV-I 24 W/m 9,7 C 8,8 C 12,9 km/h (3 Bft) 91,49 %
08.05.2017 06:46 10,3 C 15,0 C 95 % 1011,0 hPa 0,0 l/m 8,8 km/h (2 Bft) SW 227 0 min 0,000 mm 0,0 UV-I 26 W/m 9,5 C 8,6 C 16,1 km/h (3 Bft) 95,74 %
08.05.2017 06:48 10,3 C 15,0 C 95 % 1011,1 hPa 0,0 l/m 7,7 km/h (2 Bft) W-SW 250 0 min 0,000 mm 0,0 UV-I 30 W/m 9,5 C 9,4 C 12,9 km/h (3 Bft) 95,74 %
08.05.2017 06:50 10,3 C 15,0 C 95 % 1011,1 hPa 0,0 l/m 11,8 km/h (2 Bft) W-SW 240 0 min 0,000 mm 0,0 UV-I 38 W/m 9,5 C 7,0 C 17,7 km/h (3 Bft) 92,00 %
08.05.2017 06:52 10,3 C 15,0 C 95 % 1011,0 hPa 0,0 l/m 9,9 km/h (2 Bft) W-SW 242 0 min 0,000 mm 0,0 UV-I 36 W/m 9,5 C 8,0 C 14,5 km/h (3 Bft) 93,62 %
08.05.2017 06:54 10,3 C 15,0 C 96 % 1011,1 hPa 0,0 l/m 8,2 km/h (2 Bft) S-SW 212 0 min 0,000 mm 0,0 UV-I 33 W/m 9,7 C 9,0 C 16,1 km/h (3 Bft) 95,74 %
08.05.2017 06:56 10,3 C 15,0 C 95 % 1011,0 hPa 0,0 l/m 10,4 km/h (2 Bft) SW 227 0 min 0,000 mm 0,0 UV-I 35 W/m 9,5 C 7,7 C 16,1 km/h (3 Bft) 95,74 %
08.05.2017 06:58 10,3 C 15,0 C 95 % 1011,1 hPa 0,0 l/m 8,3 km/h (2 Bft) SW 219 0 min 0,000 mm 0,0 UV-I 35 W/m 9,5 C 9,0 C 12,9 km/h (3 Bft) 96,23 %
08.05.2017 07:00 10,3 C 15,0 C 95 % 1011,1 hPa 0,0 l/m 10,0 km/h (2 Bft) W-SW 239 0 min 0,025 mm 0,0 UV-I 35 W/m 9,5 C 7,9 C 17,7 km/h (3 Bft) 95,74 %
08.05.2017 07:02 10,3 C 15,0 C 95 % 1011,1 hPa 0,0 l/m 9,4 km/h (2 Bft) W-SW 254 0 min 0,000 mm 0,0 UV-I 37 W/m 9,5 C 8,3 C 14,5 km/h (3 Bft) 100,00 %
08.05.2017 07:04 10,3 C 15,0 C 95 % 1011,1 hPa 0,0 l/m 7,6 km/h (2 Bft) SW 230 0 min 0,000 mm 0,0 UV-I 37 W/m 9,5 C 9,4 C 11,3 km/h (2 Bft) 97,14 %
08.05.2017 07:06 10,3 C 15,0 C 95 % 1011,1 hPa 0,0 l/m 10,7 km/h (2 Bft) W-SW 242 0 min 0,000 mm 0,0 UV-I 33 W/m 9,5 C 7,5 C 14,5 km/h (3 Bft) 100,00 %
08.05.2017 07:08 10,3 C 15,0 C 95 % 1011,1 hPa 0,0 l/m 11,2 km/h (2 Bft) SW 232 0 min 0,000 mm 0,0 UV-I 30 W/m 9,5 C 7,3 C 16,1 km/h (3 Bft) 97,87 %
08.05.2017 07:10 10,3 C 15,0 C 95 % 1011,1 hPa 0,0 l/m 7,9 km/h (2 Bft) SW 227 0 min 0,000 mm 0,0 UV-I 32 W/m 9,5 C 9,2 C 14,5 km/h (3 Bft) 95,74 %
08.05.2017 07:12 10,3 C 15,0 C 95 % 1011,1 hPa 0,0 l/m 10,8 km/h (2 Bft) SW 226 0 min 0,000 mm 0,0 UV-I 38 W/m 9,5 C 7,5 C 16,1 km/h (3 Bft) 95,74 %
08.05.2017 07:14 10,3 C 15,0 C 95 % 1011,1 hPa 0,0 l/m 11,9 km/h (2 Bft) S-SW 205 0 min 0,000 mm 0,0 UV-I 41 W/m 9,5 C 6,9 C 17,7 km/h (3 Bft) 96,00 %
08.05.2017 07:16 10,4 C 15,0 C 95 % 1011,1 hPa 0,0 l/m 12,7 km/h (3 Bft) SW 230 0 min 0,000 mm 0,0 UV-I 50 W/m 9,6 C 6,6 C 19,3 km/h (3 Bft) 94,00 %
08.05.2017 07:18 10,3 C 15,0 C 95 % 1011,1 hPa 0,0 l/m 12,7 km/h (3 Bft) SW 215 0 min 0,000 mm 0,0 UV-I 59 W/m 9,5 C 6,5 C 19,3 km/h (3 Bft) 96,00 %
08.05.2017 07:20 10,4 C 15,0 C 95 % 1011,2 hPa 0,0 l/m 10,6 km/h (2 Bft) SW 217 0 min 0,000 mm 0,0 UV-I 62 W/m 9,6 C 7,7 C 17,7 km/h (3 Bft) 95,74 %
08.05.2017 07:22 10,4 C 15,0 C 95 % 1011,1 hPa 0,0 l/m 7,6 km/h (2 Bft) S-SW 211 0 min 0,000 mm 0,0 UV-I 59 W/m 9,6 C 9,5 C 11,3 km/h (2 Bft) 93,62 %
08.05.2017 07:24 10,4 C 15,0 C 95 % 1011,2 hPa 0,0 l/m 10,5 km/h (2 Bft) W-SW 239 0 min 0,000 mm 0,0 UV-I 58 W/m 9,6 C 7,8 C 14,5 km/h (3 Bft) 97,92 %
08.05.2017 07:26 10,4 C 15,0 C 95 % 1011,2 hPa 0,0 l/m 8,9 km/h (2 Bft) S-SW 213 0 min 0,000 mm 0,0 UV-I 51 W/m 9,6 C 8,7 C 16,1 km/h (3 Bft) 97,87 %
08.05.2017 07:28 10,5 C 15,0 C 95 % 1011,2 hPa 0,0 l/m 11,1 km/h (2 Bft) SW 232 0 min 0,000 mm 0,0 UV-I 47 W/m 9,7 C 7,5 C 16,1 km/h (3 Bft) 97,30 %
08.05.2017 07:30 10,4 C 15,0 C 95 % 1011,2 hPa 0,0 l/m 14,6 km/h (3 Bft) W-SW 240 0 min 0,000 mm 0,0 UV-I 40 W/m 9,6 C 5,8 C 20,9 km/h (4 Bft) 96,23 %
08.05.2017 07:32 10,4 C 15,0 C 95 % 1011,2 hPa 0,0 l/m 9,1 km/h (2 Bft) SW 230 0 min 0,000 mm 0,0 UV-I 38 W/m 9,6 C 8,6 C 16,1 km/h (3 Bft) 95,74 %
08.05.2017 07:34 10,4 C 15,0 C 95 % 1011,2 hPa 0,0 l/m 11,7 km/h (2 Bft) W 279 0 min 0,000 mm 0,0 UV-I 42 W/m 9,6 C 7,1 C 17,7 km/h (3 Bft) 91,49 %
08.05.2017 07:36 10,5 C 15,0 C 95 % 1011,3 hPa 0,0 l/m 12,8 km/h (3 Bft) SW 235 0 min 0,000 mm 0,0 UV-I 43 W/m 9,7 C 6,7 C 19,3 km/h (3 Bft) 97,87 %
08.05.2017 07:38 10,5 C 15,0 C 95 % 1011,2 hPa 0,0 l/m 9,7 km/h (2 Bft) SW 222 0 min 0,000 mm 0,0 UV-I 46 W/m 9,7 C 8,3 C 16,1 km/h (3 Bft) 97,96 %
08.05.2017 07:40 10,5 C 15,0 C 95 % 1011,2 hPa 0,0 l/m 11,2 km/h (2 Bft) S 187 0 min 0,000 mm 0,0 UV-I 48 W/m 9,7 C 7,5 C 19,3 km/h (3 Bft) 91,49 %
08.05.2017 07:42 10,5 C 15,0 C 95 % 1011,2 hPa 0,0 l/m 11,0 km/h (2 Bft) W-SW 244 0 min 0,000 mm 0,0 UV-I 46 W/m 9,7 C 7,6 C 17,7 km/h (3 Bft) 100,00 %
08.05.2017 07:44 10,5 C 15,0 C 95 % 1011,2 hPa 0,0 l/m 12,1 km/h (2 Bft) W 260 0 min 0,000 mm 0,0 UV-I 49 W/m 9,7 C 7,0 C 19,3 km/h (3 Bft) 96,00 %
08.05.2017 07:46 10,5 C 15,0 C 95 % 1011,3 hPa 0,0 l/m 13,1 km/h (3 Bft) S-SW 209 0 min 0,000 mm 0,0 UV-I 51 W/m 9,7 C 6,6 C 19,3 km/h (3 Bft) 91,49 %
08.05.2017 07:48 10,5 C 15,0 C 95 % 1011,2 hPa 0,0 l/m 9,7 km/h (2 Bft) W-SW 257 0 min 0,000 mm 0,0 UV-I 48 W/m 9,7 C 8,3 C 17,7 km/h (3 Bft) 97,87 %
08.05.2017 07:50 10,5 C 15,0 C 95 % 1011,3 hPa 0,0 l/m 10,5 km/h (2 Bft) W-SW 252 0 min 0,000 mm 0,0 UV-I 39 W/m 9,7 C 7,9 C 17,7 km/h (3 Bft) 91,49 %
08.05.2017 07:52 10,5 C 15,0 C 95 % 1011,3 hPa 0,0 l/m 10,2 km/h (2 Bft) W-SW 252 0 min 0,000 mm 0,0 UV-I 31 W/m 9,7 C 8,0 C 16,1 km/h (3 Bft) 93,62 %
08.05.2017 07:54 10,5 C 15,0 C 95 % 1011,3 hPa 0,0 l/m 10,1 km/h (2 Bft) W-SW 252 0 min 0,000 mm 0,0 UV-I 34 W/m 9,7 C 8,1 C 14,5 km/h (3 Bft) 97,87 %
08.05.2017 07:56 10,5 C 15,0 C 95 % 1011,3 hPa 0,0 l/m 11,6 km/h (2 Bft) W-SW 253 0 min 0,000 mm 0,0 UV-I 34 W/m 9,7 C 7,3 C 20,9 km/h (4 Bft) 96,00 %
08.05.2017 07:58 10,5 C 15,0 C 95 % 1011,3 hPa 0,0 l/m 13,8 km/h (3 Bft) SW 234 0 min 0,000 mm 0,0 UV-I 30 W/m 9,7 C 6,3 C 20,9 km/h (4 Bft) 93,62 %
08.05.2017 08:00 10,5 C 15,0 C 95 % 1011,3 hPa 0,0 l/m 12,7 km/h (3 Bft) SW 231 0 min 0,026 mm 0,0 UV-I 25 W/m 9,7 C 6,8 C 17,7 km/h (3 Bft) 94,87 %
08.05.2017 08:02 10,5 C 15,0 C 95 % 1011,3 hPa 0,0 l/m 11,7 km/h (2 Bft) W-SW 242 0 min 0,000 mm 0,0 UV-I 26 W/m 9,7 C 7,2 C 16,1 km/h (3 Bft) 95,74 %
08.05.2017 08:04 10,4 C 15,0 C 95 % 1011,3 hPa 0,0 l/m 11,7 km/h (2 Bft) W-SW 237 0 min 0,000 mm 0,0 UV-I 31 W/m 9,6 C 7,1 C 17,7 km/h (3 Bft) 93,62 %
08.05.2017 08:06 10,5 C 15,0 C 95 % 1011,4 hPa 0,0 l/m 9,3 km/h (2 Bft) SW 225 0 min 0,000 mm 0,0 UV-I 38 W/m 9,7 C 8,6 C 17,7 km/h (3 Bft) 93,62 %
08.05.2017 08:08 10,5 C 15,0 C 95 % 1011,3 hPa 0,0 l/m 11,4 km/h (2 Bft) S-SW 206 0 min 0,000 mm 0,0 UV-I 40 W/m 9,7 C 7,4 C 17,7 km/h (3 Bft) 97,87 %
08.05.2017 08:10 10,5 C 15,0 C 95 % 1011,3 hPa 0,0 l/m 12,9 km/h (3 Bft) SW 225 0 min 0,000 mm 0,0 UV-I 41 W/m 9,7 C 6,7 C 19,3 km/h (3 Bft) 97,87 %
08.05.2017 08:12 10,5 C 15,0 C 95 % 1011,4 hPa 0,0 l/m 10,6 km/h (2 Bft) SW 230 0 min 0,000 mm 0,0 UV-I 47 W/m 9,7 C 7,8 C 14,5 km/h (3 Bft) 96,00 %
08.05.2017 08:14 10,5 C 15,0 C 94 % 1011,3 hPa 0,0 l/m 11,2 km/h (2 Bft) SW 230 0 min 0,000 mm 0,0 UV-I 49 W/m 9,6 C 7,5 C 19,3 km/h (3 Bft) 97,87 %
08.05.2017 08:16 10,5 C 15,0 C 94 % 1011,3 hPa 0,0 l/m 13,0 km/h (3 Bft) W 264 0 min 0,000 mm 0,0 UV-I 48 W/m 9,6 C 6,6 C 19,3 km/h (3 Bft) 95,74 %
08.05.2017 08:18 10,5 C 15,0 C 94 % 1011,4 hPa 0,0 l/m 10,3 km/h (2 Bft) SW 223 0 min 0,000 mm 0,0 UV-I 48 W/m 9,6 C 8,0 C 17,7 km/h (3 Bft) 95,74 %
08.05.2017 08:20 10,5 C 15,0 C 94 % 1011,3 hPa 0,0 l/m 11,5 km/h (2 Bft) SW 234 0 min 0,000 mm 0,0 UV-I 49 W/m 9,6 C 7,3 C 16,1 km/h (3 Bft) 100,00 %
08.05.2017 08:22 10,6 C 15,0 C 94 % 1011,4 hPa 0,0 l/m 10,3 km/h (2 Bft) W-SW 252 0 min 0,000 mm 0,0 UV-I 52 W/m 9,7 C 8,1 C 17,7 km/h (3 Bft) 93,62 %
08.05.2017 08:24 10,6 C 15,0 C 94 % 1011,4 hPa 0,0 l/m 9,6 km/h (2 Bft) SW 227 0 min 0,000 mm 0,0 UV-I 54 W/m 9,7 C 8,5 C 14,5 km/h (3 Bft) 97,87 %
08.05.2017 08:26 10,6 C 15,0 C 94 % 1011,4 hPa 0,0 l/m 11,0 km/h (2 Bft) SW 236 0 min 0,000 mm 0,0 UV-I 58 W/m 9,7 C 7,7 C 17,7 km/h (3 Bft) 95,74 %
08.05.2017 08:28 10,6 C 15,0 C 94 % 1011,3 hPa 0,0 l/m 10,3 km/h (2 Bft) W-SW 251 0 min 0,000 mm 0,0 UV-I 55 W/m 9,7 C 8,1 C 14,5 km/h (3 Bft) 97,37 %
08.05.2017 08:30 10,6 C 15,0 C 94 % 1011,4 hPa 0,0 l/m 6,7 km/h (2 Bft) W-SW 238 0 min 0,000 mm 0,0 UV-I 56 W/m 9,7 C 10,4 C 11,3 km/h (2 Bft) 95,74 %
08.05.2017 08:32 10,6 C 15,0 C 95 % 1011,3 hPa 0,0 l/m 6,6 km/h (2 Bft) W-SW 241 0 min 0,000 mm 0,0 UV-I 62 W/m 9,8 C 10,5 C 12,9 km/h (3 Bft) 97,87 %
08.05.2017 08:34 10,6 C 15,0 C 95 % 1011,4 hPa 0,0 l/m 10,3 km/h (2 Bft) SW 229 0 min 0,000 mm 0,0 UV-I 63 W/m 9,8 C 8,1 C 17,7 km/h (3 Bft) 93,62 %
08.05.2017 08:36 10,6 C 15,0 C 94 % 1011,4 hPa 0,0 l/m 10,3 km/h (2 Bft) W-SW 242 0 min 0,000 mm 0,0 UV-I 63 W/m 9,7 C 8,1 C 17,7 km/h (3 Bft) 97,92 %
08.05.2017 08:38 10,6 C 15,0 C 94 % 1011,3 hPa 0,0 l/m 8,5 km/h (2 Bft) W-SW 252 0 min 0,000 mm 0,0 UV-I 61 W/m 9,7 C 9,2 C 11,3 km/h (2 Bft) 93,62 %
08.05.2017 08:40 10,7 C 15,0 C 95 % 1011,4 hPa 0,0 l/m 12,4 km/h (3 Bft) W 271 0 min 0,000 mm 0,0 UV-I 59 W/m 9,9 C 7,1 C 19,3 km/h (3 Bft) 92,00 %
08.05.2017 08:42 10,6 C 15,0 C 94 % 1011,4 hPa 0,0 l/m 11,3 km/h (2 Bft) W-SW 244 0 min 0,000 mm 0,0 UV-I 72 W/m 9,7 C 7,6 C 16,1 km/h (3 Bft) 93,62 %
08.05.2017 08:44 10,7 C 15,0 C 95 % 1011,4 hPa 0,0 l/m 14,0 km/h (3 Bft) W-SW 242 0 min 0,000 mm 0,0 UV-I 83 W/m 9,9 C 6,4 C 20,9 km/h (4 Bft) 94,00 %
08.05.2017 08:46 10,7 C 15,0 C 94 % 1011,4 hPa 0,0 l/m 14,4 km/h (3 Bft) SW 229 0 min 0,000 mm 0,0 UV-I 78 W/m 9,8 C 6,2 C 22,5 km/h (4 Bft) 95,74 %
08.05.2017 08:48 10,7 C 15,0 C 94 % 1011,4 hPa 0,0 l/m 15,0 km/h (3 Bft) S-SW 207 0 min 0,000 mm 0,0 UV-I 71 W/m 9,8 C 6,0 C 24,1 km/h (4 Bft) 97,87 %
08.05.2017 08:50 10,7 C 15,0 C 94 % 1011,4 hPa 0,0 l/m 16,9 km/h (3 Bft) W-SW 254 0 min 0,000 mm 0,0 UV-I 74 W/m 9,8 C 5,2 C 24,1 km/h (4 Bft) 95,74 %
08.05.2017 08:52 10,7 C 15,0 C 94 % 1011,4 hPa 0,0 l/m 11,4 km/h (2 Bft) SW 214 0 min 0,000 mm 0,0 UV-I 84 W/m 9,8 C 7,6 C 17,7 km/h (3 Bft) 92,11 %
08.05.2017 08:54 10,7 C 15,0 C 94 % 1011,5 hPa 0,0 l/m 11,7 km/h (2 Bft) W-SW 248 0 min 0,000 mm 0,0 UV-I 88 W/m 9,8 C 7,5 C 19,3 km/h (3 Bft) 94,00 %
08.05.2017 08:56 10,7 C 15,0 C 95 % 1011,5 hPa 0,0 l/m 14,1 km/h (3 Bft) W-SW 242 0 min 0,000 mm 0,0 UV-I 84 W/m 9,9 C 6,4 C 20,9 km/h (4 Bft) 96,00 %
08.05.2017 08:58 10,7 C 15,0 C 94 % 1011,5 hPa 0,0 l/m 11,5 km/h (2 Bft) W-SW 248 0 min 0,000 mm 0,0 UV-I 93 W/m 9,8 C 7,6 C 19,3 km/h (3 Bft) 97,87 %
08.05.2017 09:00 10,8 C 15,0 C 95 % 1011,4 hPa 0,0 l/m 9,9 km/h (2 Bft) W-SW 247 0 min 0,025 mm 0,3 UV-I 123 W/m 10,0 C 8,5 C 14,5 km/h (3 Bft) 97,87 %
08.05.2017 09:02 10,8 C 15,0 C 95 % 1011,4 hPa 0,0 l/m 10,4 km/h (2 Bft) SW 232 0 min 0,000 mm 0,5 UV-I 126 W/m 10,0 C 8,3 C 19,3 km/h (3 Bft) 100,00 %
08.05.2017 09:04 10,8 C 15,0 C 95 % 1011,4 hPa 0,0 l/m 12,9 km/h (3 Bft) SW 216 0 min 0,000 mm 0,1 UV-I 118 W/m 10,0 C 7,0 C 22,5 km/h (4 Bft) 97,87 %
08.05.2017 09:06 10,8 C 15,0 C 95 % 1011,4 hPa 0,0 l/m 12,5 km/h (3 Bft) SW 227 0 min 0,000 mm 0,5 UV-I 129 W/m 10,0 C 7,2 C 16,1 km/h (3 Bft) 97,87 %
08.05.2017 09:08 10,8 C 15,0 C 95 % 1011,4 hPa 0,0 l/m 11,0 km/h (2 Bft) SW 215 0 min 0,000 mm 0,6 UV-I 136 W/m 10,0 C 7,9 C 14,5 km/h (3 Bft) 100,00 %
08.05.2017 09:10 10,8 C 15,0 C 95 % 1011,4 hPa 0,0 l/m 12,1 km/h (2 Bft) W-SW 242 0 min 0,000 mm 0,5 UV-I 134 W/m 10,0 C 7,4 C 17,7 km/h (3 Bft) 98,00 %
08.05.2017 09:12 10,8 C 15,0 C 95 % 1011,5 hPa 0,0 l/m 9,7 km/h (2 Bft) W-SW 240 0 min 0,000 mm 0,4 UV-I 122 W/m 10,0 C 8,6 C 19,3 km/h (3 Bft) 100,00 %
08.05.2017 09:14 10,9 C 15,0 C 95 % 1011,4 hPa 0,0 l/m 9,5 km/h (2 Bft) S-SW 207 0 min 0,000 mm 0,4 UV-I 121 W/m 10,1 C 8,9 C 14,5 km/h (3 Bft) 100,00 %
08.05.2017 09:16 10,9 C 15,0 C 95 % 1011,4 hPa 0,0 l/m 13,1 km/h (3 Bft) SW 234 0 min 0,000 mm 0,5 UV-I 139 W/m 10,1 C 7,0 C 19,3 km/h (3 Bft) 97,87 %
08.05.2017 09:18 10,9 C 15,0 C 95 % 1011,4 hPa 0,0 l/m 10,6 km/h (2 Bft) W-SW 238 0 min 0,000 mm 0,6 UV-I 158 W/m 10,1 C 8,3 C 16,1 km/h (3 Bft) 95,83 %
08.05.2017 09:20 10,9 C 15,0 C 95 % 1011,4 hPa 0,0 l/m 13,0 km/h (3 Bft) S-SW 209 0 min 0,000 mm 0,7 UV-I 177 W/m 10,1 C 7,1 C 19,3 km/h (3 Bft) 100,00 %
08.05.2017 09:22 10,9 C 15,0 C 95 % 1011,4 hPa 0,0 l/m 9,4 km/h (2 Bft) W-SW 247 0 min 0,000 mm 0,8 UV-I 185 W/m 10,1 C 8,9 C 12,9 km/h (3 Bft) 97,87 %
08.05.2017 09:24 11,0 C 15,0 C 95 % 1011,4 hPa 0,0 l/m 13,0 km/h (3 Bft) W-SW 242 0 min 0,000 mm 0,9 UV-I 200 W/m 10,2 C 7,2 C 19,3 km/h (3 Bft) 100,00 %
08.05.2017 09:26 11,1 C 15,0 C 95 % 1011,4 hPa 0,0 l/m 10,6 km/h (2 Bft) S 182 0 min 0,000 mm 1,0 UV-I 227 W/m 10,3 C 8,5 C 19,3 km/h (3 Bft) 97,87 %
08.05.2017 09:28 11,1 C 15,0 C 95 % 1011,5 hPa 0,0 l/m 12,3 km/h (3 Bft) S-SW 201 0 min 0,000 mm 0,9 UV-I 226 W/m 10,3 C 7,6 C 17,7 km/h (3 Bft) 100,00 %
08.05.2017 09:30 11,2 C 15,0 C 94 % 1011,5 hPa 0,0 l/m 14,4 km/h (3 Bft) SW 226 0 min 0,000 mm 1,2 UV-I 266 W/m 10,3 C 6,8 C 22,5 km/h (4 Bft) 95,74 %
08.05.2017 09:32 11,3 C 15,0 C 94 % 1011,4 hPa 0,0 l/m 11,0 km/h (2 Bft) S-SW 207 0 min 0,000 mm 1,1 UV-I 261 W/m 10,4 C 8,5 C 19,3 km/h (3 Bft) 97,56 %
08.05.2017 09:34 11,3 C 15,0 C 94 % 1011,5 hPa 0,0 l/m 9,1 km/h (2 Bft) SW 232 0 min 0,000 mm 1,1 UV-I 272 W/m 10,4 C 9,5 C 14,5 km/h (3 Bft) 97,87 %
08.05.2017 09:36 11,4 C 15,0 C 94 % 1011,5 hPa 0,0 l/m 11,3 km/h (2 Bft) SW 225 0 min 0,000 mm 1,0 UV-I 266 W/m 10,5 C 8,5 C 16,1 km/h (3 Bft) 98,00 %
08.05.2017 09:38 11,4 C 15,0 C 94 % 1011,5 hPa 0,0 l/m 11,8 km/h (2 Bft) SW 215 0 min 0,000 mm 1,1 UV-I 260 W/m 10,5 C 8,2 C 17,7 km/h (3 Bft) 100,00 %
08.05.2017 09:40 11,5 C 15,0 C 94 % 1011,5 hPa 0,0 l/m 10,7 km/h (2 Bft) W-SW 238 0 min 0,000 mm 1,1 UV-I 266 W/m 10,6 C 8,9 C 16,1 km/h (3 Bft) 97,37 %
08.05.2017 09:42 11,5 C 15,0 C 94 % 1011,6 hPa 0,0 l/m 10,3 km/h (2 Bft) W-SW 241 0 min 0,000 mm 1,0 UV-I 237 W/m 10,6 C 9,1 C 17,7 km/h (3 Bft) 100,00 %
08.05.2017 09:44 11,6 C 15,0 C 94 % 1011,6 hPa 0,0 l/m 10,2 km/h (2 Bft) W-SW 252 0 min 0,000 mm 1,0 UV-I 233 W/m 10,7 C 9,3 C 20,9 km/h (4 Bft) 95,74 %
08.05.2017 09:46 11,6 C 15,0 C 94 % 1011,6 hPa 0,0 l/m 12,0 km/h (2 Bft) W-SW 252 0 min 0,000 mm 1,0 UV-I 226 W/m 10,7 C 8,4 C 17,7 km/h (3 Bft) 98,00 %
08.05.2017 09:48 11,6 C 15,0 C 93 % 1011,7 hPa 0,0 l/m 8,0 km/h (2 Bft) SW 225 0 min 0,000 mm 1,0 UV-I 211 W/m 10,5 C 10,5 C 14,5 km/h (3 Bft) 97,87 %
08.05.2017 09:50 11,7 C 15,0 C 93 % 1011,7 hPa 0,0 l/m 11,9 km/h (2 Bft) W-SW 246 0 min 0,000 mm 1,0 UV-I 218 W/m 10,6 C 8,5 C 16,1 km/h (3 Bft) 97,87 %
08.05.2017 09:52 11,7 C 15,0 C 93 % 1011,6 hPa 0,0 l/m 10,4 km/h (2 Bft) SW 234 0 min 0,000 mm 1,0 UV-I 222 W/m 10,6 C 9,3 C 17,7 km/h (3 Bft) 100,00 %
08.05.2017 09:54 11,8 C 15,0 C 94 % 1011,7 hPa 0,0 l/m 7,5 km/h (2 Bft) W-SW 241 0 min 0,000 mm 1,1 UV-I 226 W/m 10,9 C 11,1 C 14,5 km/h (3 Bft) 100,00 %
08.05.2017 09:56 11,8 C 15,0 C 93 % 1011,6 hPa 0,0 l/m 8,6 km/h (2 Bft) W-SW 238 0 min 0,000 mm 1,1 UV-I 222 W/m 10,7 C 10,4 C 14,5 km/h (3 Bft) 100,00 %
08.05.2017 09:58 11,8 C 15,0 C 93 % 1011,7 hPa 0,0 l/m 10,0 km/h (2 Bft) S-SW 211 0 min 0,000 mm 1,1 UV-I 216 W/m 10,7 C 9,6 C 16,1 km/h (3 Bft) 97,87 %
08.05.2017 10:00 11,8 C 15,0 C 93 % 1011,7 hPa 0,0 l/m 8,1 km/h (2 Bft) W-SW 254 0 min 0,000 mm 1,0 UV-I 197 W/m 10,7 C 10,7 C 16,1 km/h (3 Bft) 100,00 %
08.05.2017 10:02 11,9 C 15,0 C 93 % 1011,7 hPa 0,0 l/m 10,8 km/h (2 Bft) SW 221 0 min 0,102 mm 1,0 UV-I 191 W/m 10,8 C 9,3 C 16,1 km/h (3 Bft) 96,00 %
08.05.2017 10:04 11,8 C 15,0 C 93 % 1011,7 hPa 0,0 l/m 10,5 km/h (2 Bft) SW 223 0 min 0,000 mm 1,1 UV-I 205 W/m 10,7 C 9,3 C 14,5 km/h (3 Bft) 100,00 %
08.05.2017 10:06 11,9 C 15,0 C 93 % 1011,8 hPa 0,0 l/m 7,5 km/h (2 Bft) SW 219 0 min 0,000 mm 1,1 UV-I 221 W/m 10,8 C 11,2 C 12,9 km/h (3 Bft) 95,83 %
08.05.2017 10:08 11,9 C 15,0 C 93 % 1011,8 hPa 0,0 l/m 7,1 km/h (2 Bft) S-SW 211 0 min 0,000 mm 1,0 UV-I 207 W/m 10,8 C 11,4 C 16,1 km/h (3 Bft) 97,87 %
08.05.2017 10:10 12,0 C 15,0 C 93 % 1011,8 hPa 0,0 l/m 10,8 km/h (2 Bft) W-SW 248 0 min 0,000 mm 1,0 UV-I 202 W/m 10,9 C 9,4 C 16,1 km/h (3 Bft) 100,00 %
08.05.2017 10:12 11,9 C 15,0 C 93 % 1011,7 hPa 0,0 l/m 8,8 km/h (2 Bft) W-SW 238 0 min 0,000 mm 0,9 UV-I 185 W/m 10,8 C 10,4 C 12,9 km/h (3 Bft) 97,87 %
08.05.2017 10:14 12,0 C 15,0 C 93 % 1011,8 hPa 0,0 l/m 10,2 km/h (2 Bft) SW 233 0 min 0,000 mm 1,0 UV-I 181 W/m 10,9 C 9,7 C 16,1 km/h (3 Bft) 100,00 %
08.05.2017 10:16 12,0 C 15,0 C 92 % 1011,8 hPa 0,0 l/m 10,0 km/h (2 Bft) SW 231 0 min 0,000 mm 1,1 UV-I 210 W/m 10,7 C 9,8 C 16,1 km/h (3 Bft) 97,87 %
08.05.2017 10:18 12,0 C 15,0 C 92 % 1011,8 hPa 0,0 l/m 13,0 km/h (3 Bft) SW 229 0 min 0,000 mm 1,1 UV-I 232 W/m 10,7 C 8,4 C 19,3 km/h (3 Bft) 95,74 %
08.05.2017 10:20 12,0 C 15,0 C 93 % 1011,8 hPa 0,0 l/m 12,1 km/h (2 Bft) SW 227 0 min 0,000 mm 1,4 UV-I 320 W/m 10,9 C 8,8 C 19,3 km/h (3 Bft) 95,74 %
08.05.2017 10:22 12,1 C 15,0 C 92 % 1011,8 hPa 0,0 l/m 9,6 km/h (2 Bft) SW 221 0 min 0,000 mm 1,3 UV-I 311 W/m 10,8 C 10,1 C 17,7 km/h (3 Bft) 95,83 %
08.05.2017 10:24 12,2 C 15,0 C 92 % 1011,8 hPa 0,0 l/m 9,7 km/h (2 Bft) S-SW 201 0 min 0,000 mm 1,3 UV-I 297 W/m 10,9 C 10,2 C 14,5 km/h (3 Bft) 92,50 %
08.05.2017 10:26 12,1 C 15,0 C 92 % 1011,8 hPa 0,0 l/m 11,9 km/h (2 Bft) W-SW 240 0 min 0,000 mm 1,1 UV-I 228 W/m 10,8 C 9,0 C 17,7 km/h (3 Bft) 94,00 %
08.05.2017 10:28 12,1 C 15,0 C 92 % 1011,8 hPa 0,0 l/m 14,2 km/h (3 Bft) W-SW 239 0 min 0,000 mm 1,0 UV-I 194 W/m 10,8 C 8,0 C 20,9 km/h (4 Bft) 98,00 %
08.05.2017 10:30 12,1 C 15,0 C 92 % 1011,8 hPa 0,0 l/m 10,6 km/h (2 Bft) SW 234 0 min 0,000 mm 1,0 UV-I 183 W/m 10,8 C 9,6 C 17,7 km/h (3 Bft) 93,62 %
08.05.2017 10:32 12,2 C 15,0 C 92 % 1011,8 hPa 0,0 l/m 6,9 km/h (2 Bft) W-SW 242 0 min 0,000 mm 0,9 UV-I 178 W/m 10,9 C 11,9 C 11,3 km/h (2 Bft) 95,92 %
08.05.2017 10:34 12,2 C 15,0 C 93 % 1011,8 hPa 0,0 l/m 9,1 km/h (2 Bft) W-SW 240 0 min 0,000 mm 1,0 UV-I 187 W/m 11,1 C 10,5 C 22,5 km/h (4 Bft) 97,37 %
08.05.2017 10:36 12,2 C 15,0 C 91 % 1011,8 hPa 0,0 l/m 11,4 km/h (2 Bft) SW 219 0 min 0,000 mm 1,1 UV-I 215 W/m 10,8 C 9,3 C 17,7 km/h (3 Bft) 95,74 %
08.05.2017 10:38 12,2 C 15,0 C 92 % 1011,7 hPa 0,0 l/m 8,3 km/h (2 Bft) SW 227 0 min 0,000 mm 1,2 UV-I 224 W/m 10,9 C 11,0 C 14,5 km/h (3 Bft) 95,74 %
08.05.2017 10:40 12,2 C 15,0 C 92 % 1011,7 hPa 0,0 l/m 8,0 km/h (2 Bft) S-SW 204 0 min 0,000 mm 1,3 UV-I 235 W/m 10,9 C 11,2 C 17,7 km/h (3 Bft) 98,00 %
08.05.2017 10:42 12,2 C 15,0 C 91 % 1011,7 hPa 0,0 l/m 14,5 km/h (3 Bft) SW 223 0 min 0,000 mm 1,5 UV-I 274 W/m 10,8 C 8,0 C 24,1 km/h (4 Bft) 97,92 %
08.05.2017 10:44 12,2 C 15,0 C 91 % 1011,7 hPa 0,0 l/m 12,9 km/h (3 Bft) SW 225 0 min 0,000 mm 1,7 UV-I 343 W/m 10,8 C 8,6 C 22,5 km/h (4 Bft) 95,92 %
08.05.2017 10:46 12,3 C 15,0 C 91 % 1011,7 hPa 0,0 l/m 16,2 km/h (3 Bft) SW 236 0 min 0,000 mm 1,8 UV-I 372 W/m 10,9 C 7,5 C 24,1 km/h (4 Bft) 95,74 %
08.05.2017 10:48 12,3 C 15,0 C 91 % 1011,7 hPa 0,0 l/m 13,0 km/h (3 Bft) W-SW 245 0 min 0,000 mm 1,6 UV-I 340 W/m 10,9 C 8,7 C 19,3 km/h (3 Bft) 95,74 %
08.05.2017 10:50 12,4 C 15,0 C 91 % 1011,7 hPa 0,0 l/m 14,4 km/h (3 Bft) SW 228 0 min 0,000 mm 1,5 UV-I 307 W/m 11,0 C 8,3 C 19,3 km/h (3 Bft) 95,74 %
08.05.2017 10:52 12,3 C 15,0 C 90 % 1011,6 hPa 0,0 l/m 13,7 km/h (3 Bft) S-SW 196 0 min 0,000 mm 1,5 UV-I 289 W/m 10,7 C 8,4 C 24,1 km/h (4 Bft) 95,74 %
08.05.2017 10:54 12,4 C 15,0 C 91 % 1011,7 hPa 0,0 l/m 10,5 km/h (2 Bft) W 262 0 min 0,000 mm 1,9 UV-I 384 W/m 11,0 C 10,0 C 16,1 km/h (3 Bft) 94,00 %
08.05.2017 10:56 12,5 C 15,0 C 91 % 1011,7 hPa 0,0 l/m 10,4 km/h (2 Bft) W-SW 252 2 min 0,000 mm 2,1 UV-I 426 W/m 11,1 C 10,2 C 16,1 km/h (3 Bft) 97,22 %
08.05.2017 10:58 12,6 C 15,0 C 91 % 1011,6 hPa 0,0 l/m 12,4 km/h (3 Bft) SW 229 0 min 0,000 mm 1,9 UV-I 370 W/m 11,2 C 9,3 C 19,3 km/h (3 Bft) 98,00 %
08.05.2017 11:00 12,6 C 15,0 C 90 % 1011,7 hPa 0,0 l/m 16,4 km/h (3 Bft) S-SW 212 0 min 0,127 mm 2,0 UV-I 402 W/m 11,0 C 7,8 C 25,7 km/h (4 Bft) 98,00 %
08.05.2017 11:02 12,6 C 15,0 C 89 % 1011,7 hPa 0,0 l/m 14,5 km/h (3 Bft) W 267 0 min 0,000 mm 1,9 UV-I 402 W/m 10,8 C 8,5 C 25,7 km/h (4 Bft) 97,87 %
08.05.2017 11:04 12,4 C 15,0 C 89 % 1011,7 hPa 0,0 l/m 18,3 km/h (3 Bft) SW 225 0 min 0,000 mm 1,7 UV-I 375 W/m 10,6 C 6,9 C 24,1 km/h (4 Bft) 100,00 %
08.05.2017 11:06 12,5 C 15,0 C 89 % 1011,7 hPa 0,0 l/m 15,0 km/h (3 Bft) SW 236 0 min 0,000 mm 2,0 UV-I 405 W/m 10,7 C 8,2 C 19,3 km/h (3 Bft) 97,87 %
08.05.2017 11:08 12,6 C 15,0 C 90 % 1011,7 hPa 0,0 l/m 14,0 km/h (3 Bft) SW 233 2 min 0,000 mm 2,6 UV-I 503 W/m 11,0 C 8,7 C 20,9 km/h (4 Bft) 100,00 %
08.05.2017 11:10 12,7 C 15,0 C 89 % 1011,7 hPa 0,0 l/m 19,3 km/h (3 Bft) W 271 2 min 0,000 mm 2,2 UV-I 527 W/m 10,9 C 7,0 C 29,0 km/h (5 Bft) 97,83 %
08.05.2017 11:12 12,7 C 15,0 C 89 % 1011,7 hPa 0,0 l/m 17,8 km/h (3 Bft) W 259 2 min 0,000 mm 2,6 UV-I 497 W/m 10,9 C 7,4 C 25,7 km/h (4 Bft) 93,62 %
08.05.2017 11:14 12,8 C 15,6 C 89 % 1011,7 hPa 0,0 l/m 17,2 km/h (3 Bft) W-NW 290 2 min 0,000 mm 4,0 UV-I 527 W/m 11,0 C 7,8 C 27,4 km/h (4 Bft) 100,00 %
08.05.2017 11:16 13,0 C 15,6 C 89 % 1011,8 hPa 0,0 l/m 17,5 km/h (3 Bft) SW 215 2 min 0,000 mm 3,7 UV-I 591 W/m 11,2 C 7,9 C 27,4 km/h (4 Bft) 89,36 %
08.05.2017 11:18 13,2 C 15,6 C 88 % 1011,7 hPa 0,0 l/m 19,3 km/h (3 Bft) SW 221 2 min 0,000 mm 3,8 UV-I 707 W/m 11,3 C 7,6 C 27,4 km/h (4 Bft) 97,87 %
08.05.2017 11:20 13,3 C 15,6 C 88 % 1011,7 hPa 0,0 l/m 18,6 km/h (3 Bft) W-SW 255 2 min 0,000 mm 3,6 UV-I 881 W/m 11,4 C 8,0 C 27,4 km/h (4 Bft) 91,49 %
08.05.2017 11:22 13,3 C 15,6 C 87 % 1011,7 hPa 0,0 l/m 18,5 km/h (3 Bft) W-SW 243 2 min 0,000 mm 3,0 UV-I 706 W/m 11,2 C 8,0 C 32,2 km/h (5 Bft) 93,62 %
08.05.2017 11:24 13,3 C 15,6 C 86 % 1011,7 hPa 0,0 l/m 17,2 km/h (3 Bft) SW 236 2 min 0,000 mm 3,1 UV-I 625 W/m 11,0 C 8,4 C 29,0 km/h (5 Bft) 98,00 %
08.05.2017 11:26 13,4 C 15,6 C 87 % 1011,7 hPa 0,0 l/m 14,0 km/h (3 Bft) SW 236 2 min 0,000 mm 2,9 UV-I 532 W/m 11,3 C 9,6 C 22,5 km/h (4 Bft) 95,74 %
08.05.2017 11:28 13,5 C 15,6 C 87 % 1011,8 hPa 0,0 l/m 15,8 km/h (3 Bft) W 271 2 min 0,000 mm 3,2 UV-I 569 W/m 11,4 C 9,1 C 24,1 km/h (4 Bft) 93,62 %
08.05.2017 11:30 13,6 C 15,6 C 86 % 1011,7 hPa 0,0 l/m 17,9 km/h (3 Bft) W-SW 254 2 min 0,000 mm 3,2 UV-I 619 W/m 11,3 C 8,5 C 30,6 km/h (5 Bft) 95,74 %
08.05.2017 11:32 13,5 C 15,6 C 86 % 1011,9 hPa 0,0 l/m 16,2 km/h (3 Bft) W-SW 252 2 min 0,000 mm 3,1 UV-I 619 W/m 11,2 C 9,0 C 24,1 km/h (4 Bft) 95,74 %
08.05.2017 11:34 13,4 C 15,6 C 85 % 1011,8 hPa 0,0 l/m 19,3 km/h (3 Bft) W-SW 244 2 min 0,000 mm 3,4 UV-I 529 W/m 10,9 C 7,9 C 29,0 km/h (5 Bft) 97,87 %
08.05.2017 11:36 13,3 C 15,6 C 86 % 1011,9 hPa 0,0 l/m 19,9 km/h (4 Bft) SW 220 2 min 0,000 mm 3,1 UV-I 492 W/m 11,0 C 7,6 C 30,6 km/h (5 Bft) 95,74 %
08.05.2017 11:38 13,3 C 15,6 C 86 % 1011,8 hPa 0,0 l/m 13,5 km/h (3 Bft) W-SW 252 2 min 0,000 mm 2,8 UV-I 482 W/m 11,0 C 9,7 C 19,3 km/h (3 Bft) 100,00 %
08.05.2017 11:40 13,3 C 15,6 C 86 % 1011,9 hPa 0,0 l/m 19,0 km/h (3 Bft) SW 233 2 min 0,000 mm 2,8 UV-I 535 W/m 11,0 C 7,8 C 27,4 km/h (4 Bft) 91,49 %
08.05.2017 11:42 13,3 C 15,6 C 86 % 1011,9 hPa 0,0 l/m 16,3 km/h (3 Bft) W-SW 250 2 min 0,000 mm 2,9 UV-I 524 W/m 11,0 C 8,7 C 24,1 km/h (4 Bft) 95,74 %
08.05.2017 11:44 13,3 C 15,6 C 86 % 1011,7 hPa 0,0 l/m 12,5 km/h (3 Bft) SW 220 2 min 0,000 mm 2,8 UV-I 514 W/m 11,0 C 10,1 C 24,1 km/h (4 Bft) 95,74 %
08.05.2017 11:46 13,4 C 15,6 C 86 % 1011,8 hPa 0,0 l/m 17,5 km/h (3 Bft) W-SW 248 2 min 0,000 mm 2,6 UV-I 469 W/m 11,1 C 8,4 C 25,7 km/h (4 Bft) 95,74 %
08.05.2017 11:48 13,3 C 15,6 C 85 % 1011,7 hPa 0,0 l/m 16,1 km/h (3 Bft) W-SW 257 0 min 0,000 mm 2,4 UV-I 436 W/m 10,8 C 8,7 C 24,1 km/h (4 Bft) 92,00 %
08.05.2017 11:50 13,3 C 15,6 C 85 % 1011,7 hPa 0,0 l/m 19,1 km/h (3 Bft) W-SW 244 0 min 0,000 mm 2,2 UV-I 418 W/m 10,8 C 7,8 C 27,4 km/h (4 Bft) 95,74 %
08.05.2017 11:52 13,3 C 15,6 C 85 % 1011,7 hPa 0,0 l/m 16,8 km/h (3 Bft) SW 234 0 min 0,000 mm 2,2 UV-I 385 W/m 10,8 C 8,5 C 25,7 km/h (4 Bft) 95,74 %
08.05.2017 11:54 13,2 C 15,6 C 86 % 1011,7 hPa 0,0 l/m 17,5 km/h (3 Bft) SW 214 0 min 0,000 mm 2,1 UV-I 353 W/m 10,9 C 8,2 C 25,7 km/h (4 Bft) 98,00 %
08.05.2017 11:56 13,2 C 15,6 C 86 % 1011,8 hPa 0,0 l/m 17,1 km/h (3 Bft) W-SW 248 0 min 0,000 mm 2,0 UV-I 331 W/m 10,9 C 8,3 C 25,7 km/h (4 Bft) 95,83 %
08.05.2017 11:58 13,2 C 15,6 C 86 % 1011,7 hPa 0,0 l/m 19,5 km/h (3 Bft) SW 229 0 min 0,000 mm 2,2 UV-I 340 W/m 10,9 C 7,6 C 25,7 km/h (4 Bft) 95,92 %
08.05.2017 12:00 13,2 C 15,6 C 85 % 1011,7 hPa 0,0 l/m 16,5 km/h (3 Bft) W-SW 244 0 min 0,279 mm 2,3 UV-I 373 W/m 10,7 C 8,5 C 24,1 km/h (4 Bft) 95,83 %
08.05.2017 12:02 13,1 C 15,6 C 86 % 1011,8 hPa 0,0 l/m 14,1 km/h (3 Bft) W-SW 240 0 min 0,000 mm 2,5 UV-I 406 W/m 10,8 C 9,2 C 22,5 km/h (4 Bft) 95,74 %
08.05.2017 12:04 13,2 C 15,6 C 86 % 1011,7 hPa 0,0 l/m 14,8 km/h (3 Bft) W-SW 242 0 min 0,000 mm 2,8 UV-I 441 W/m 10,9 C 9,1 C 24,1 km/h (4 Bft) 97,14 %
08.05.2017 12:06 13,3 C 15,6 C 87 % 1011,6 hPa 0,0 l/m 14,7 km/h (3 Bft) S 182 2 min 0,000 mm 3,0 UV-I 466 W/m 11,2 C 9,2 C 25,7 km/h (4 Bft) 97,87 %
08.05.2017 12:08 13,4 C 15,6 C 85 % 1011,7 hPa 0,0 l/m 18,9 km/h (3 Bft) SW 217 2 min 0,000 mm 3,5 UV-I 782 W/m 10,9 C 8,0 C 29,0 km/h (5 Bft) 96,00 %
08.05.2017 12:10 13,6 C 15,6 C 86 % 1011,6 hPa 0,0 l/m 15,1 km/h (3 Bft) SW 234 2 min 0,000 mm 4,1 UV-I 959 W/m 11,3 C 9,5 C 24,1 km/h (4 Bft) 95,74 %
08.05.2017 12:12 13,8 C 15,6 C 85 % 1011,7 hPa 0,0 l/m 17,9 km/h (3 Bft) SW 220 2 min 0,000 mm 4,1 UV-I 1019 W/m 11,3 C 8,8 C 29,0 km/h (5 Bft) 93,62 %
08.05.2017 12:14 13,9 C 15,6 C 84 % 1011,6 hPa 0,0 l/m 17,7 km/h (3 Bft) SW 227 2 min 0,000 mm 3,3 UV-I 1000 W/m 11,2 C 9,0 C 25,7 km/h (4 Bft) 96,23 %
08.05.2017 12:16 13,8 C 15,6 C 83 % 1011,7 hPa 0,0 l/m 20,1 km/h (4 Bft) W 275 2 min 0,000 mm 2,3 UV-I 466 W/m 11,0 C 8,2 C 29,0 km/h (5 Bft) 95,74 %
08.05.2017 12:18 13,6 C 15,6 C 83 % 1011,6 hPa 0,0 l/m 15,7 km/h (3 Bft) SW 235 0 min 0,000 mm 2,0 UV-I 343 W/m 10,8 C 9,3 C 22,5 km/h (4 Bft) 95,12 %
08.05.2017 12:20 13,6 C 15,6 C 86 % 1011,6 hPa 0,0 l/m 14,9 km/h (3 Bft) S-SW 207 0 min 0,000 mm 1,7 UV-I 305 W/m 11,3 C 9,5 C 24,1 km/h (4 Bft) 93,62 %
08.05.2017 12:22 13,5 C 15,6 C 85 % 1011,5 hPa 0,0 l/m 16,9 km/h (3 Bft) SW 231 0 min 0,000 mm 1,6 UV-I 284 W/m 11,0 C 8,7 C 30,6 km/h (5 Bft) 91,49 %
08.05.2017 12:24 13,4 C 15,6 C 84 % 1011,5 hPa 0,0 l/m 20,7 km/h (4 Bft) S-SW 199 0 min 0,000 mm 1,9 UV-I 319 W/m 10,8 C 7,5 C 30,6 km/h (5 Bft) 93,62 %
08.05.2017 12:26 13,3 C 15,6 C 84 % 1011,5 hPa 0,0 l/m 17,6 km/h (3 Bft) W-SW 239 0 min 0,000 mm 2,1 UV-I 353 W/m 10,7 C 8,3 C 24,1 km/h (4 Bft) 95,74 %
08.05.2017 12:28 13,3 C 15,6 C 84 % 1011,5 hPa 0,0 l/m 19,7 km/h (3 Bft) W-SW 246 0 min 0,000 mm 2,5 UV-I 429 W/m 10,7 C 7,6 C 27,4 km/h (4 Bft) 93,62 %
08.05.2017 12:30 13,3 C 15,6 C 84 % 1011,5 hPa 0,0 l/m 21,5 km/h (4 Bft) W-SW 246 2 min 0,000 mm 2,8 UV-I 467 W/m 10,7 C 7,1 C 32,2 km/h (5 Bft) 93,62 %
08.05.2017 12:32 13,3 C 15,6 C 85 % 1011,5 hPa 0,0 l/m 18,4 km/h (3 Bft) W-SW 248 2 min 0,000 mm 3,1 UV-I 490 W/m 10,8 C 8,0 C 29,0 km/h (5 Bft) 92,00 %
08.05.2017 12:34 13,5 C 15,6 C 85 % 1011,5 hPa 0,0 l/m 18,5 km/h (3 Bft) S 185 2 min 0,000 mm 4,0 UV-I 499 W/m 11,0 C 8,2 C 32,2 km/h (5 Bft) 95,74 %
08.05.2017 12:36 13,8 C 15,6 C 85 % 1011,4 hPa 0,0 l/m 11,9 km/h (2 Bft) S 186 2 min 0,000 mm 3,8 UV-I 654 W/m 11,3 C 10,9 C 17,7 km/h (3 Bft) 94,87 %
08.05.2017 12:38 13,9 C 15,6 C 82 % 1011,4 hPa 0,0 l/m 22,5 km/h (4 Bft) SW 227 2 min 0,000 mm 3,7 UV-I 619 W/m 10,9 C 7,7 C 38,6 km/h (5 Bft) 95,74 %
08.05.2017 12:40 13,8 C 15,6 C 82 % 1011,4 hPa 0,0 l/m 18,1 km/h (3 Bft) S 189 2 min 0,000 mm 4,2 UV-I 624 W/m 10,8 C 8,7 C 27,4 km/h (4 Bft) 97,87 %
08.05.2017 12:42 13,8 C 15,6 C 82 % 1011,4 hPa 0,0 l/m 18,3 km/h (3 Bft) W-SW 238 2 min 0,000 mm 3,5 UV-I 549 W/m 10,8 C 8,7 C 27,4 km/h (4 Bft) 97,87 %
08.05.2017 12:44 13,9 C 15,6 C 83 % 1011,5 hPa 0,0 l/m 18,0 km/h (3 Bft) W 259 2 min 0,000 mm 4,5 UV-I 506 W/m 11,1 C 8,9 C 30,6 km/h (5 Bft) 97,87 %
08.05.2017 12:46 14,1 C 15,6 C 83 % 1011,4 hPa 0,0 l/m 20,9 km/h (4 Bft) SW 217 2 min 0,000 mm 4,1 UV-I 994 W/m 11,3 C 8,3 C 32,2 km/h (5 Bft) 100,00 %
08.05.2017 12:48 14,1 C 15,6 C 82 % 1011,4 hPa 0,0 l/m 16,8 km/h (3 Bft) SW 228 2 min 0,000 mm 3,6 UV-I 1027 W/m 11,1 C 9,5 C 24,1 km/h (4 Bft) 95,74 %
08.05.2017 12:50 14,2 C 15,6 C 82 % 1011,5 hPa 0,0 l/m 18,2 km/h (3 Bft) S-SW 211 2 min 0,000 mm 4,5 UV-I 1073 W/m 11,2 C 9,2 C 29,0 km/h (5 Bft) 100,00 %
08.05.2017 12:52 14,3 C 15,6 C 82 % 1011,5 hPa 0,0 l/m 19,6 km/h (3 Bft) W-SW 245 2 min 0,000 mm 4,1 UV-I 1086 W/m 11,3 C 8,9 C 29,0 km/h (5 Bft) 100,00 %
08.05.2017 12:54 14,3 C 15,6 C 81 % 1011,5 hPa 0,0 l/m 16,3 km/h (3 Bft) SW 236 2 min 0,000 mm 3,0 UV-I 940 W/m 11,1 C 9,9 C 22,5 km/h (4 Bft) 100,00 %
08.05.2017 12:56 14,3 C 15,6 C 82 % 1011,5 hPa 0,0 l/m 17,8 km/h (3 Bft) SW 230 2 min 0,000 mm 2,9 UV-I 508 W/m 11,3 C 9,5 C 27,4 km/h (4 Bft) 98,00 %
08.05.2017 12:58 14,2 C 15,6 C 81 % 1011,4 hPa 0,0 l/m 22,4 km/h (4 Bft) SW 214 2 min 0,000 mm 3,5 UV-I 566 W/m 11,0 C 8,1 C 32,2 km/h (5 Bft) 100,00 %
08.05.2017 13:00 14,2 C 15,6 C 81 % 1011,3 hPa 0,0 l/m 18,4 km/h (3 Bft) W-SW 244 2 min 0,356 mm 4,0 UV-I 568 W/m 11,0 C 9,2 C 35,4 km/h (5 Bft) 100,00 %
08.05.2017 13:02 14,2 C 15,6 C 81 % 1011,3 hPa 0,0 l/m 24,4 km/h (4 Bft) W-SW 242 2 min 0,000 mm 3,5 UV-I 687 W/m 11,0 C 7,7 C 32,2 km/h (5 Bft) 97,87 %
08.05.2017 13:04 14,2 C 15,6 C 81 % 1011,2 hPa 0,0 l/m 22,3 km/h (4 Bft) SW 228 2 min 0,000 mm 3,4 UV-I 584 W/m 11,0 C 8,1 C 29,0 km/h (5 Bft) 100,00 %
08.05.2017 13:06 14,1 C 15,6 C 81 % 1011,3 hPa 0,0 l/m 22,9 km/h (4 Bft) W-SW 238 2 min 0,000 mm 3,6 UV-I 578 W/m 10,9 C 7,9 C 32,2 km/h (5 Bft) 97,87 %
08.05.2017 13:08 14,1 C 15,6 C 81 % 1011,2 hPa 0,0 l/m 22,5 km/h (4 Bft) SW 235 2 min 0,000 mm 3,3 UV-I 550 W/m 10,9 C 8,0 C 30,6 km/h (5 Bft) 98,11 %
08.05.2017 13:10 14,1 C 15,6 C 81 % 1011,3 hPa 0,0 l/m 21,5 km/h (4 Bft) W-SW 241 2 min 0,000 mm 3,1 UV-I 535 W/m 10,9 C 8,2 C 29,0 km/h (5 Bft) 100,00 %
08.05.2017 13:12 14,0 C 15,6 C 81 % 1011,3 hPa 0,0 l/m 21,8 km/h (4 Bft) W 267 2 min 0,000 mm 3,5 UV-I 592 W/m 10,8 C 8,0 C 30,6 km/h (5 Bft) 97,87 %
08.05.2017 13:14 14,0 C 15,6 C 81 % 1011,4 hPa 0,0 l/m 21,0 km/h (4 Bft) W-SW 240 2 min 0,000 mm 3,4 UV-I 563 W/m 10,8 C 8,2 C 35,4 km/h (5 Bft) 100,00 %
08.05.2017 13:16 14,0 C 15,6 C 81 % 1011,4 hPa 0,0 l/m 19,7 km/h (3 Bft) W 260 2 min 0,000 mm 4,0 UV-I 692 W/m 10,8 C 8,5 C 30,6 km/h (5 Bft) 100,00 %
08.05.2017 13:18 14,1 C 15,6 C 81 % 1011,4 hPa 0,0 l/m 18,0 km/h (3 Bft) W-SW 240 2 min 0,000 mm 3,1 UV-I 846 W/m 10,9 C 9,1 C 27,4 km/h (4 Bft) 100,00 %
08.05.2017 13:20 14,1 C 15,6 C 80 % 1011,3 hPa 0,0 l/m 19,5 km/h (3 Bft) W-SW 240 2 min 0,000 mm 3,0 UV-I 573 W/m 10,7 C 8,7 C 30,6 km/h (5 Bft) 98,00 %
08.05.2017 13:22 14,1 C 15,6 C 82 % 1011,4 hPa 0,0 l/m 19,5 km/h (3 Bft) SW 225 2 min 0,000 mm 2,4 UV-I 489 W/m 11,1 C 8,7 C 30,6 km/h (5 Bft) 97,87 %
08.05.2017 13:24 13,9 C 15,6 C 81 % 1011,4 hPa 0,0 l/m 21,3 km/h (4 Bft) W-SW 252 0 min 0,000 mm 1,9 UV-I 345 W/m 10,7 C 8,0 C 29,0 km/h (5 Bft) 97,87 %
08.05.2017 13:26 13,9 C 15,6 C 82 % 1011,4 hPa 0,0 l/m 20,1 km/h (4 Bft) W 261 0 min 0,000 mm 1,9 UV-I 348 W/m 10,9 C 8,3 C 35,4 km/h (5 Bft) 100,00 %
08.05.2017 13:28 13,8 C 15,6 C 82 % 1011,4 hPa 0,0 l/m 21,8 km/h (4 Bft) W-SW 242 0 min 0,000 mm 2,0 UV-I 359 W/m 10,8 C 7,7 C 32,2 km/h (5 Bft) 100,00 %
08.05.2017 13:30 13,7 C 15,6 C 81 % 1011,4 hPa 0,0 l/m 19,8 km/h (3 Bft) W-SW 240 0 min 0,000 mm 2,2 UV-I 404 W/m 10,5 C 8,1 C 27,4 km/h (4 Bft) 97,87 %
08.05.2017 13:32 13,8 C 15,6 C 81 % 1011,4 hPa 0,0 l/m 20,8 km/h (4 Bft) W-SW 242 0 min 0,000 mm 2,2 UV-I 391 W/m 10,6 C 8,0 C 29,0 km/h (5 Bft) 97,96 %
08.05.2017 13:34 13,7 C 15,6 C 81 % 1011,4 hPa 0,0 l/m 20,8 km/h (4 Bft) W 270 0 min 0,000 mm 2,0 UV-I 358 W/m 10,5 C 7,9 C 29,0 km/h (5 Bft) 100,00 %
08.05.2017 13:36 13,7 C 15,6 C 81 % 1011,3 hPa 0,0 l/m 17,6 km/h (3 Bft) SW 224 0 min 0,000 mm 1,5 UV-I 278 W/m 10,5 C 8,8 C 25,7 km/h (4 Bft) 97,56 %
08.05.2017 13:38 13,6 C 15,6 C 81 % 1011,3 hPa 0,0 l/m 16,0 km/h (3 Bft) W-SW 244 0 min 0,000 mm 1,4 UV-I 256 W/m 10,4 C 9,2 C 20,9 km/h (4 Bft) 100,00 %
08.05.2017 13:40 13,6 C 15,6 C 82 % 1011,3 hPa 0,0 l/m 19,2 km/h (3 Bft) SW 227 0 min 0,000 mm 1,3 UV-I 229 W/m 10,6 C 8,2 C 27,4 km/h (4 Bft) 97,87 %
08.05.2017 13:42 13,6 C 15,6 C 83 % 1011,4 hPa 0,0 l/m 13,6 km/h (3 Bft) W-SW 244 0 min 0,000 mm 1,2 UV-I 209 W/m 10,8 C 10,0 C 24,1 km/h (4 Bft) 100,00 %
08.05.2017 13:44 13,5 C 15,6 C 82 % 1011,4 hPa 0,0 l/m 16,2 km/h (3 Bft) W-SW 238 0 min 0,000 mm 1,2 UV-I 207 W/m 10,5 C 9,0 C 24,1 km/h (4 Bft) 100,00 %
08.05.2017 13:46 13,4 C 15,6 C 82 % 1011,4 hPa 0,0 l/m 16,3 km/h (3 Bft) SW 234 0 min 0,000 mm 1,1 UV-I 196 W/m 10,4 C 8,8 C 27,4 km/h (4 Bft) 98,00 %
08.05.2017 13:48 13,3 C 15,6 C 81 % 1011,4 hPa 0,0 l/m 21,5 km/h (4 Bft) SW 217 0 min 0,000 mm 1,1 UV-I 185 W/m 10,1 C 7,1 C 30,6 km/h (5 Bft) 97,87 %
08.05.2017 13:50 13,2 C 15,6 C 82 % 1011,4 hPa 0,0 l/m 19,8 km/h (3 Bft) SW 225 0 min 0,000 mm 0,9 UV-I 166 W/m 10,2 C 7,5 C 29,0 km/h (5 Bft) 100,00 %
08.05.2017 13:52 13,1 C 15,6 C 82 % 1011,5 hPa 0,0 l/m 16,7 km/h (3 Bft) SW 228 0 min 0,000 mm 0,9 UV-I 156 W/m 10,1 C 8,3 C 22,5 km/h (4 Bft) 97,87 %
08.05.2017 13:54 13,0 C 15,6 C 83 % 1011,4 hPa 0,0 l/m 23,1 km/h (4 Bft) SW 223 0 min 0,000 mm 0,9 UV-I 164 W/m 10,2 C 6,3 C 30,6 km/h (5 Bft) 94,44 %
08.05.2017 13:56 12,9 C 15,6 C 84 % 1011,5 hPa 0,0 l/m 14,4 km/h (3 Bft) W-SW 240 0 min 0,000 mm 0,9 UV-I 159 W/m 10,3 C 8,9 C 24,1 km/h (4 Bft) 97,87 %
08.05.2017 13:58 12,9 C 15,6 C 84 % 1011,5 hPa 0,0 l/m 15,7 km/h (3 Bft) W-NW 286 0 min 0,000 mm 0,8 UV-I 144 W/m 10,3 C 8,4 C 24,1 km/h (4 Bft) 95,74 %
08.05.2017 14:00 12,9 C 15,6 C 84 % 1011,5 hPa 0,0 l/m 14,8 km/h (3 Bft) W 267 0 min 0,228 mm 0,7 UV-I 132 W/m 10,3 C 8,7 C 20,9 km/h (4 Bft) 97,87 %
08.05.2017 14:02 12,9 C 15,6 C 85 % 1011,5 hPa 0,0 l/m 11,7 km/h (2 Bft) W 259 0 min 0,000 mm 0,7 UV-I 125 W/m 10,4 C 10,0 C 17,7 km/h (3 Bft) 97,87 %
08.05.2017 14:04 12,8 C 15,6 C 85 % 1011,7 hPa 0,0 l/m 12,1 km/h (2 Bft) S-SW 208 0 min 0,000 mm 0,7 UV-I 123 W/m 10,3 C 9,7 C 17,7 km/h (3 Bft) 97,87 %
08.05.2017 14:06 12,8 C 15,6 C 85 % 1011,5 hPa 0,0 l/m 17,5 km/h (3 Bft) W 261 0 min 0,000 mm 0,7 UV-I 135 W/m 10,3 C 7,7 C 24,1 km/h (4 Bft) 93,62 %
08.05.2017 14:08 12,8 C 15,6 C 85 % 1011,5 hPa 0,0 l/m 14,7 km/h (3 Bft) W-SW 250 0 min 0,000 mm 0,8 UV-I 150 W/m 10,3 C 8,6 C 24,1 km/h (4 Bft) 97,87 %
08.05.2017 14:10 12,8 C 15,6 C 85 % 1011,5 hPa 0,0 l/m 16,8 km/h (3 Bft) W-SW 249 0 min 0,000 mm 0,8 UV-I 150 W/m 10,3 C 7,9 C 27,4 km/h (4 Bft) 97,87 %
08.05.2017 14:12 12,7 C 15,6 C 85 % 1011,5 hPa 0,0 l/m 15,6 km/h (3 Bft) SW 234 0 min 0,000 mm 0,7 UV-I 134 W/m 10,2 C 8,2 C 24,1 km/h (4 Bft) 97,87 %
08.05.2017 14:14 12,7 C 15,6 C 85 % 1011,5 hPa 0,0 l/m 19,5 km/h (3 Bft) W-SW 250 0 min 0,000 mm 0,8 UV-I 138 W/m 10,2 C 6,9 C 27,4 km/h (4 Bft) 98,11 %
08.05.2017 14:16 12,7 C 15,6 C 85 % 1011,5 hPa 0,0 l/m 15,0 km/h (3 Bft) W 275 0 min 0,000 mm 0,7 UV-I 133 W/m 10,2 C 8,4 C 22,5 km/h (4 Bft) 95,74 %
08.05.2017 14:18 12,7 C 15,6 C 86 % 1011,5 hPa 0,0 l/m 11,0 km/h (2 Bft) W-SW 254 0 min 0,000 mm 0,8 UV-I 137 W/m 10,4 C 10,1 C 22,5 km/h (4 Bft) 96,00 %
08.05.2017 14:20 12,7 C 15,6 C 86 % 1011,5 hPa 0,0 l/m 16,2 km/h (3 Bft) SW 232 0 min 0,000 mm 0,8 UV-I 142 W/m 10,4 C 8,0 C 24,1 km/h (4 Bft) 94,74 %
08.05.2017 14:22 12,6 C 15,6 C 86 % 1011,5 hPa 0,0 l/m 19,7 km/h (3 Bft) W-SW 238 0 min 0,000 mm 0,8 UV-I 143 W/m 10,3 C 6,7 C 29,0 km/h (5 Bft) 97,87 %
08.05.2017 14:24 12,6 C 15,6 C 86 % 1011,5 hPa 0,0 l/m 15,1 km/h (3 Bft) SW 234 0 min 0,000 mm 0,8 UV-I 144 W/m 10,3 C 8,2 C 19,3 km/h (3 Bft) 95,74 %
08.05.2017 14:26 12,6 C 15,6 C 86 % 1011,4 hPa 0,0 l/m 12,6 km/h (3 Bft) SW 221 0 min 0,000 mm 0,8 UV-I 142 W/m 10,3 C 9,2 C 17,7 km/h (3 Bft) 97,87 %
08.05.2017 14:28 12,6 C 15,6 C 86 % 1011,3 hPa 0,0 l/m 11,8 km/h (2 Bft) W-SW 237 0 min 0,000 mm 0,8 UV-I 142 W/m 10,3 C 9,6 C 17,7 km/h (3 Bft) 100,00 %
08.05.2017 14:30 12,6 C 15,6 C 86 % 1011,3 hPa 0,0 l/m 16,8 km/h (3 Bft) SW 225 0 min 0,000 mm 0,8 UV-I 142 W/m 10,3 C 7,6 C 29,0 km/h (5 Bft) 95,83 %
08.05.2017 14:32 12,6 C 15,6 C 86 % 1011,3 hPa 0,0 l/m 17,6 km/h (3 Bft) SW 222 0 min 0,000 mm 0,8 UV-I 142 W/m 10,3 C 7,4 C 27,4 km/h (4 Bft) 97,87 %
08.05.2017 14:34 12,6 C 15,6 C 86 % 1011,2 hPa 0,0 l/m 21,9 km/h (4 Bft) W 261 0 min 0,000 mm 0,8 UV-I 146 W/m 10,3 C 6,1 C 30,6 km/h (5 Bft) 100,00 %
08.05.2017 14:36 12,6 C 15,6 C 85 % 1011,2 hPa 0,0 l/m 23,0 km/h (4 Bft) SW 232 0 min 0,000 mm 0,8 UV-I 152 W/m 10,1 C 5,8 C 33,8 km/h (5 Bft) 97,87 %
08.05.2017 14:38 12,5 C 15,6 C 85 % 1011,2 hPa 0,0 l/m 19,5 km/h (3 Bft) SW 231 0 min 0,000 mm 0,8 UV-I 160 W/m 10,0 C 6,7 C 29,0 km/h (5 Bft) 97,87 %
08.05.2017 14:40 12,5 C 15,6 C 86 % 1011,2 hPa 0,0 l/m 19,4 km/h (3 Bft) SW 214 0 min 0,000 mm 0,9 UV-I 164 W/m 10,2 C 6,7 C 30,6 km/h (5 Bft) 97,87 %
08.05.2017 14:42 12,5 C 15,6 C 86 % 1011,2 hPa 0,0 l/m 18,8 km/h (3 Bft) SW 232 0 min 0,000 mm 0,9 UV-I 163 W/m 10,2 C 6,9 C 27,4 km/h (4 Bft) 95,74 %
08.05.2017 14:44 12,5 C 15,6 C 86 % 1011,2 hPa 0,0 l/m 16,7 km/h (3 Bft) SW 223 0 min 0,000 mm 0,8 UV-I 160 W/m 10,2 C 7,6 C 20,9 km/h (4 Bft) 97,87 %
08.05.2017 14:46 12,4 C 15,6 C 86 % 1011,2 hPa 0,0 l/m 20,2 km/h (4 Bft) S-SW 200 0 min 0,000 mm 0,8 UV-I 158 W/m 10,1 C 6,3 C 29,0 km/h (5 Bft) 96,00 %
08.05.2017 14:48 12,4 C 15,6 C 86 % 1011,2 hPa 0,0 l/m 15,8 km/h (3 Bft) SW 227 0 min 0,000 mm 0,8 UV-I 153 W/m 10,1 C 7,7 C 22,5 km/h (4 Bft) 97,14 %
08.05.2017 14:50 12,4 C 15,6 C 87 % 1011,3 hPa 0,0 l/m 18,0 km/h (3 Bft) W-SW 248 0 min 0,000 mm 0,8 UV-I 150 W/m 10,3 C 7,0 C 24,1 km/h (4 Bft) 100,00 %
08.05.2017 14:52 12,4 C 15,6 C 87 % 1011,3 hPa 0,0 l/m 15,8 km/h (3 Bft) W 277 0 min 0,000 mm 0,8 UV-I 150 W/m 10,3 C 7,7 C 24,1 km/h (4 Bft) 100,00 %
08.05.2017 14:54 12,4 C 15,6 C 87 % 1011,2 hPa 0,0 l/m 16,2 km/h (3 Bft) W-SW 246 0 min 0,000 mm 0,8 UV-I 146 W/m 10,3 C 7,6 C 27,4 km/h (4 Bft) 100,00 %
08.05.2017 14:56 12,4 C 15,6 C 87 % 1011,2 hPa 0,0 l/m 17,5 km/h (3 Bft) W-SW 251 0 min 0,000 mm 0,7 UV-I 138 W/m 10,3 C 7,2 C 24,1 km/h (4 Bft) 97,87 %
08.05.2017 14:58 12,3 C 15,6 C 87 % 1011,2 hPa 0,0 l/m 16,9 km/h (3 Bft) W-SW 240 0 min 0,000 mm 0,7 UV-I 133 W/m 10,2 C 7,2 C 22,5 km/h (4 Bft) 100,00 %
08.05.2017 15:00 12,4 C 15,6 C 87 % 1011,2 hPa 0,0 l/m 14,4 km/h (3 Bft) W-SW 257 0 min 0,102 mm 0,7 UV-I 128 W/m 10,3 C 8,3 C 20,9 km/h (4 Bft) 98,00 %
08.05.2017 15:02 12,4 C 15,6 C 88 % 1011,2 hPa 0,0 l/m 14,3 km/h (3 Bft) SW 224 0 min 0,000 mm 0,7 UV-I 128 W/m 10,5 C 8,3 C 22,5 km/h (4 Bft) 100,00 %
08.05.2017 15:04 12,4 C 15,6 C 87 % 1011,2 hPa 0,0 l/m 15,5 km/h (3 Bft) SW 226 0 min 0,000 mm 0,7 UV-I 134 W/m 10,3 C 7,9 C 20,9 km/h (4 Bft) 98,00 %
08.05.2017 15:06 12,4 C 15,6 C 87 % 1011,2 hPa 0,0 l/m 12,0 km/h (2 Bft) W-SW 242 0 min 0,000 mm 0,7 UV-I 137 W/m 10,3 C 9,3 C 19,3 km/h (3 Bft) 95,83 %
08.05.2017 15:08 12,4 C 15,6 C 88 % 1011,2 hPa 0,0 l/m 13,4 km/h (3 Bft) W 264 0 min 0,000 mm 0,7 UV-I 128 W/m 10,5 C 8,7 C 19,3 km/h (3 Bft) 98,11 %
08.05.2017 15:10 12,4 C 15,6 C 87 % 1011,3 hPa 0,0 l/m 15,1 km/h (3 Bft) W-SW 244 0 min 0,000 mm 0,6 UV-I 116 W/m 10,3 C 8,0 C 20,9 km/h (4 Bft) 97,87 %
08.05.2017 15:12 12,4 C 15,6 C 87 % 1011,3 hPa 0,0 l/m 9,9 km/h (2 Bft) W-SW 257 0 min 0,000 mm 0,5 UV-I 105 W/m 10,3 C 10,3 C 19,3 km/h (3 Bft) 100,00 %
08.05.2017 15:14 12,4 C 15,6 C 87 % 1011,3 hPa 0,0 l/m 13,9 km/h (3 Bft) W 265 0 min 0,000 mm 0,5 UV-I 99 W/m 10,3 C 8,5 C 20,9 km/h (4 Bft) 100,00 %
08.05.2017 15:16 12,4 C 15,6 C 86 % 1011,3 hPa 0,0 l/m 10,0 km/h (2 Bft) W 259 0 min 0,000 mm 0,4 UV-I 97 W/m 10,1 C 10,2 C 19,3 km/h (3 Bft) 97,87 %
08.05.2017 15:18 12,4 C 15,6 C 86 % 1011,3 hPa 0,0 l/m 10,5 km/h (2 Bft) W-SW 252 0 min 0,000 mm 0,0 UV-I 91 W/m 10,1 C 10,0 C 16,1 km/h (3 Bft) 95,74 %
08.05.2017 15:20 12,4 C 15,6 C 87 % 1011,3 hPa 0,0 l/m 7,7 km/h (2 Bft) W-SW 238 0 min 0,000 mm 0,0 UV-I 90 W/m 10,3 C 11,6 C 12,9 km/h (3 Bft) 98,00 %
08.05.2017 15:22 12,4 C 15,6 C 87 % 1011,2 hPa 0,0 l/m 12,7 km/h (3 Bft) W-SW 247 0 min 0,000 mm 0,0 UV-I 88 W/m 10,3 C 9,0 C 19,3 km/h (3 Bft) 98,11 %
08.05.2017 15:24 12,4 C 15,6 C 86 % 1011,3 hPa 0,0 l/m 13,3 km/h (3 Bft) W-SW 251 0 min 0,000 mm 0,0 UV-I 87 W/m 10,1 C 8,7 C 19,3 km/h (3 Bft) 100,00 %
08.05.2017 15:26 12,4 C 15,6 C 86 % 1011,3 hPa 0,0 l/m 12,6 km/h (3 Bft) W-SW 255 0 min 0,000 mm 0,0 UV-I 85 W/m 10,1 C 9,0 C 17,7 km/h (3 Bft) 100,00 %
08.05.2017 15:28 12,4 C 15,6 C 86 % 1011,3 hPa 0,0 l/m 10,4 km/h (2 Bft) SW 235 0 min 0,000 mm 0,0 UV-I 81 W/m 10,1 C 10,0 C 16,1 km/h (3 Bft) 98,00 %
08.05.2017 15:30 12,4 C 15,6 C 86 % 1011,3 hPa 0,0 l/m 11,4 km/h (2 Bft) SW 232 0 min 0,000 mm 0,0 UV-I 77 W/m 10,1 C 9,6 C 17,7 km/h (3 Bft) 97,87 %
08.05.2017 15:32 12,4 C 15,6 C 86 % 1011,3 hPa 0,0 l/m 9,3 km/h (2 Bft) SW 232 0 min 0,000 mm 0,0 UV-I 74 W/m 10,1 C 10,6 C 14,5 km/h (3 Bft) 97,96 %
08.05.2017 15:34 12,4 C 15,6 C 86 % 1011,3 hPa 0,0 l/m 7,7 km/h (2 Bft) W-SW 248 0 min 0,000 mm 0,0 UV-I 66 W/m 10,1 C 11,6 C 11,3 km/h (2 Bft) 97,56 %
08.05.2017 15:36 12,4 C 15,6 C 86 % 1011,3 hPa 0,0 l/m 6,0 km/h (2 Bft) W 279 0 min 0,000 mm 0,0 UV-I 57 W/m 10,1 C 12,4 C 9,7 km/h (2 Bft) 95,74 %
08.05.2017 15:38 12,4 C 15,6 C 87 % 1011,3 hPa 0,0 l/m 5,0 km/h (1 Bft) W 280 0 min 0,000 mm 0,0 UV-I 49 W/m 10,3 C 12,4 C 6,4 km/h (2 Bft) 97,87 %
08.05.2017 15:40 12,3 C 15,6 C 87 % 1011,3 hPa 0,0 l/m 2,7 km/h (1 Bft) W 281 0 min 0,000 mm 0,0 UV-I 45 W/m 10,2 C 12,3 C 4,8 km/h (1 Bft) 97,87 %
08.05.2017 15:42 12,3 C 15,6 C 88 % 1011,3 hPa 0,0 l/m 1,1 km/h (1 Bft) W-NW 284 0 min 0,000 mm 0,0 UV-I 39 W/m 10,4 C 12,3 C 3,2 km/h (1 Bft) 94,00 %
08.05.2017 15:44 12,3 C 15,6 C 89 % 1011,3 hPa 0,0 l/m 0,7 km/h (0 Bft) W-NW 284 0 min 0,000 mm 0,0 UV-I 35 W/m 10,5 C 12,3 C 3,2 km/h (1 Bft) 97,87 %
08.05.2017 15:46 12,2 C 15,6 C 89 % 1011,4 hPa 0,0 l/m 1,2 km/h (1 Bft) W-NW 284 0 min 0,000 mm 0,0 UV-I 30 W/m 10,4 C 12,2 C 3,2 km/h (1 Bft) 95,74 %
08.05.2017 15:48 12,1 C 15,6 C 90 % 1011,4 hPa 0,0 l/m 0,1 km/h (0 Bft) W-NW 284 0 min 0,000 mm 0,0 UV-I 26 W/m 10,5 C 12,1 C 1,6 km/h (1 Bft) 97,44 %
08.05.2017 15:50 11,9 C 15,6 C 90 % 1011,4 hPa 0,0 l/m 0,3 km/h (0 Bft) W-NW 284 0 min 0,000 mm 0,0 UV-I 24 W/m 10,3 C 11,9 C 1,6 km/h (1 Bft) 89,36 %
08.05.2017 15:52 11,9 C 15,6 C 90 % 1011,4 hPa 0,0 l/m 1,5 km/h (1 Bft) W-NW 297 0 min 0,000 mm 0,0 UV-I 21 W/m 10,3 C 11,9 C 4,8 km/h (1 Bft) 95,74 %
08.05.2017 15:54 11,8 C 15,6 C 91 % 1011,4 hPa 0,0 l/m 2,6 km/h (1 Bft) N-NW 348 0 min 0,000 mm 0,0 UV-I 21 W/m 10,4 C 11,8 C 4,8 km/h (1 Bft) 93,62 %
08.05.2017 15:56 11,8 C 15,6 C 91 % 1011,4 hPa 0,0 l/m 1,5 km/h (1 Bft) NW 315 0 min 0,000 mm 0,0 UV-I 24 W/m 10,4 C 11,8 C 4,8 km/h (1 Bft) 91,49 %
08.05.2017 15:58 11,7 C 15,6 C 92 % 1011,4 hPa 0,2 l/m 3,0 km/h (1 Bft) NW 315 0 min 0,000 mm 0,0 UV-I 25 W/m 10,4 C 11,7 C 6,4 km/h (2 Bft) 87,23 %
08.05.2017 16:00 11,7 C 15,6 C 92 % 1011,4 hPa 0,2 l/m 3,3 km/h (1 Bft) N-NW 332 0 min 0,000 mm 0,0 UV-I 25 W/m 10,4 C 11,7 C 6,4 km/h (2 Bft) 96,00 %
08.05.2017 16:03 11,6 C 15,6 C 92 % 1011,4 hPa 0,2 l/m 2,4 km/h (1 Bft) N-NW 330 0 min 0,051 mm 0,0 UV-I 33 W/m 10,3 C 11,6 C 4,8 km/h (1 Bft) 94,03 %
08.05.2017 16:04 11,6 C 15,6 C 92 % 1011,4 hPa 0,0 l/m 3,2 km/h (1 Bft) N-NW 339 0 min 0,000 mm 0,0 UV-I 37 W/m 10,3 C 11,6 C 6,4 km/h (2 Bft) 91,67 %
08.05.2017 16:06 11,6 C 15,6 C 92 % 1011,5 hPa 0,2 l/m 3,6 km/h (1 Bft) N-NW 342 0 min 0,000 mm 0,0 UV-I 35 W/m 10,3 C 11,6 C 8,0 km/h (2 Bft) 91,49 %
08.05.2017 16:08 11,5 C 15,6 C 93 % 1011,5 hPa 0,2 l/m 3,6 km/h (1 Bft) N-NW 339 0 min 0,000 mm 0,0 UV-I 32 W/m 10,4 C 11,5 C 6,4 km/h (2 Bft) 94,00 %
08.05.2017 16:10 11,4 C 15,6 C 93 % 1011,4 hPa 0,4 l/m 1,8 km/h (1 Bft) N-NW 343 0 min 0,000 mm 0,0 UV-I 30 W/m 10,3 C 11,4 C 4,8 km/h (1 Bft) 93,62 %
08.05.2017 16:12 11,4 C 15,6 C 93 % 1011,4 hPa 0,2 l/m 2,2 km/h (1 Bft) N-NW 333 0 min 0,000 mm 0,0 UV-I 28 W/m 10,3 C 11,4 C 4,8 km/h (1 Bft) 92,00 %
08.05.2017 16:14 11,3 C 15,6 C 93 % 1011,5 hPa 0,2 l/m 0,7 km/h (0 Bft) N-NW 332 0 min 0,000 mm 0,0 UV-I 26 W/m 10,2 C 11,3 C 3,2 km/h (1 Bft) 91,43 %
08.05.2017 16:16 11,3 C 15,6 C 93 % 1011,5 hPa 0,2 l/m 3,2 km/h (1 Bft) N-NW 336 0 min 0,000 mm 0,0 UV-I 26 W/m 10,2 C 11,3 C 8,0 km/h (2 Bft) 94,00 %
08.05.2017 16:19 11,3 C 15,6 C 94 % 1011,6 hPa 0,8 l/m 2,3 km/h (1 Bft) NW 323 0 min 0,000 mm 0,0 UV-I 25 W/m 10,4 C 11,3 C 6,4 km/h (2 Bft) 91,55 %
08.05.2017 16:20 11,2 C 15,6 C 94 % 1011,6 hPa 0,0 l/m 1,5 km/h (1 Bft) NW 323 0 min 0,000 mm 0,0 UV-I 27 W/m 10,3 C 11,2 C 4,8 km/h (1 Bft) 88,00 %
08.05.2017 16:22 11,2 C 15,6 C 94 % 1011,7 hPa 0,2 l/m 2,5 km/h (1 Bft) NW 311 0 min 0,000 mm 0,0 UV-I 26 W/m 10,3 C 11,2 C 4,8 km/h (1 Bft) 93,88 %
08.05.2017 16:24 11,2 C 15,6 C 94 % 1011,8 hPa 0,2 l/m 4,3 km/h (1 Bft) W-SW 249 0 min 0,000 mm 0,0 UV-I 19 W/m 10,3 C 11,2 C 12,9 km/h (3 Bft) 95,74 %
08.05.2017 16:26 11,2 C 15,6 C 94 % 1011,8 hPa 0,2 l/m 3,6 km/h (1 Bft) W 259 0 min 0,000 mm 0,0 UV-I 23 W/m 10,3 C 11,2 C 8,0 km/h (2 Bft) 95,74 %
08.05.2017 16:28 11,1 C 15,6 C 94 % 1011,8 hPa 0,2 l/m 6,2 km/h (2 Bft) W-SW 239 0 min 0,000 mm 0,0 UV-I 26 W/m 10,2 C 11,1 C 12,9 km/h (3 Bft) 95,74 %
08.05.2017 16:30 10,9 C 15,6 C 94 % 1011,8 hPa 0,4 l/m 5,2 km/h (1 Bft) W 281 0 min 0,000 mm 0,0 UV-I 26 W/m 10,0 C 10,9 C 11,3 km/h (2 Bft) 93,75 %
08.05.2017 16:32 10,7 C 15,6 C 94 % 1011,8 hPa 0,2 l/m 4,3 km/h (1 Bft) W 280 0 min 0,000 mm 0,0 UV-I 28 W/m 9,8 C 10,7 C 9,7 km/h (2 Bft) 98,00 %
08.05.2017 16:34 10,4 C 15,6 C 94 % 1011,9 hPa 0,2 l/m 6,4 km/h (2 Bft) SW 215 0 min 0,000 mm 0,0 UV-I 26 W/m 9,5 C 10,4 C 14,5 km/h (3 Bft) 97,14 %
08.05.2017 16:36 10,3 C 15,6 C 94 % 1011,9 hPa 0,2 l/m 5,1 km/h (1 Bft) W-SW 240 0 min 0,000 mm 0,0 UV-I 26 W/m 9,4 C 10,3 C 14,5 km/h (3 Bft) 96,00 %
08.05.2017 16:38 10,2 C 15,6 C 94 % 1011,9 hPa 0,2 l/m 5,5 km/h (1 Bft) W-SW 251 0 min 0,000 mm 0,0 UV-I 28 W/m 9,3 C 10,2 C 12,9 km/h (3 Bft) 97,87 %
08.05.2017 16:40 10,1 C 15,6 C 94 % 1012,0 hPa 0,2 l/m 5,4 km/h (1 Bft) W-SW 246 0 min 0,000 mm 0,0 UV-I 29 W/m 9,2 C 10,1 C 9,7 km/h (2 Bft) 100,00 %
08.05.2017 16:42 10,0 C 15,6 C 94 % 1011,9 hPa 0,2 l/m 4,3 km/h (1 Bft) W 277 0 min 0,000 mm 0,0 UV-I 30 W/m 9,1 C 10,0 C 6,4 km/h (2 Bft) 95,74 %
08.05.2017 16:44 9,9 C 15,6 C 94 % 1011,9 hPa 0,2 l/m 6,2 km/h (2 Bft) W 261 0 min 0,000 mm 0,0 UV-I 31 W/m 9,0 C 9,9 C 14,5 km/h (3 Bft) 97,87 %
08.05.2017 16:46 9,9 C 15,6 C 94 % 1011,8 hPa 0,2 l/m 6,0 km/h (2 Bft) S-SW 213 0 min 0,000 mm 0,0 UV-I 33 W/m 9,0 C 9,9 C 12,9 km/h (3 Bft) 97,87 %
08.05.2017 16:48 9,8 C 15,6 C 94 % 1011,7 hPa 0,4 l/m 6,9 km/h (2 Bft) SW 231 0 min 0,000 mm 0,0 UV-I 35 W/m 8,9 C 9,4 C 11,3 km/h (2 Bft) 98,00 %
08.05.2017 16:50 9,8 C 15,6 C 95 % 1011,7 hPa 0,2 l/m 7,8 km/h (2 Bft) SW 224 0 min 0,000 mm 0,0 UV-I 39 W/m 9,0 C 8,8 C 9,7 km/h (2 Bft) 93,62 %
08.05.2017 16:52 9,9 C 15,6 C 95 % 1011,6 hPa 0,4 l/m 7,4 km/h (2 Bft) W-SW 239 0 min 0,000 mm 0,0 UV-I 43 W/m 9,1 C 9,2 C 12,9 km/h (3 Bft) 100,00 %
08.05.2017 16:54 9,9 C 15,6 C 95 % 1011,6 hPa 0,2 l/m 7,6 km/h (2 Bft) SW 219 0 min 0,000 mm 0,0 UV-I 47 W/m 9,1 C 9,0 C 11,3 km/h (2 Bft) 97,87 %
08.05.2017 16:56 9,9 C 15,6 C 95 % 1011,6 hPa 0,0 l/m 7,9 km/h (2 Bft) SW 223 0 min 0,000 mm 0,0 UV-I 49 W/m 9,1 C 8,8 C 12,9 km/h (3 Bft) 95,74 %
08.05.2017 16:58 9,9 C 15,6 C 95 % 1011,5 hPa 0,4 l/m 6,5 km/h (2 Bft) W-SW 244 0 min 0,000 mm 0,0 UV-I 49 W/m 9,1 C 9,9 C 9,7 km/h (2 Bft) 100,00 %
08.05.2017 17:00 9,8 C 15,6 C 94 % 1011,4 hPa 0,0 l/m 8,0 km/h (2 Bft) S 186 0 min 0,025 mm 0,0 UV-I 49 W/m 8,9 C 8,6 C 11,3 km/h (2 Bft) 96,00 %
08.05.2017 17:02 9,8 C 15,6 C 95 % 1011,2 hPa 0,2 l/m 5,4 km/h (1 Bft) S-SW 201 0 min 0,000 mm 0,0 UV-I 51 W/m 9,0 C 9,8 C 9,7 km/h (2 Bft) 91,49 %
08.05.2017 17:04 9,8 C 15,6 C 95 % 1011,1 hPa 0,2 l/m 5,4 km/h (1 Bft) S-SW 201 0 min 0,000 mm 0,0 UV-I 60 W/m 9,0 C 9,8 C 8,0 km/h (2 Bft) 100,00 %
08.05.2017 17:06 9,8 C 15,6 C 95 % 1011,3 hPa 0,0 l/m 8,8 km/h (2 Bft) SW 219 0 min 0,000 mm 0,0 UV-I 78 W/m 9,0 C 8,1 C 14,5 km/h (3 Bft) 100,00 %
08.05.2017 17:08 9,9 C 15,6 C 95 % 1011,6 hPa 0,0 l/m 12,0 km/h (2 Bft) W-SW 254 0 min 0,000 mm 0,0 UV-I 99 W/m 9,1 C 6,4 C 17,7 km/h (3 Bft) 100,00 %
08.05.2017 17:10 9,9 C 15,6 C 95 % 1011,5 hPa 0,2 l/m 8,6 km/h (2 Bft) SW 225 0 min 0,000 mm 0,0 UV-I 115 W/m 9,1 C 8,3 C 16,1 km/h (3 Bft) 98,00 %
08.05.2017 17:12 9,9 C 15,6 C 95 % 1011,4 hPa 0,0 l/m 6,3 km/h (2 Bft) S-SW 209 0 min 0,000 mm 0,0 UV-I 121 W/m 9,1 C 9,9 C 9,7 km/h (2 Bft) 95,74 %
08.05.2017 17:14 9,9 C 15,6 C 95 % 1011,5 hPa 0,0 l/m 8,8 km/h (2 Bft) SW 234 0 min 0,000 mm 0,1 UV-I 125 W/m 9,1 C 8,2 C 14,5 km/h (3 Bft) 100,00 %
08.05.2017 17:16 9,9 C 15,6 C 95 % 1011,6 hPa 0,0 l/m 7,2 km/h (2 Bft) W-SW 239 0 min 0,000 mm 0,3 UV-I 126 W/m 9,1 C 9,3 C 11,3 km/h (2 Bft) 100,00 %
08.05.2017 17:18 9,9 C 15,6 C 95 % 1011,6 hPa 0,0 l/m 9,7 km/h (2 Bft) W-SW 247 0 min 0,000 mm 0,0 UV-I 121 W/m 9,1 C 7,7 C 12,9 km/h (3 Bft) 95,74 %
08.05.2017 17:20 9,9 C 15,6 C 95 % 1011,6 hPa 0,0 l/m 7,7 km/h (2 Bft) SW 226 0 min 0,000 mm 0,0 UV-I 116 W/m 9,1 C 9,0 C 11,3 km/h (2 Bft) 94,59 %
08.05.2017 17:22 10,0 C 15,6 C 95 % 1011,6 hPa 0,0 l/m 9,8 km/h (2 Bft) SW 223 0 min 0,000 mm 0,0 UV-I 111 W/m 9,2 C 7,7 C 12,9 km/h (3 Bft) 97,87 %
08.05.2017 17:24 10,0 C 15,6 C 95 % 1011,6 hPa 0,0 l/m 10,8 km/h (2 Bft) W-SW 238 0 min 0,000 mm 0,0 UV-I 110 W/m 9,2 C 7,1 C 16,1 km/h (3 Bft) 100,00 %
08.05.2017 17:26 10,0 C 15,6 C 95 % 1011,6 hPa 0,0 l/m 8,4 km/h (2 Bft) SW 221 0 min 0,000 mm 0,0 UV-I 112 W/m 9,2 C 8,6 C 14,5 km/h (3 Bft) 93,62 %
08.05.2017 17:28 10,1 C 15,6 C 94 % 1011,6 hPa 0,0 l/m 9,9 km/h (2 Bft) W-SW 244 0 min 0,000 mm 0,0 UV-I 114 W/m 9,2 C 7,8 C 14,5 km/h (3 Bft) 95,74 %
08.05.2017 17:30 10,1 C 15,6 C 94 % 1011,6 hPa 0,0 l/m 6,9 km/h (2 Bft) SW 235 0 min 0,000 mm 0,0 UV-I 115 W/m 9,2 C 9,7 C 12,9 km/h (3 Bft) 97,87 %
08.05.2017 17:32 10,2 C 15,6 C 94 % 1011,6 hPa 0,0 l/m 7,8 km/h (2 Bft) W-SW 244 0 min 0,000 mm 0,0 UV-I 116 W/m 9,3 C 9,2 C 11,3 km/h (2 Bft) 97,87 %
08.05.2017 17:34 10,2 C 15,6 C 94 % 1011,6 hPa 0,0 l/m 8,5 km/h (2 Bft) W-SW 242 0 min 0,000 mm 0,0 UV-I 115 W/m 9,3 C 8,7 C 14,5 km/h (3 Bft) 92,00 %
08.05.2017 17:36 10,2 C 15,6 C 94 % 1011,6 hPa 0,0 l/m 6,7 km/h (2 Bft) SW 229 0 min 0,000 mm 0,0 UV-I 113 W/m 9,3 C 10,0 C 12,9 km/h (3 Bft) 95,74 %
08.05.2017 17:38 10,2 C 15,6 C 94 % 1011,6 hPa 0,0 l/m 6,7 km/h (2 Bft) S-SW 208 0 min 0,000 mm 0,0 UV-I 113 W/m 9,3 C 10,0 C 9,7 km/h (2 Bft) 97,87 %
08.05.2017 17:40 10,3 C 15,6 C 94 % 1011,6 hPa 0,0 l/m 6,7 km/h (2 Bft) W-SW 246 0 min 0,000 mm 0,0 UV-I 108 W/m 9,4 C 10,1 C 11,3 km/h (2 Bft) 95,74 %
08.05.2017 17:42 10,2 C 15,6 C 94 % 1011,6 hPa 0,0 l/m 6,2 km/h (2 Bft) W-SW 237 0 min 0,000 mm 0,0 UV-I 89 W/m 9,3 C 10,2 C 11,3 km/h (2 Bft) 100,00 %
08.05.2017 17:44 10,2 C 15,6 C 94 % 1011,6 hPa 0,0 l/m 10,0 km/h (2 Bft) SW 229 0 min 0,000 mm 0,0 UV-I 70 W/m 9,3 C 7,8 C 16,1 km/h (3 Bft) 100,00 %
08.05.2017 17:46 10,2 C 15,6 C 94 % 1011,6 hPa 0,0 l/m 7,4 km/h (2 Bft) W-SW 250 0 min 0,000 mm 0,0 UV-I 55 W/m 9,3 C 9,5 C 11,3 km/h (2 Bft) 100,00 %
08.05.2017 17:48 10,2 C 15,6 C 94 % 1011,7 hPa 0,0 l/m 7,9 km/h (2 Bft) W-SW 254 0 min 0,000 mm 0,0 UV-I 49 W/m 9,3 C 9,1 C 14,5 km/h (3 Bft) 100,00 %
08.05.2017 17:50 10,2 C 15,6 C 94 % 1011,7 hPa 0,0 l/m 10,3 km/h (2 Bft) W-SW 242 0 min 0,000 mm 0,0 UV-I 47 W/m 9,3 C 7,6 C 16,1 km/h (3 Bft) 98,00 %
08.05.2017 17:52 10,2 C 15,6 C 94 % 1011,7 hPa 0,0 l/m 12,5 km/h (3 Bft) W 259 0 min 0,000 mm 0,0 UV-I 49 W/m 9,3 C 6,5 C 19,3 km/h (3 Bft) 93,62 %
08.05.2017 17:54 10,1 C 15,6 C 94 % 1011,7 hPa 0,0 l/m 8,3 km/h (2 Bft) W-SW 242 0 min 0,000 mm 0,0 UV-I 54 W/m 9,2 C 8,8 C 14,5 km/h (3 Bft) 97,87 %
08.05.2017 17:56 10,1 C 15,6 C 94 % 1011,7 hPa 0,0 l/m 8,4 km/h (2 Bft) SW 227 0 min 0,000 mm 0,0 UV-I 58 W/m 9,2 C 8,7 C 12,9 km/h (3 Bft) 97,87 %
08.05.2017 17:58 10,1 C 15,6 C 94 % 1011,7 hPa 0,0 l/m 9,1 km/h (2 Bft) NW 311 0 min 0,000 mm 0,0 UV-I 58 W/m 9,2 C 8,2 C 14,5 km/h (3 Bft) 91,89 %
08.05.2017 18:00 10,1 C 15,6 C 94 % 1011,8 hPa 0,0 l/m 10,5 km/h (2 Bft) W 265 0 min 0,000 mm 0,0 UV-I 61 W/m 9,2 C 7,4 C 16,1 km/h (3 Bft) 95,74 %
08.05.2017 18:02 10,1 C 15,6 C 94 % 1011,8 hPa 0,0 l/m 12,3 km/h (3 Bft) SW 217 0 min 0,051 mm 0,0 UV-I 63 W/m 9,2 C 6,5 C 17,7 km/h (3 Bft) 96,00 %
08.05.2017 18:04 10,1 C 15,6 C 94 % 1011,9 hPa 0,0 l/m 12,0 km/h (2 Bft) W-SW 252 0 min 0,000 mm 0,0 UV-I 61 W/m 9,2 C 6,6 C 22,5 km/h (4 Bft) 91,49 %
08.05.2017 18:06 10,0 C 15,6 C 94 % 1011,9 hPa 0,0 l/m 13,7 km/h (3 Bft) SW 229 0 min 0,000 mm 0,0 UV-I 56 W/m 9,1 C 5,7 C 17,7 km/h (3 Bft) 93,62 %
08.05.2017 18:09 10,0 C 15,6 C 94 % 1011,9 hPa 0,0 l/m 14,3 km/h (3 Bft) W-SW 255 0 min 0,000 mm 0,0 UV-I 49 W/m 9,1 C 5,4 C 22,5 km/h (4 Bft) 95,83 %
08.05.2017 18:10 9,9 C 15,6 C 94 % 1011,9 hPa 0,0 l/m 8,3 km/h (2 Bft) W 266 0 min 0,000 mm 0,0 UV-I 43 W/m 9,0 C 8,5 C 11,3 km/h (2 Bft) 95,65 %
08.05.2017 18:12 9,9 C 15,6 C 94 % 1012,0 hPa 0,0 l/m 7,6 km/h (2 Bft) W 260 0 min 0,000 mm 0,0 UV-I 39 W/m 9,0 C 9,0 C 14,5 km/h (3 Bft) 89,80 %
08.05.2017 18:14 9,9 C 15,6 C 94 % 1012,0 hPa 0,0 l/m 8,3 km/h (2 Bft) W-SW 240 0 min 0,000 mm 0,0 UV-I 35 W/m 9,0 C 8,5 C 12,9 km/h (3 Bft) 95,74 %
08.05.2017 18:16 9,9 C 15,6 C 94 % 1012,0 hPa 0,0 l/m 7,8 km/h (2 Bft) W-SW 254 0 min 0,000 mm 0,0 UV-I 30 W/m 9,0 C 8,9 C 11,3 km/h (2 Bft) 95,74 %
08.05.2017 18:18 9,9 C 15,6 C 94 % 1012,0 hPa 0,0 l/m 5,4 km/h (1 Bft) SW 236 0 min 0,000 mm 0,0 UV-I 28 W/m 9,0 C 9,9 C 6,4 km/h (2 Bft) 95,74 %
08.05.2017 18:20 9,9 C 15,6 C 94 % 1012,0 hPa 0,0 l/m 5,6 km/h (1 Bft) SW 214 0 min 0,000 mm 0,0 UV-I 26 W/m 9,0 C 9,9 C 8,0 km/h (2 Bft) 94,00 %
08.05.2017 18:23 9,9 C 15,6 C 94 % 1012,0 hPa 0,0 l/m 8,0 km/h (2 Bft) S-SW 203 0 min 0,000 mm 0,0 UV-I 24 W/m 9,0 C 8,7 C 12,9 km/h (3 Bft) 97,18 %
08.05.2017 18:24 9,9 C 15,6 C 94 % 1012,0 hPa 0,0 l/m 6,4 km/h (2 Bft) S-SW 196 0 min 0,000 mm 0,0 UV-I 21 W/m 9,0 C 9,9 C 9,7 km/h (2 Bft) 100,00 %
08.05.2017 18:26 9,9 C 15,6 C 94 % 1012,0 hPa 0,0 l/m 7,3 km/h (2 Bft) SW 220 0 min 0,000 mm 0,0 UV-I 21 W/m 9,0 C 9,2 C 11,3 km/h (2 Bft) 95,74 %
08.05.2017 18:28 9,9 C 15,6 C 94 % 1012,0 hPa 0,0 l/m 5,5 km/h (1 Bft) SW 218 0 min 0,000 mm 0,0 UV-I 21 W/m 9,0 C 9,9 C 8,0 km/h (2 Bft) 87,23 %
08.05.2017 18:30 9,9 C 15,6 C 94 % 1011,9 hPa 0,0 l/m 6,8 km/h (2 Bft) S-SW 213 0 min 0,000 mm 0,0 UV-I 20 W/m 9,0 C 9,6 C 11,3 km/h (2 Bft) 97,87 %
08.05.2017 18:32 9,9 C 15,6 C 94 % 1011,9 hPa 0,0 l/m 6,8 km/h (2 Bft) S-SW 203 0 min 0,000 mm 0,0 UV-I 19 W/m 9,0 C 9,6 C 9,7 km/h (2 Bft) 100,00 %
08.05.2017 18:34 9,9 C 15,6 C 94 % 1011,9 hPa 0,0 l/m 5,3 km/h (1 Bft) S-SW 197 0 min 0,000 mm 0,0 UV-I 19 W/m 9,0 C 9,9 C 8,0 km/h (2 Bft) 92,00 %
08.05.2017 18:36 9,9 C 15,6 C 94 % 1011,9 hPa 0,0 l/m 5,5 km/h (1 Bft) S-SW 211 0 min 0,000 mm 0,0 UV-I 19 W/m 9,0 C 9,9 C 9,7 km/h (2 Bft) 95,74 %
08.05.2017 18:38 9,9 C 15,6 C 94 % 1012,0 hPa 0,0 l/m 4,2 km/h (1 Bft) SW 221 0 min 0,000 mm 0,0 UV-I 18 W/m 9,0 C 9,9 C 8,0 km/h (2 Bft) 100,00 %
08.05.2017 18:40 9,9 C 15,6 C 94 % 1011,9 hPa 0,0 l/m 5,9 km/h (2 Bft) S-SW 211 0 min 0,000 mm 0,0 UV-I 18 W/m 9,0 C 9,9 C 9,7 km/h (2 Bft) 98,00 %
08.05.2017 18:42 9,9 C 15,6 C 94 % 1011,9 hPa 0,0 l/m 7,4 km/h (2 Bft) S 186 0 min 0,000 mm 0,0 UV-I 16 W/m 9,0 C 9,2 C 11,3 km/h (2 Bft) 94,00 %
08.05.2017 18:44 9,8 C 15,6 C 94 % 1011,9 hPa 0,0 l/m 7,8 km/h (2 Bft) SW 219 0 min 0,000 mm 0,0 UV-I 16 W/m 8,9 C 8,8 C 11,3 km/h (2 Bft) 95,74 %
08.05.2017 18:46 9,8 C 15,6 C 94 % 1011,9 hPa 0,0 l/m 7,0 km/h (2 Bft) SW 230 0 min 0,000 mm 0,0 UV-I 16 W/m 8,9 C 9,4 C 12,9 km/h (3 Bft) 97,87 %
08.05.2017 18:48 9,8 C 15,6 C 94 % 1011,9 hPa 0,0 l/m 8,8 km/h (2 Bft) SW 224 0 min 0,000 mm 0,0 UV-I 14 W/m 8,9 C 8,1 C 16,1 km/h (3 Bft) 94,29 %
08.05.2017 18:50 9,8 C 15,6 C 94 % 1011,9 hPa 0,0 l/m 8,6 km/h (2 Bft) S-SW 205 0 min 0,000 mm 0,0 UV-I 12 W/m 8,9 C 8,2 C 12,9 km/h (3 Bft) 95,74 %
08.05.2017 18:52 9,8 C 15,6 C 94 % 1011,9 hPa 0,2 l/m 8,5 km/h (2 Bft) S-SW 212 0 min 0,000 mm 0,0 UV-I 12 W/m 8,9 C 8,3 C 12,9 km/h (3 Bft) 95,83 %
08.05.2017 18:54 9,8 C 15,6 C 94 % 1011,8 hPa 0,2 l/m 9,9 km/h (2 Bft) S-SW 205 0 min 0,000 mm 0,0 UV-I 12 W/m 8,9 C 7,4 C 17,7 km/h (3 Bft) 97,87 %
08.05.2017 18:56 9,8 C 15,6 C 94 % 1011,8 hPa 0,2 l/m 10,5 km/h (2 Bft) S-SW 207 0 min 0,000 mm 0,0 UV-I 11 W/m 8,9 C 7,1 C 14,5 km/h (3 Bft) 97,87 %
08.05.2017 18:58 9,8 C 15,6 C 94 % 1011,8 hPa 0,0 l/m 8,6 km/h (2 Bft) SW 224 0 min 0,000 mm 0,0 UV-I 9 W/m 8,9 C 8,2 C 14,5 km/h (3 Bft) 98,00 %
08.05.2017 19:00 9,8 C 15,6 C 95 % 1011,8 hPa 0,0 l/m 8,9 km/h (2 Bft) S-SW 202 0 min 0,000 mm 0,0 UV-I 11 W/m 9,0 C 8,0 C 14,5 km/h (3 Bft) 100,00 %
08.05.2017 19:02 9,8 C 15,6 C 95 % 1011,8 hPa 0,2 l/m 10,3 km/h (2 Bft) SW 219 0 min 0,025 mm 0,0 UV-I 14 W/m 9,0 C 7,2 C 17,7 km/h (3 Bft) 95,74 %
08.05.2017 19:04 9,8 C 15,6 C 95 % 1011,7 hPa 0,0 l/m 9,0 km/h (2 Bft) S-SW 203 0 min 0,000 mm 0,0 UV-I 15 W/m 9,0 C 8,0 C 16,1 km/h (3 Bft) 100,00 %
08.05.2017 19:06 9,8 C 15,6 C 95 % 1011,7 hPa 0,2 l/m 12,3 km/h (3 Bft) S-SW 198 0 min 0,000 mm 0,0 UV-I 16 W/m 9,0 C 6,1 C 20,9 km/h (4 Bft) 95,83 %
08.05.2017 19:08 9,8 C 15,6 C 95 % 1011,6 hPa 0,0 l/m 10,3 km/h (2 Bft) S-SW 205 0 min 0,000 mm 0,0 UV-I 14 W/m 9,0 C 7,2 C 16,1 km/h (3 Bft) 100,00 %
08.05.2017 19:10 9,8 C 15,6 C 95 % 1011,7 hPa 0,2 l/m 9,3 km/h (2 Bft) S-SW 203 0 min 0,000 mm 0,0 UV-I 15 W/m 9,0 C 7,8 C 12,9 km/h (3 Bft) 98,00 %
08.05.2017 19:12 9,8 C 15,6 C 95 % 1011,8 hPa 0,2 l/m 9,8 km/h (2 Bft) S-SW 199 0 min 0,000 mm 0,0 UV-I 14 W/m 9,0 C 7,5 C 14,5 km/h (3 Bft) 97,37 %
08.05.2017 19:14 9,8 C 15,6 C 95 % 1011,8 hPa 0,0 l/m 12,2 km/h (2 Bft) S-SW 208 0 min 0,000 mm 0,0 UV-I 11 W/m 9,0 C 6,2 C 16,1 km/h (3 Bft) 96,23 %
08.05.2017 19:16 9,8 C 15,6 C 95 % 1011,8 hPa 0,0 l/m 8,6 km/h (2 Bft) S-SW 207 0 min 0,000 mm 0,0 UV-I 11 W/m 9,0 C 8,2 C 16,1 km/h (3 Bft) 95,74 %
08.05.2017 19:18 9,8 C 15,6 C 95 % 1011,7 hPa 0,0 l/m 7,8 km/h (2 Bft) S-SW 192 0 min 0,000 mm 0,0 UV-I 11 W/m 9,0 C 8,8 C 11,3 km/h (2 Bft) 93,62 %
08.05.2017 19:20 9,8 C 15,6 C 95 % 1011,8 hPa 0,2 l/m 7,5 km/h (2 Bft) W-SW 242 0 min 0,000 mm 0,0 UV-I 12 W/m 9,0 C 9,0 C 11,3 km/h (2 Bft) 96,00 %
08.05.2017 19:22 9,8 C 15,6 C 95 % 1011,7 hPa 0,0 l/m 12,5 km/h (3 Bft) S-SW 211 0 min 0,000 mm 0,0 UV-I 13 W/m 9,0 C 6,0 C 20,9 km/h (4 Bft) 97,87 %
08.05.2017 19:24 9,8 C 15,6 C 95 % 1011,8 hPa 0,2 l/m 11,2 km/h (2 Bft) SW 215 0 min 0,000 mm 0,0 UV-I 14 W/m 9,0 C 6,7 C 22,5 km/h (4 Bft) 97,14 %
08.05.2017 19:26 9,9 C 15,6 C 96 % 1011,8 hPa 0,0 l/m 11,3 km/h (2 Bft) W-SW 249 0 min 0,000 mm 0,0 UV-I 11 W/m 9,3 C 6,8 C 17,7 km/h (3 Bft) 96,23 %
08.05.2017 19:28 9,9 C 15,6 C 96 % 1011,8 hPa 0,0 l/m 12,2 km/h (2 Bft) SW 229 0 min 0,000 mm 0,0 UV-I 11 W/m 9,3 C 6,3 C 25,7 km/h (4 Bft) 95,74 %
08.05.2017 19:30 9,9 C 15,6 C 96 % 1011,8 hPa 0,2 l/m 14,4 km/h (3 Bft) SW 232 0 min 0,000 mm 0,0 UV-I 10 W/m 9,3 C 5,3 C 22,5 km/h (4 Bft) 91,49 %
08.05.2017 19:32 10,0 C 15,6 C 96 % 1011,9 hPa 0,0 l/m 15,8 km/h (3 Bft) W-SW 248 0 min 0,000 mm 0,0 UV-I 11 W/m 9,4 C 4,8 C 30,6 km/h (5 Bft) 93,62 %
08.05.2017 19:34 10,1 C 15,6 C 96 % 1011,9 hPa 0,0 l/m 11,8 km/h (2 Bft) W-SW 253 0 min 0,000 mm 0,0 UV-I 7 W/m 9,5 C 6,7 C 22,5 km/h (4 Bft) 93,62 %
08.05.2017 19:36 10,1 C 15,6 C 96 % 1012,0 hPa 0,2 l/m 12,1 km/h (2 Bft) SW 229 0 min 0,000 mm 0,0 UV-I 7 W/m 9,5 C 6,6 C 17,7 km/h (3 Bft) 93,62 %
08.05.2017 19:38 10,2 C 15,6 C 95 % 1012,0 hPa 0,0 l/m 11,2 km/h (2 Bft) SW 227 0 min 0,000 mm 0,0 UV-I 5 W/m 9,4 C 7,2 C 16,1 km/h (3 Bft) 98,00 %
08.05.2017 19:40 10,2 C 15,6 C 96 % 1012,0 hPa 0,0 l/m 11,1 km/h (2 Bft) W-SW 244 0 min 0,000 mm 0,0 UV-I 7 W/m 9,6 C 7,2 C 19,3 km/h (3 Bft) 95,74 %
08.05.2017 19:42 10,2 C 15,6 C 96 % 1012,0 hPa 0,0 l/m 7,8 km/h (2 Bft) W-SW 238 0 min 0,000 mm 0,0 UV-I 8 W/m 9,6 C 9,2 C 16,1 km/h (3 Bft) 97,87 %
08.05.2017 19:44 10,2 C 15,6 C 96 % 1012,1 hPa 0,2 l/m 11,3 km/h (2 Bft) W 262 0 min 0,000 mm 0,0 UV-I 10 W/m 9,6 C 7,1 C 17,7 km/h (3 Bft) 95,74 %
08.05.2017 19:46 10,2 C 15,6 C 96 % 1012,1 hPa 0,2 l/m 15,2 km/h (3 Bft) W 263 0 min 0,000 mm 0,0 UV-I 9 W/m 9,6 C 5,3 C 24,1 km/h (4 Bft) 97,22 %
08.05.2017 19:48 10,1 C 15,6 C 95 % 1012,2 hPa 0,0 l/m 12,0 km/h (2 Bft) W 261 0 min 0,000 mm 0,0 UV-I 10 W/m 9,3 C 6,6 C 20,9 km/h (4 Bft) 96,00 %
08.05.2017 19:50 10,1 C 15,6 C 95 % 1012,2 hPa 0,0 l/m 10,8 km/h (2 Bft) W-SW 256 0 min 0,000 mm 0,0 UV-I 8 W/m 9,3 C 7,3 C 17,7 km/h (3 Bft) 96,00 %
08.05.2017 19:52 10,0 C 15,6 C 95 % 1012,2 hPa 0,2 l/m 12,4 km/h (3 Bft) W-SW 239 0 min 0,000 mm 0,0 UV-I 8 W/m 9,2 C 6,3 C 25,7 km/h (4 Bft) 90,00 %
08.05.2017 19:54 10,0 C 15,6 C 95 % 1012,3 hPa 0,2 l/m 11,2 km/h (2 Bft) W-SW 251 0 min 0,000 mm 0,0 UV-I 9 W/m 9,2 C 6,9 C 22,5 km/h (4 Bft) 94,00 %
08.05.2017 19:56 9,9 C 15,6 C 95 % 1012,3 hPa 0,0 l/m 11,2 km/h (2 Bft) NW 323 0 min 0,000 mm 0,0 UV-I 9 W/m 9,1 C 6,8 C 19,3 km/h (3 Bft) 95,74 %
08.05.2017 19:58 9,9 C 15,6 C 95 % 1012,4 hPa 0,0 l/m 12,7 km/h (3 Bft) W-NW 290 0 min 0,000 mm 0,0 UV-I 9 W/m 9,1 C 6,1 C 20,9 km/h (4 Bft) 93,62 %
08.05.2017 20:00 9,9 C 15,6 C 95 % 1012,5 hPa 0,2 l/m 7,9 km/h (2 Bft) W-SW 248 0 min 0,000 mm 0,0 UV-I 8 W/m 9,1 C 8,8 C 14,5 km/h (3 Bft) 89,19 %
08.05.2017 20:02 9,8 C 15,6 C 95 % 1012,5 hPa 0,2 l/m 8,7 km/h (2 Bft) W-NW 284 0 min 0,000 mm 0,0 UV-I 7 W/m 9,0 C 8,2 C 20,9 km/h (4 Bft) 93,62 %
08.05.2017 20:04 9,8 C 15,6 C 95 % 1012,5 hPa 0,0 l/m 11,6 km/h (2 Bft) W 262 0 min 0,000 mm 0,0 UV-I 7 W/m 9,0 C 6,5 C 19,3 km/h (3 Bft) 93,62 %
08.05.2017 20:06 9,8 C 15,6 C 96 % 1012,5 hPa 0,0 l/m 12,3 km/h (3 Bft) W-SW 255 0 min 0,000 mm 0,0 UV-I 7 W/m 9,2 C 6,1 C 19,3 km/h (3 Bft) 93,62 %
08.05.2017 20:08 9,8 C 15,6 C 96 % 1012,5 hPa 0,2 l/m 8,2 km/h (2 Bft) W 263 0 min 0,000 mm 0,0 UV-I 5 W/m 9,2 C 8,5 C 12,9 km/h (3 Bft) 95,74 %
08.05.2017 20:10 9,8 C 15,6 C 95 % 1012,5 hPa 0,0 l/m 10,5 km/h (2 Bft) W 265 0 min 0,000 mm 0,0 UV-I 5 W/m 9,0 C 7,1 C 19,3 km/h (3 Bft) 91,49 %
08.05.2017 20:12 9,7 C 15,6 C 95 % 1012,5 hPa 0,2 l/m 13,6 km/h (3 Bft) SW 233 0 min 0,000 mm 0,0 UV-I 5 W/m 8,9 C 5,4 C 25,7 km/h (4 Bft) 91,49 %
08.05.2017 20:14 9,7 C 15,6 C 95 % 1012,6 hPa 0,0 l/m 12,2 km/h (2 Bft) W-SW 255 0 min 0,000 mm 0,0 UV-I 4 W/m 8,9 C 6,1 C 22,5 km/h (4 Bft) 95,74 %
08.05.2017 20:16 9,7 C 15,6 C 96 % 1012,6 hPa 0,2 l/m 10,4 km/h (2 Bft) W 279 0 min 0,000 mm 0,0 UV-I 0 W/m 9,1 C 7,0 C 16,1 km/h (3 Bft) 91,49 %
08.05.2017 20:18 9,7 C 15,6 C 96 % 1012,6 hPa 0,0 l/m 7,7 km/h (2 Bft) W-SW 257 0 min 0,000 mm 0,0 UV-I 0 W/m 9,1 C 8,7 C 12,9 km/h (3 Bft) 97,87 %
08.05.2017 20:20 9,7 C 15,6 C 96 % 1012,7 hPa 0,2 l/m 8,6 km/h (2 Bft) W-SW 254 0 min 0,000 mm 0,0 UV-I 0 W/m 9,1 C 8,1 C 14,5 km/h (3 Bft) 93,62 %
08.05.2017 20:22 9,7 C 15,6 C 96 % 1012,6 hPa 0,0 l/m 10,6 km/h (2 Bft) W 265 0 min 0,000 mm 0,0 UV-I 0 W/m 9,1 C 6,9 C 17,7 km/h (3 Bft) 97,92 %
08.05.2017 20:24 9,7 C 15,6 C 96 % 1012,7 hPa 0,0 l/m 9,4 km/h (2 Bft) W-SW 248 0 min 0,000 mm 0,0 UV-I 0 W/m 9,1 C 7,6 C 16,1 km/h (3 Bft) 97,92 %
08.05.2017 20:26 9,7 C 15,6 C 96 % 1012,7 hPa 0,2 l/m 9,1 km/h (2 Bft) W-SW 252 0 min 0,000 mm 0,0 UV-I 0 W/m 9,1 C 7,8 C 12,9 km/h (3 Bft) 100,00 %
08.05.2017 20:28 9,7 C 15,6 C 96 % 1012,7 hPa 0,0 l/m 9,9 km/h (2 Bft) W-SW 250 0 min 0,000 mm 0,0 UV-I 0 W/m 9,1 C 7,3 C 14,5 km/h (3 Bft) 97,87 %
08.05.2017 20:30 9,7 C 15,6 C 96 % 1012,7 hPa 0,2 l/m 10,8 km/h (2 Bft) SW 226 0 min 0,000 mm 0,0 UV-I 0 W/m 9,1 C 6,8 C 16,1 km/h (3 Bft) 100,00 %
08.05.2017 20:32 9,7 C 15,6 C 96 % 1012,7 hPa 0,2 l/m 8,5 km/h (2 Bft) W-SW 244 0 min 0,000 mm 0,0 UV-I 0 W/m 9,1 C 8,2 C 11,3 km/h (2 Bft) 98,39 %
08.05.2017 20:34 9,7 C 15,6 C 96 % 1012,7 hPa 0,0 l/m 8,4 km/h (2 Bft) W-SW 253 0 min 0,000 mm 0,0 UV-I 0 W/m 9,1 C 8,3 C 12,9 km/h (3 Bft) 97,87 %
08.05.2017 20:36 9,7 C 15,6 C 96 % 1012,8 hPa 0,2 l/m 10,7 km/h (2 Bft) W-SW 248 0 min 0,000 mm 0,0 UV-I 0 W/m 9,1 C 6,9 C 19,3 km/h (3 Bft) 98,00 %
08.05.2017 20:38 9,7 C 15,6 C 96 % 1012,9 hPa 0,0 l/m 5,8 km/h (2 Bft) W-SW 241 0 min 0,000 mm 0,0 UV-I 0 W/m 9,1 C 9,7 C 9,7 km/h (2 Bft) 97,87 %
08.05.2017 20:40 9,7 C 15,6 C 96 % 1012,9 hPa 0,2 l/m 6,5 km/h (2 Bft) W-SW 254 0 min 0,000 mm 0,0 UV-I 0 W/m 9,1 C 9,7 C 11,3 km/h (2 Bft) 100,00 %
08.05.2017 20:42 9,7 C 15,6 C 96 % 1012,9 hPa 0,2 l/m 6,3 km/h (2 Bft) W-SW 252 0 min 0,000 mm 0,0 UV-I 0 W/m 9,1 C 9,7 C 11,3 km/h (2 Bft) 100,00 %
08.05.2017 20:44 9,7 C 15,6 C 96 % 1012,9 hPa 0,0 l/m 7,6 km/h (2 Bft) W 261 0 min 0,000 mm 0,0 UV-I 0 W/m 9,1 C 8,8 C 11,3 km/h (2 Bft) 97,37 %
08.05.2017 20:46 9,7 C 15,6 C 96 % 1013,0 hPa 0,2 l/m 7,0 km/h (2 Bft) W 267 0 min 0,000 mm 0,0 UV-I 0 W/m 9,1 C 9,3 C 11,3 km/h (2 Bft) 100,00 %
08.05.2017 20:48 9,7 C 15,6 C 96 % 1013,0 hPa 0,2 l/m 10,7 km/h (2 Bft) W 263 0 min 0,000 mm 0,0 UV-I 0 W/m 9,1 C 6,9 C 14,5 km/h (3 Bft) 98,00 %
08.05.2017 20:50 9,8 C 15,6 C 96 % 1013,0 hPa 0,0 l/m 9,2 km/h (2 Bft) W-SW 252 0 min 0,000 mm 0,0 UV-I 0 W/m 9,2 C 7,9 C 16,1 km/h (3 Bft) 93,62 %
08.05.2017 20:52 9,8 C 15,6 C 96 % 1013,0 hPa 0,2 l/m 8,7 km/h (2 Bft) W-SW 257 0 min 0,000 mm 0,0 UV-I 0 W/m 9,2 C 8,2 C 12,9 km/h (3 Bft) 96,00 %
08.05.2017 20:54 9,8 C 15,6 C 96 % 1013,1 hPa 0,0 l/m 9,2 km/h (2 Bft) W-SW 241 0 min 0,000 mm 0,0 UV-I 0 W/m 9,2 C 7,9 C 14,5 km/h (3 Bft) 98,00 %
08.05.2017 20:56 9,8 C 15,6 C 96 % 1013,1 hPa 0,2 l/m 8,5 km/h (2 Bft) SW 236 0 min 0,000 mm 0,0 UV-I 0 W/m 9,2 C 8,3 C 14,5 km/h (3 Bft) 100,00 %
08.05.2017 20:58 9,8 C 15,6 C 96 % 1013,1 hPa 0,2 l/m 10,0 km/h (2 Bft) W-SW 257 0 min 0,000 mm 0,0 UV-I 0 W/m 9,2 C 7,4 C 14,5 km/h (3 Bft) 97,87 %
08.05.2017 21:00 9,8 C 15,6 C 96 % 1013,1 hPa 0,0 l/m 10,5 km/h (2 Bft) S 190 0 min 0,000 mm 0,0 UV-I 0 W/m 9,2 C 7,1 C 16,1 km/h (3 Bft) 95,83 %
08.05.2017 21:02 9,8 C 15,6 C 96 % 1013,1 hPa 0,2 l/m 11,4 km/h (2 Bft) S-SW 212 0 min 0,000 mm 0,0 UV-I 0 W/m 9,2 C 6,6 C 19,3 km/h (3 Bft) 100,00 %
08.05.2017 21:04 9,8 C 15,6 C 96 % 1013,1 hPa 0,0 l/m 12,4 km/h (3 Bft) SW 221 0 min 0,000 mm 0,0 UV-I 0 W/m 9,2 C 6,1 C 17,7 km/h (3 Bft) 97,87 %
08.05.2017 21:06 9,8 C 15,6 C 96 % 1013,2 hPa 0,2 l/m 11,8 km/h (2 Bft) SW 230 0 min 0,000 mm 0,0 UV-I 0 W/m 9,2 C 6,4 C 19,3 km/h (3 Bft) 97,96 %
08.05.2017 21:08 9,8 C 15,6 C 96 % 1013,2 hPa 0,2 l/m 10,2 km/h (2 Bft) S-SW 201 0 min 0,000 mm 0,0 UV-I 0 W/m 9,2 C 7,3 C 16,1 km/h (3 Bft) 100,00 %
08.05.2017 21:10 9,9 C 15,6 C 96 % 1013,2 hPa 0,0 l/m 12,2 km/h (2 Bft) W 267 0 min 0,000 mm 0,0 UV-I 0 W/m 9,3 C 6,3 C 19,3 km/h (3 Bft) 95,74 %
08.05.2017 21:12 9,9 C 15,6 C 96 % 1013,2 hPa 0,2 l/m 11,9 km/h (2 Bft) W-SW 242 0 min 0,000 mm 0,0 UV-I 0 W/m 9,3 C 6,4 C 16,1 km/h (3 Bft) 93,62 %
08.05.2017 21:14 9,9 C 15,6 C 96 % 1013,3 hPa 0,2 l/m 9,1 km/h (2 Bft) S-SW 208 0 min 0,000 mm 0,0 UV-I 0 W/m 9,3 C 8,0 C 14,5 km/h (3 Bft) 100,00 %
08.05.2017 21:16 9,8 C 15,6 C 96 % 1013,2 hPa 0,0 l/m 13,4 km/h (3 Bft) SW 221 0 min 0,000 mm 0,0 UV-I 0 W/m 9,2 C 5,6 C 25,7 km/h (4 Bft) 97,87 %
08.05.2017 21:18 9,8 C 15,0 C 96 % 1013,3 hPa 0,2 l/m 13,6 km/h (3 Bft) W-SW 252 0 min 0,000 mm 0,0 UV-I 0 W/m 9,2 C 5,5 C 20,9 km/h (4 Bft) 100,00 %
08.05.2017 21:20 9,8 C 15,0 C 96 % 1013,3 hPa 0,2 l/m 15,1 km/h (3 Bft) W-SW 242 0 min 0,000 mm 0,0 UV-I 0 W/m 9,2 C 4,8 C 25,7 km/h (4 Bft) 100,00 %
08.05.2017 21:22 9,8 C 15,6 C 96 % 1013,3 hPa 0,0 l/m 16,0 km/h (3 Bft) SW 229 0 min 0,000 mm 0,0 UV-I 0 W/m 9,2 C 4,5 C 27,4 km/h (4 Bft) 100,00 %
08.05.2017 21:24 9,7 C 15,0 C 96 % 1013,3 hPa 0,2 l/m 16,1 km/h (3 Bft) SW 223 0 min 0,000 mm 0,0 UV-I 0 W/m 9,1 C 4,3 C 22,5 km/h (4 Bft) 100,00 %
08.05.2017 21:26 9,7 C 15,0 C 96 % 1013,4 hPa 0,2 l/m 14,2 km/h (3 Bft) W-SW 245 0 min 0,000 mm 0,0 UV-I 0 W/m 9,1 C 5,1 C 19,3 km/h (3 Bft) 98,00 %
08.05.2017 21:28 9,7 C 15,0 C 96 % 1013,5 hPa 0,2 l/m 14,6 km/h (3 Bft) SW 236 0 min 0,000 mm 0,0 UV-I 0 W/m 9,1 C 4,9 C 20,9 km/h (4 Bft) 97,87 %
08.05.2017 21:30 9,7 C 15,0 C 96 % 1013,4 hPa 0,2 l/m 13,6 km/h (3 Bft) SW 231 0 min 0,000 mm 0,0 UV-I 0 W/m 9,1 C 5,4 C 22,5 km/h (4 Bft) 100,00 %
08.05.2017 21:32 9,7 C 15,0 C 96 % 1013,4 hPa 0,0 l/m 11,8 km/h (2 Bft) W 269 0 min 0,000 mm 0,0 UV-I 0 W/m 9,1 C 6,3 C 19,3 km/h (3 Bft) 97,87 %
08.05.2017 21:34 9,7 C 15,6 C 96 % 1013,4 hPa 0,0 l/m 12,2 km/h (2 Bft) W-SW 257 0 min 0,000 mm 0,0 UV-I 0 W/m 9,1 C 6,1 C 19,3 km/h (3 Bft) 100,00 %
08.05.2017 21:36 9,7 C 15,0 C 96 % 1013,4 hPa 0,2 l/m 12,0 km/h (2 Bft) W-SW 244 0 min 0,000 mm 0,0 UV-I 0 W/m 9,1 C 6,2 C 19,3 km/h (3 Bft) 97,87 %
08.05.2017 21:38 9,7 C 15,0 C 96 % 1013,4 hPa 0,2 l/m 13,4 km/h (3 Bft) W-SW 250 0 min 0,000 mm 0,0 UV-I 0 W/m 9,1 C 5,5 C 22,5 km/h (4 Bft) 97,22 %
08.05.2017 21:40 9,7 C 15,0 C 96 % 1013,5 hPa 0,0 l/m 14,5 km/h (3 Bft) SW 229 0 min 0,000 mm 0,0 UV-I 0 W/m 9,1 C 5,0 C 24,1 km/h (4 Bft) 100,00 %
08.05.2017 21:42 9,7 C 15,0 C 96 % 1013,5 hPa 0,2 l/m 14,2 km/h (3 Bft) W 265 0 min 0,000 mm 0,0 UV-I 0 W/m 9,1 C 5,1 C 22,5 km/h (4 Bft) 97,87 %
08.05.2017 21:44 9,7 C 15,0 C 96 % 1013,5 hPa 0,2 l/m 16,6 km/h (3 Bft) SW 225 0 min 0,000 mm 0,0 UV-I 0 W/m 9,1 C 4,1 C 22,5 km/h (4 Bft) 100,00 %
08.05.2017 21:46 9,6 C 15,0 C 96 % 1013,5 hPa 0,0 l/m 21,9 km/h (4 Bft) W-SW 241 0 min 0,000 mm 0,0 UV-I 0 W/m 9,0 C 2,2 C 37,0 km/h (5 Bft) 100,00 %
08.05.2017 21:48 9,6 C 15,0 C 96 % 1013,4 hPa 0,2 l/m 17,3 km/h (3 Bft) W 262 0 min 0,000 mm 0,0 UV-I 0 W/m 9,0 C 3,7 C 25,7 km/h (4 Bft) 95,74 %
08.05.2017 21:50 9,6 C 15,0 C 96 % 1013,4 hPa 0,2 l/m 12,7 km/h (3 Bft) SW 233 0 min 0,000 mm 0,0 UV-I 0 W/m 9,0 C 5,7 C 24,1 km/h (4 Bft) 100,00 %
08.05.2017 21:52 9,5 C 15,0 C 96 % 1013,5 hPa 0,0 l/m 16,3 km/h (3 Bft) W 259 0 min 0,000 mm 0,0 UV-I 0 W/m 8,9 C 4,0 C 22,5 km/h (4 Bft) 100,00 %
08.05.2017 21:54 9,5 C 15,0 C 96 % 1013,5 hPa 0,2 l/m 17,1 km/h (3 Bft) W-SW 250 0 min 0,000 mm 0,0 UV-I 0 W/m 8,9 C 3,7 C 25,7 km/h (4 Bft) 94,00 %
08.05.2017 21:56 9,5 C 15,0 C 96 % 1013,5 hPa 0,0 l/m 19,1 km/h (3 Bft) W-SW 249 0 min 0,000 mm 0,0 UV-I 0 W/m 8,9 C 2,9 C 25,7 km/h (4 Bft) 93,62 %
08.05.2017 21:58 9,5 C 15,0 C 96 % 1013,6 hPa 0,2 l/m 16,8 km/h (3 Bft) W-SW 250 0 min 0,000 mm 0,0 UV-I 0 W/m 8,9 C 3,8 C 24,1 km/h (4 Bft) 97,87 %
08.05.2017 22:00 9,4 C 15,0 C 96 % 1013,6 hPa 0,2 l/m 18,4 km/h (3 Bft) SW 236 0 min 0,000 mm 0,0 UV-I 0 W/m 8,8 C 3,1 C 29,0 km/h (5 Bft) 97,87 %
08.05.2017 22:03 9,4 C 15,0 C 96 % 1013,7 hPa 0,4 l/m 15,3 km/h (3 Bft) W-SW 243 0 min 0,000 mm 0,0 UV-I 0 W/m 8,8 C 4,3 C 22,5 km/h (4 Bft) 95,77 %
08.05.2017 22:04 9,4 C 15,0 C 95 % 1013,7 hPa 0,2 l/m 11,6 km/h (2 Bft) W 268 0 min 0,000 mm 0,0 UV-I 0 W/m 8,6 C 6,0 C 17,7 km/h (3 Bft) 96,15 %
08.05.2017 22:06 9,4 C 15,0 C 96 % 1013,6 hPa 0,0 l/m 11,4 km/h (2 Bft) W-SW 238 0 min 0,000 mm 0,0 UV-I 0 W/m 8,8 C 6,1 C 17,7 km/h (3 Bft) 94,74 %
08.05.2017 22:08 9,4 C 15,0 C 96 % 1013,6 hPa 0,2 l/m 12,4 km/h (3 Bft) W-SW 239 0 min 0,000 mm 0,0 UV-I 0 W/m 8,8 C 5,6 C 22,5 km/h (4 Bft) 98,00 %
08.05.2017 22:10 9,3 C 15,0 C 96 % 1013,6 hPa 0,2 l/m 18,2 km/h (3 Bft) SW 225 0 min 0,000 mm 0,0 UV-I 0 W/m 8,7 C 3,0 C 27,4 km/h (4 Bft) 96,15 %
08.05.2017 22:12 9,3 C 15,0 C 96 % 1013,5 hPa 0,2 l/m 15,6 km/h (3 Bft) SW 217 0 min 0,000 mm 0,0 UV-I 0 W/m 8,7 C 4,0 C 25,7 km/h (4 Bft) 95,74 %
08.05.2017 22:14 9,3 C 15,0 C 96 % 1013,5 hPa 0,2 l/m 19,8 km/h (3 Bft) W-SW 250 0 min 0,000 mm 0,0 UV-I 0 W/m 8,7 C 2,5 C 25,7 km/h (4 Bft) 97,87 %
08.05.2017 22:16 9,3 C 15,0 C 96 % 1013,5 hPa 0,2 l/m 17,3 km/h (3 Bft) W 278 0 min 0,000 mm 0,0 UV-I 0 W/m 8,7 C 3,3 C 27,4 km/h (4 Bft) 97,87 %
08.05.2017 22:18 9,3 C 15,0 C 96 % 1013,6 hPa 0,2 l/m 15,6 km/h (3 Bft) S-SW 211 0 min 0,000 mm 0,0 UV-I 0 W/m 8,7 C 4,0 C 24,1 km/h (4 Bft) 97,44 %
08.05.2017 22:20 9,3 C 15,0 C 96 % 1013,6 hPa 0,0 l/m 17,8 km/h (3 Bft) S-SW 212 0 min 0,000 mm 0,0 UV-I 0 W/m 8,7 C 3,2 C 29,0 km/h (5 Bft) 95,74 %
08.05.2017 22:22 9,3 C 15,0 C 96 % 1013,6 hPa 0,2 l/m 14,6 km/h (3 Bft) W 261 0 min 0,000 mm 0,0 UV-I 0 W/m 8,7 C 4,5 C 27,4 km/h (4 Bft) 95,74 %
08.05.2017 22:24 9,3 C 15,0 C 96 % 1013,7 hPa 0,2 l/m 14,5 km/h (3 Bft) W-SW 255 0 min 0,000 mm 0,0 UV-I 0 W/m 8,7 C 4,5 C 25,7 km/h (4 Bft) 98,00 %
08.05.2017 22:26 9,3 C 15,0 C 96 % 1013,6 hPa 0,2 l/m 15,4 km/h (3 Bft) W-SW 244 0 min 0,000 mm 0,0 UV-I 0 W/m 8,7 C 4,1 C 24,1 km/h (4 Bft) 95,74 %
08.05.2017 22:28 9,3 C 15,0 C 96 % 1013,6 hPa 0,2 l/m 11,9 km/h (2 Bft) SW 217 0 min 0,000 mm 0,0 UV-I 0 W/m 8,7 C 5,8 C 19,3 km/h (3 Bft) 100,00 %
08.05.2017 22:30 9,2 C 15,0 C 96 % 1013,6 hPa 0,0 l/m 15,4 km/h (3 Bft) W-SW 251 0 min 0,000 mm 0,0 UV-I 0 W/m 8,6 C 4,0 C 20,9 km/h (4 Bft) 100,00 %
08.05.2017 22:33 9,2 C 15,0 C 96 % 1013,5 hPa 0,2 l/m 13,9 km/h (3 Bft) W-SW 238 0 min 0,000 mm 0,0 UV-I 0 W/m 8,6 C 4,7 C 24,1 km/h (4 Bft) 100,00 %
08.05.2017 22:34 9,2 C 15,0 C 96 % 1013,5 hPa 0,0 l/m 14,4 km/h (3 Bft) W-SW 242 0 min 0,000 mm 0,0 UV-I 0 W/m 8,6 C 4,4 C 25,7 km/h (4 Bft) 100,00 %
08.05.2017 22:36 9,2 C 15,0 C 96 % 1013,5 hPa 0,0 l/m 16,5 km/h (3 Bft) W-SW 250 0 min 0,000 mm 0,0 UV-I 0 W/m 8,6 C 3,5 C 20,9 km/h (4 Bft) 100,00 %
08.05.2017 22:38 9,2 C 15,0 C 96 % 1013,6 hPa 0,0 l/m 15,0 km/h (3 Bft) S-SW 192 0 min 0,000 mm 0,0 UV-I 0 W/m 8,6 C 4,2 C 24,1 km/h (4 Bft) 100,00 %
08.05.2017 22:40 9,2 C 15,0 C 96 % 1013,6 hPa 0,0 l/m 13,5 km/h (3 Bft) W 261 0 min 0,000 mm 0,0 UV-I 0 W/m 8,6 C 4,8 C 20,9 km/h (4 Bft) 97,37 %
08.05.2017 22:42 9,2 C 15,0 C 96 % 1013,6 hPa 0,2 l/m 13,0 km/h (3 Bft) SW 221 0 min 0,000 mm 0,0 UV-I 0 W/m 8,6 C 5,1 C 20,9 km/h (4 Bft) 97,87 %
08.05.2017 22:44 9,2 C 15,0 C 96 % 1013,6 hPa 0,0 l/m 17,0 km/h (3 Bft) W 274 0 min 0,000 mm 0,0 UV-I 0 W/m 8,6 C 3,3 C 25,7 km/h (4 Bft) 96,00 %
08.05.2017 22:46 9,2 C 15,0 C 96 % 1013,7 hPa 0,0 l/m 15,0 km/h (3 Bft) W-NW 292 0 min 0,000 mm 0,0 UV-I 0 W/m 8,6 C 4,2 C 20,9 km/h (4 Bft) 100,00 %
08.05.2017 22:48 9,2 C 15,0 C 96 % 1013,6 hPa 0,0 l/m 12,9 km/h (3 Bft) W 259 0 min 0,000 mm 0,0 UV-I 0 W/m 8,6 C 5,1 C 20,9 km/h (4 Bft) 95,74 %
08.05.2017 22:50 9,2 C 15,0 C 96 % 1013,7 hPa 0,0 l/m 14,7 km/h (3 Bft) W-SW 250 0 min 0,000 mm 0,0 UV-I 0 W/m 8,6 C 4,3 C 22,5 km/h (4 Bft) 96,00 %
08.05.2017 22:52 9,2 C 15,0 C 96 % 1013,7 hPa 0,0 l/m 13,0 km/h (3 Bft) W-SW 248 0 min 0,000 mm 0,0 UV-I 0 W/m 8,6 C 5,1 C 20,9 km/h (4 Bft) 100,00 %
08.05.2017 22:54 9,2 C 15,0 C 96 % 1013,8 hPa 0,2 l/m 15,2 km/h (3 Bft) W 259 0 min 0,000 mm 0,0 UV-I 0 W/m 8,6 C 4,1 C 20,9 km/h (4 Bft) 97,87 %
08.05.2017 22:56 9,2 C 15,0 C 96 % 1013,8 hPa 0,2 l/m 15,1 km/h (3 Bft) W-SW 254 0 min 0,000 mm 0,0 UV-I 0 W/m 8,6 C 4,1 C 25,7 km/h (4 Bft) 97,87 %
08.05.2017 22:58 9,2 C 15,0 C 96 % 1013,8 hPa 0,0 l/m 19,6 km/h (3 Bft) W-SW 254 0 min 0,000 mm 0,0 UV-I 0 W/m 8,6 C 2,4 C 25,7 km/h (4 Bft) 100,00 %
08.05.2017 23:00 9,1 C 15,0 C 96 % 1013,8 hPa 0,2 l/m 11,8 km/h (2 Bft) W-SW 256 0 min 0,000 mm 0,0 UV-I 0 W/m 8,5 C 5,6 C 19,3 km/h (3 Bft) 97,87 %
08.05.2017 23:02 9,1 C 15,0 C 96 % 1013,8 hPa 0,2 l/m 15,2 km/h (3 Bft) W 271 0 min 0,000 mm 0,0 UV-I 0 W/m 8,5 C 4,0 C 20,9 km/h (4 Bft) 97,92 %
08.05.2017 23:04 9,1 C 15,0 C 96 % 1013,8 hPa 0,0 l/m 14,6 km/h (3 Bft) W-SW 241 0 min 0,000 mm 0,0 UV-I 0 W/m 8,5 C 4,2 C 20,9 km/h (4 Bft) 95,74 %
08.05.2017 23:06 9,1 C 15,0 C 96 % 1013,8 hPa 0,0 l/m 13,1 km/h (3 Bft) W-SW 258 0 min 0,000 mm 0,0 UV-I 0 W/m 8,5 C 4,9 C 19,3 km/h (3 Bft) 98,11 %
08.05.2017 23:08 9,1 C 15,0 C 96 % 1013,8 hPa 0,0 l/m 13,4 km/h (3 Bft) W-SW 247 0 min 0,000 mm 0,0 UV-I 0 W/m 8,5 C 4,8 C 24,1 km/h (4 Bft) 97,14 %
08.05.2017 23:10 9,1 C 15,0 C 96 % 1013,9 hPa 0,2 l/m 15,8 km/h (3 Bft) W-SW 254 0 min 0,000 mm 0,0 UV-I 0 W/m 8,5 C 3,7 C 20,9 km/h (4 Bft) 96,15 %
08.05.2017 23:12 9,1 C 15,0 C 96 % 1013,9 hPa 0,0 l/m 17,7 km/h (3 Bft) W-SW 242 0 min 0,000 mm 0,0 UV-I 0 W/m 8,5 C 2,9 C 27,4 km/h (4 Bft) 97,87 %
08.05.2017 23:14 9,0 C 15,0 C 96 % 1013,9 hPa 0,2 l/m 12,3 km/h (3 Bft) W 273 0 min 0,000 mm 0,0 UV-I 0 W/m 8,4 C 5,2 C 19,3 km/h (3 Bft) 93,62 %
08.05.2017 23:16 9,0 C 15,0 C 96 % 1013,9 hPa 0,0 l/m 15,9 km/h (3 Bft) W 264 0 min 0,000 mm 0,0 UV-I 0 W/m 8,4 C 3,5 C 24,1 km/h (4 Bft) 93,62 %
08.05.2017 23:18 9,1 C 15,0 C 96 % 1013,9 hPa 0,0 l/m 13,1 km/h (3 Bft) W 267 0 min 0,000 mm 0,0 UV-I 0 W/m 8,5 C 4,9 C 20,9 km/h (4 Bft) 95,74 %
08.05.2017 23:20 9,0 C 15,0 C 96 % 1013,9 hPa 0,0 l/m 14,5 km/h (3 Bft) W-SW 256 0 min 0,000 mm 0,0 UV-I 0 W/m 8,4 C 4,1 C 24,1 km/h (4 Bft) 95,74 %
08.05.2017 23:22 9,0 C 15,0 C 96 % 1014,0 hPa 0,2 l/m 15,6 km/h (3 Bft) W-SW 246 0 min 0,000 mm 0,0 UV-I 0 W/m 8,4 C 3,7 C 22,5 km/h (4 Bft) 97,92 %
08.05.2017 23:24 9,0 C 15,0 C 96 % 1013,9 hPa 0,0 l/m 17,2 km/h (3 Bft) W-NW 290 0 min 0,000 mm 0,0 UV-I 0 W/m 8,4 C 3,0 C 25,7 km/h (4 Bft) 95,74 %
08.05.2017 23:26 9,0 C 15,0 C 96 % 1014,0 hPa 0,2 l/m 15,3 km/h (3 Bft) W 261 0 min 0,000 mm 0,0 UV-I 0 W/m 8,4 C 3,8 C 22,5 km/h (4 Bft) 91,49 %
08.05.2017 23:28 9,0 C 15,0 C 96 % 1014,0 hPa 0,2 l/m 12,6 km/h (3 Bft) W 261 0 min 0,000 mm 0,0 UV-I 0 W/m 8,4 C 5,1 C 22,5 km/h (4 Bft) 97,87 %
08.05.2017 23:30 8,9 C 15,0 C 96 % 1014,0 hPa 0,0 l/m 11,5 km/h (2 Bft) W 273 0 min 0,000 mm 0,0 UV-I 0 W/m 8,3 C 5,5 C 17,7 km/h (3 Bft) 95,74 %
08.05.2017 23:32 8,9 C 15,0 C 96 % 1014,0 hPa 0,2 l/m 8,3 km/h (2 Bft) W 265 0 min 0,000 mm 0,0 UV-I 0 W/m 8,3 C 7,5 C 12,9 km/h (3 Bft) 95,74 %
08.05.2017 23:34 9,0 C 15,0 C 96 % 1014,0 hPa 0,2 l/m 9,0 km/h (2 Bft) W-SW 256 0 min 0,000 mm 0,0 UV-I 0 W/m 8,4 C 7,1 C 17,7 km/h (3 Bft) 98,00 %
08.05.2017 23:36 9,0 C 15,0 C 96 % 1014,0 hPa 0,0 l/m 11,0 km/h (2 Bft) W-SW 257 0 min 0,000 mm 0,0 UV-I 0 W/m 8,4 C 5,9 C 17,7 km/h (3 Bft) 97,37 %
08.05.2017 23:38 8,9 C 15,0 C 96 % 1014,0 hPa 0,2 l/m 9,6 km/h (2 Bft) W-SW 253 0 min 0,000 mm 0,0 UV-I 0 W/m 8,3 C 6,6 C 14,5 km/h (3 Bft) 97,92 %
08.05.2017 23:40 8,9 C 15,0 C 96 % 1014,0 hPa 0,0 l/m 13,9 km/h (3 Bft) W 259 0 min 0,000 mm 0,0 UV-I 0 W/m 8,3 C 4,3 C 22,5 km/h (4 Bft) 95,74 %
08.05.2017 23:42 8,9 C 15,0 C 96 % 1014,0 hPa 0,2 l/m 13,0 km/h (3 Bft) SW 221 0 min 0,000 mm 0,0 UV-I 0 W/m 8,3 C 4,7 C 20,9 km/h (4 Bft) 95,74 %
08.05.2017 23:44 8,9 C 15,0 C 96 % 1014,0 hPa 0,2 l/m 15,1 km/h (3 Bft) W-SW 257 0 min 0,000 mm 0,0 UV-I 0 W/m 8,3 C 3,8 C 24,1 km/h (4 Bft) 95,74 %
08.05.2017 23:46 8,9 C 15,0 C 96 % 1014,0 hPa 0,0 l/m 16,0 km/h (3 Bft) SW 234 0 min 0,000 mm 0,0 UV-I 0 W/m 8,3 C 3,4 C 25,7 km/h (4 Bft) 97,96 %
08.05.2017 23:48 8,9 C 15,0 C 96 % 1014,1 hPa 0,0 l/m 14,3 km/h (3 Bft) W-SW 252 0 min 0,000 mm 0,0 UV-I 0 W/m 8,3 C 4,1 C 20,9 km/h (4 Bft) 96,00 %
08.05.2017 23:50 8,8 C 15,0 C 96 % 1014,1 hPa 0,2 l/m 15,0 km/h (3 Bft) W-SW 247 0 min 0,000 mm 0,0 UV-I 0 W/m 8,2 C 3,7 C 20,9 km/h (4 Bft) 98,00 %
08.05.2017 23:52 8,8 C 15,0 C 96 % 1014,1 hPa 0,0 l/m 11,6 km/h (2 Bft) W-SW 251 0 min 0,000 mm 0,0 UV-I 0 W/m 8,2 C 5,3 C 17,7 km/h (3 Bft) 95,74 %
08.05.2017 23:54 8,8 C 15,0 C 96 % 1014,1 hPa 0,2 l/m 10,5 km/h (2 Bft) S-SW 202 0 min 0,000 mm 0,0 UV-I 0 W/m 8,2 C 6,0 C 20,9 km/h (4 Bft) 97,37 %
08.05.2017 23:56 8,8 C 15,0 C 96 % 1014,0 hPa 0,2 l/m 17,2 km/h (3 Bft) W-SW 249 0 min 0,000 mm 0,0 UV-I 0 W/m 8,2 C 2,8 C 22,5 km/h (4 Bft) 91,84 %
08.05.2017 23:58 8,7 C 15,0 C 96 % 1014,0 hPa 0,2 l/m 16,4 km/h (3 Bft) SW 230 0 min 0,000 mm 0,0 UV-I 0 W/m 8,1 C 3,0 C 29,0 km/h (5 Bft) 96,00 %
_ Min-Zeit 23:58 04:36 13:20 04:52 - 15:48 - - - - - - 23:58 21:46 15:48 00:02
Minimum _ 8,7 C 15,0 C 80 % 1010,5 hPa - 0,1 km/h (0 Bft) - - - - - - 8,1 C 2,2 C 1,6 km/h (1 Bft) 5,88 %
_ Max-Zeit 12:52 00:00 03:30 23:48 16:19 13:02 - - 10:56 13:00 12:44 12:52 11:28 15:36 12:38 01:01
Maximum _ 14,3 C 15,6 C 96 % 1014,1 hPa 0,8 l/m 24,4 km/h
W-SW (4 Bft)
- - 2 min 0,356 mm 4,5 UV-I 1086 W/m 11,4 C 12,4 C 38,6 km/h
SW (5 Bft)
100,00 %
Durchschnitt _ 10,9 C 15,4 C 93 % 1011,7 hPa #28,4 l/m 12,2 km/h (2 Bft) W-SW - #1:48 h #1,422 mm 1,8 UV-I 167 W/m 9,8 C 7,6 C 19,1 km/h (3 Bft) 96,47 %